[[{"header":{"parameterUnit":"m.s-1","parameterCategory":1,"la1":30.6,"la2":28.766,"lo1":-90.7593,"lo2":-88.6598,"dy":0.0162,"dx":0.0183,"nx":116,"ny":114,"refTime":"2024-02-08T18:00:00:Z","depth":0,"parameterNumber":2,"parameterNumberName":"U-component_of_WINDS"},"data":[0.0,0.0,0.0,0.0,0.0,0.0,0.0,0.0,0.0,0.0,0.0,0.0,0.0,0.0,0.0,0.0,0.0,0.0,0.0,0.0,0.0,0.0,0.0,0.0,0.0,0.0,0.0,0.0,0.0,0.0,0.0,0.0,0.0,0.0,0.0,0.0,0.0,0.0,0.0,0.0,0.0,0.0,0.0,0.0,0.0,0.0,0.0,0.0,0.0,0.0,0.0,0.0,0.0,0.0,0.0,0.0,0.0,0.0,0.0,0.0,0.0,0.0,0.0,0.0,0.0,0.0,0.0,0.0,0.0,0.0,0.0,0.0,0.0,0.0,0.0,0.0,0.0,0.0,0.0,0.0,0.0,0.0,0.0,0.0,0.0,0.0,0.0,0.0,0.0,0.0,0.0,0.0,0.0,0.0,0.0,0.0,0.0,0.0,0.0,0.0,0.0,0.0,0.0,0.0,0.0,0.0,0.0,0.0,0.0,0.0,0.0,0.0,0.0,0.0,0.0,0.0,0.0,0.0,0.0,0.0,0.0,0.0,0.0,0.0,0.0,0.0,0.0,0.0,0.0,0.0,0.0,0.0,0.0,0.0,0.0,0.0,0.0,0.0,0.0,0.0,0.0,0.0,0.0,0.0,0.0,0.0,0.0,0.0,0.0,0.0,0.0,0.0,0.0,0.0,0.0,0.0,0.0,0.0,0.0,0.0,0.0,0.0,0.0,0.0,0.0,0.0,0.0,0.0,0.0,0.0,0.0,0.0,0.0,0.0,0.0,0.0,0.0,0.0,0.0,0.0,0.0,0.0,0.0,0.0,0.0,0.0,0.0,0.0,0.0,0.0,0.0,0.0,0.0,0.0,0.0,0.0,0.0,0.0,0.0,0.0,0.0,0.0,0.0,0.0,0.0,0.0,0.0,0.0,0.0,0.0,0.0,0.0,0.0,0.0,0.0,0.0,0.0,0.0,0.0,0.0,0.0,0.0,0.0,0.0,0.0,0.0,0.0,0.0,0.0,0.0,0.0,0.0,0.0,0.0,0.0,0.0,0.0,0.0,0.0,0.0,0.0,0.0,0.0,0.0,0.0,0.0,0.0,0.0,0.0,0.0,0.0,0.0,0.0,0.0,0.0,0.0,0.0,0.0,0.0,0.0,0.0,0.0,0.0,0.0,0.0,0.0,0.0,0.0,0.0,0.0,0.0,0.0,0.0,0.0,0.0,0.0,0.0,0.0,0.0,0.0,0.0,0.0,0.0,0.0,0.0,0.0,0.0,0.0,0.0,0.0,0.0,0.0,0.0,0.0,0.0,0.0,0.0,0.0,0.0,0.0,0.0,0.0,0.0,0.0,0.0,0.0,0.0,0.0,0.0,0.0,0.0,0.0,0.0,0.0,0.0,0.0,0.0,0.0,0.0,0.0,0.0,0.0,0.0,0.0,0.0,0.0,0.0,0.0,0.0,0.0,0.0,0.0,0.0,0.0,0.0,0.0,0.0,0.0,0.0,0.0,0.0,0.0,0.0,0.0,0.0,0.0,0.0,0.0,0.0,0.0,0.0,0.0,0.0,0.0,0.0,0.0,0.0,0.0,0.0,0.0,0.0,0.0,0.0,0.0,0.0,0.0,0.0,0.0,0.0,0.0,0.0,0.0,0.0,0.0,0.0,0.0,0.0,0.0,0.0,0.0,0.0,0.0,0.0,0.0,0.0,0.0,0.0,0.0,0.0,0.0,0.0,0.0,0.0,0.0,0.0,0.0,0.0,0.0,0.0,0.0,0.0,0.0,0.0,0.0,0.0,0.0,0.0,0.0,0.0,0.0,0.0,0.0,0.0,0.0,0.0,0.0,0.0,0.0,0.0,0.0,0.0,0.0,0.0,0.0,0.0,0.0,0.0,0.0,0.0,0.0,0.0,0.0,0.0,0.0,0.0,0.0,0.0,0.0,0.0,0.0,0.0,0.0,0.0,0.0,0.0,0.0,0.0,0.0,0.0,0.0,0.0,0.0,0.0,0.0,0.0,0.0,0.0,0.0,0.0,0.0,0.0,0.0,0.0,0.0,0.0,0.0,0.0,0.0,0.0,0.0,0.0,0.0,0.0,0.0,0.0,0.0,0.0,0.0,0.0,0.0,0.0,0.0,0.0,0.0,0.0,0.0,0.0,0.0,0.0,0.0,0.0,0.0,0.0,0.0,0.0,0.0,0.0,0.0,0.0,0.0,0.0,0.0,0.0,0.0,0.0,0.0,0.0,0.0,0.0,0.0,0.0,0.0,0.0,0.0,0.0,0.0,0.0,0.0,0.0,0.0,0.0,0.0,0.0,0.0,0.0,0.0,0.0,0.0,0.0,0.0,0.0,0.0,0.0,0.0,0.0,0.0,0.0,0.0,0.0,0.0,0.0,0.0,0.0,0.0,0.0,0.0,0.0,0.0,0.0,0.0,0.0,0.0,0.0,0.0,0.0,0.0,0.0,0.0,0.0,0.0,0.0,0.0,0.0,0.0,0.0,0.0,0.0,0.0,0.0,0.0,0.0,0.0,0.0,0.0,0.0,0.0,0.0,0.0,0.0,0.0,0.0,0.0,0.0,0.0,0.0,0.0,0.0,0.0,0.0,0.0,0.0,0.0,0.0,0.0,0.0,0.0,0.0,0.0,0.0,0.0,0.0,0.0,0.0,0.0,0.0,0.0,0.0,0.0,0.0,0.0,0.0,0.0,0.0,0.0,0.0,0.0,0.0,0.0,0.0,0.0,0.0,0.0,0.0,0.0,0.0,0.0,0.0,0.0,0.0,0.0,0.0,0.0,0.0,0.0,0.0,0.0,0.0,0.0,0.0,0.0,0.0,0.0,0.0,0.0,0.0,0.0,0.0,0.0,0.0,0.0,0.0,0.0,0.0,0.0,0.0,0.0,0.0,0.0,0.0,0.0,0.0,0.0,0.0,0.0,0.0,0.0,0.0,0.0,0.0,0.0,0.0,0.0,0.0,0.0,0.0,0.0,0.0,0.0,0.0,0.0,0.0,0.0,0.0,0.0,0.0,0.0,0.0,0.0,0.0,0.0,0.0,0.0,0.0,0.0,0.0,0.0,0.0,0.0,0.0,0.0,0.0,0.0,0.0,0.0,0.0,0.0,0.0,0.0,0.0,0.0,0.0,0.0,0.0,0.0,0.0,0.0,0.0,0.0,0.0,0.0,0.0,0.0,0.0,0.0,0.0,0.0,0.0,0.0,0.0,0.0,0.0,0.0,0.0,0.0,0.0,0.0,0.0,0.0,0.0,0.0,0.0,0.0,0.0,0.0,0.0,0.0,0.0,0.0,0.0,0.0,0.0,0.0,0.0,0.0,0.0,0.0,0.0,0.0,0.0,0.0,0.0,0.0,0.0,0.0,0.0,0.0,0.0,0.0,0.0,0.0,0.0,0.0,0.0,0.0,0.0,0.0,0.0,0.0,0.0,0.0,0.0,0.0,0.0,0.0,0.0,0.0,0.0,0.0,0.0,0.0,0.0,0.0,0.0,0.0,0.0,0.0,0.0,0.0,0.0,0.0,0.0,0.0,0.0,0.0,0.0,0.0,0.0,0.0,0.0,0.0,0.0,0.0,0.0,0.0,0.0,0.0,0.0,0.0,0.0,0.0,0.0,0.0,0.0,0.0,0.0,0.0,0.0,0.0,0.0,0.0,0.0,0.0,0.0,0.0,0.0,0.0,0.0,0.0,0.0,0.0,0.0,0.0,0.0,0.0,0.0,0.0,0.0,0.0,0.0,0.0,0.0,0.0,0.0,0.0,0.0,0.0,0.0,0.0,0.0,0.0,0.0,0.0,0.0,0.0,0.0,0.0,0.0,0.0,0.0,0.0,0.0,0.0,0.0,0.0,0.0,0.0,0.0,0.0,0.0,0.0,0.0,0.0,0.0,0.0,0.0,0.0,0.0,0.0,0.0,0.0,0.0,0.0,0.0,0.0,0.0,0.0,0.0,0.0,0.0,0.0,0.0,0.0,0.0,0.0,0.0,0.0,0.0,0.0,0.0,0.0,0.0,0.0,0.0,0.0,0.0,0.0,0.0,0.0,0.0,0.0,0.0,0.0,0.0,0.0,0.0,0.0,0.0,0.0,0.0,0.0,0.0,0.0,0.0,0.0,0.0,0.0,0.0,0.0,0.0,0.0,0.0,0.0,0.0,0.0,0.0,0.0,0.0,0.0,0.0,0.0,0.0,0.0,0.0,0.0,0.0,0.0,0.0,0.0,0.0,0.0,0.0,0.0,0.0,0.0,0.0,0.0,0.0,0.0,0.0,0.0,0.0,0.0,0.0,0.0,0.0,0.0,0.0,0.0,0.0,0.0,0.0,0.0,0.0,0.0,0.0,0.0,0.0,0.0,0.0,0.0,0.0,0.0,0.0,0.0,0.0,0.0,0.0,0.0,0.0,0.0,0.0,0.0,0.0,0.0,0.0,0.0,0.0,0.0,0.0,0.0,0.0,0.0,0.0,0.0,0.0,0.0,0.0,0.0,0.0,0.0,0.0,0.0,0.0,0.0,0.0,0.0,0.0,0.0,0.0,0.0,0.0,0.0,0.0,0.0,0.0,0.0,0.0,0.0,0.0,0.0,0.0,0.0,0.0,0.0,0.0,0.0,0.0,0.0,0.0,0.0,0.0,0.0,0.0,0.0,0.0,0.0,0.0,0.0,0.0,0.0,0.0,0.0,0.0,0.0,0.0,0.0,0.0,0.0,0.0,0.0,0.0,0.0,0.0,0.0,0.0,0.0,0.0,0.0,0.0,0.0,0.0,0.0,0.0,0.0,0.0,0.0,0.0,0.0,0.0,0.0,0.0,0.0,0.0,0.0,0.0,0.0,0.0,0.0,0.0,0.0,0.0,0.0,0.0,0.0,0.0,0.0,0.0,0.0,0.0,0.0,0.0,0.0,0.0,0.0,0.0,0.0,0.0,0.0,0.0,0.0,0.0,0.0,0.0,0.0,0.0,0.0,0.0,0.0,0.0,0.0,0.0,0.0,0.0,0.0,0.0,0.0,0.0,0.0,0.0,0.0,0.0,0.0,0.0,0.0,0.0,0.0,0.0,0.0,0.0,0.0,0.0,0.0,0.0,0.0,0.0,0.0,0.0,0.0,0.0,0.0,0.0,0.0,0.0,0.0,0.0,0.0,0.0,0.0,0.0,0.0,0.0,0.0,0.0,0.0,0.0,0.0,0.0,0.0,0.0,0.0,0.0,0.0,0.0,0.0,0.0,0.0,0.0,0.0,0.0,0.0,0.0,0.0,0.0,0.0,0.0,0.0,0.0,0.0,0.0,0.0,0.0,0.0,0.0,0.0,0.0,0.0,0.0,0.0,0.0,0.0,0.0,0.0,0.0,0.0,0.0,0.0,0.0,0.0,0.0,0.0,0.0,0.0,0.0,0.0,0.0,0.0,0.0,0.0,0.0,0.0,0.0,0.0,0.0,0.0,0.0,0.0,0.0,0.0,0.0,0.0,0.0,0.0,0.0,0.0,0.0,0.0,0.0,0.0,0.0,0.0,0.0,0.0,0.0,0.0,0.0,0.0,0.0,0.0,0.0,0.0,0.0,0.0,0.0,0.0,0.0,0.0,0.0,0.0,0.0,0.0,0.0,0.0,0.0,0.0,0.0,0.0,0.0,0.0,0.0,0.0,0.0,0.0,0.0,0.0,0.0,0.0,0.0,0.0,0.0,0.0,0.0,0.0,0.0,0.0,0.0,0.0,0.0,0.0,0.0,0.0,0.0,0.0,0.0,0.0,0.0,0.0,0.0,0.0,0.0,0.0,0.0,0.0,0.0,0.0,0.0,0.0,0.0,0.0,0.0,0.0,0.0,0.0,0.0,0.0,0.0,0.0,0.0,0.0,0.0,0.0,0.0,0.0,0.0,0.0,0.0,0.0,0.0,0.0,0.0,0.0,0.0,0.0,0.0,0.0,0.0,0.0,0.0,0.0,0.0,0.0,0.0,0.0,0.0,0.0,0.0,0.0,0.0,0.0,0.0,0.0,0.0,0.0,0.0,0.0,0.0,0.0,0.0,0.0,0.0,0.0,0.0,0.0,0.0,0.0,0.0,0.0,0.0,0.0,0.0,0.0,3.1195,0.0,0.0,0.0,0.0,0.0,0.0,0.0,0.0,0.0,0.0,0.0,0.0,0.0,0.0,0.0,0.0,0.0,0.0,0.0,0.0,0.0,0.0,0.0,0.0,0.0,0.0,0.0,2.3595,2.3595,2.3595,2.3595,2.3739,2.4077,2.4077,2.4386,2.5074,2.5074,2.5408,2.6078,2.6078,2.6249,2.6563,0.0,0.0,0.0,0.0,0.0,0.0,0.0,0.0,0.0,0.0,0.0,0.0,0.0,0.0,0.0,0.0,0.0,0.0,0.0,0.0,0.0,0.0,0.0,0.0,0.0,0.0,0.0,0.0,0.0,0.0,0.0,0.0,0.0,0.0,0.0,0.0,0.0,0.0,0.0,0.0,0.0,0.0,0.0,0.0,0.0,0.0,0.0,0.0,0.0,0.0,0.0,0.0,0.0,0.0,0.0,0.0,0.0,0.0,0.0,0.0,0.0,0.0,0.0,0.0,0.0,0.0,0.0,0.0,0.0,0.0,0.0,0.0,0.0,0.0,3.1195,0.0,0.0,0.0,0.0,0.0,0.0,0.0,0.0,0.0,0.0,0.0,0.0,0.0,0.0,0.0,0.0,0.0,0.0,0.0,0.0,0.0,0.0,0.0,2.3595,2.3595,2.3595,2.3595,2.3595,2.3595,2.3714,2.4018,2.4584,2.4703,2.5089,2.5758,2.5773,2.6093,2.6764,2.6764,2.7054,2.7606,0.0,0.0,0.0,0.0,0.0,0.0,0.0,0.0,0.0,0.0,0.0,0.0,0.0,0.0,0.0,0.0,0.0,0.0,0.0,0.0,0.0,0.0,0.0,0.0,0.0,0.0,0.0,0.0,0.0,0.0,0.0,0.0,0.0,0.0,0.0,0.0,0.0,0.0,0.0,0.0,0.0,0.0,0.0,0.0,0.0,0.0,0.0,0.0,0.0,0.0,0.0,0.0,0.0,0.0,0.0,0.0,0.0,0.0,0.0,0.0,0.0,0.0,0.0,0.0,0.0,0.0,0.0,3.0397,3.0457,3.0678,3.0726,3.0813,3.0953,3.1396,3.1525,3.1417,0.0,0.0,0.0,0.0,0.0,0.0,0.0,0.0,0.0,0.0,0.0,0.0,0.0,0.0,0.0,0.0,0.0,0.0,0.0,0.0,0.0,0.0,2.3595,2.3595,2.3595,2.3595,2.3595,2.3595,2.4147,2.4509,2.4599,2.5163,2.5782,2.6443,2.6465,2.6794,2.7471,2.7471,2.751,2.7606,2.7606,2.7606,2.7606,0.0,0.0,0.0,0.0,0.0,0.0,0.0,0.0,0.0,0.0,0.0,0.0,0.0,0.0,0.0,0.0,0.0,0.0,0.0,0.0,0.0,0.0,0.0,0.0,0.0,0.0,0.0,0.0,0.0,0.0,0.0,0.0,0.0,0.0,0.0,0.0,0.0,0.0,0.0,0.0,0.0,0.0,0.0,0.0,2.7638,2.771,0.0,0.0,0.0,0.0,0.0,0.0,0.0,0.0,0.0,0.0,0.0,0.0,0.0,2.8372,2.9486,2.9052,2.9639,3.1254,3.0721,3.105,3.212,3.2123,3.2442,3.3015,3.3084,0.0,3.2282,3.2875,0.0,0.0,0.0,0.0,0.0,0.0,0.0,0.0,0.0,0.0,0.0,0.0,0.0,0.0,0.0,0.0,0.0,0.0,0.0,0.0,0.0,2.3301,2.3087,2.3087,2.3441,2.3657,2.3657,2.4603,2.5334,2.5713,2.6004,2.6479,2.7144,2.6762,2.6483,2.6362,2.6787,2.6766,2.6382,2.7208,2.7376,2.7002,2.7414,2.7606,2.7644,2.8234,0.0,0.0,0.0,0.0,0.0,0.0,0.0,0.0,0.0,0.0,0.0,0.0,0.0,0.0,0.0,0.0,0.0,0.0,0.0,0.0,0.0,0.0,0.0,0.0,0.0,0.0,0.0,0.0,0.0,0.0,0.0,0.0,0.0,0.0,0.0,0.0,0.0,0.0,0.0,2.7606,2.7606,2.7606,2.7606,2.7606,0.0,0.0,0.0,0.0,0.0,0.0,0.0,0.0,0.0,2.911,2.8867,2.8989,2.9548,2.9633,3.0084,3.0892,3.063,3.0998,3.1904,3.193,3.2313,3.2996,3.3742,3.3907,3.3616,3.3475,3.3401,3.3401,0.0,0.0,0.0,0.0,3.3401,3.3401,0.0,0.0,0.0,0.0,0.0,0.0,0.0,0.0,0.0,0.0,0.0,0.0,2.3133,2.2852,2.274,2.2939,2.3353,2.3779,2.4156,2.5064,2.5884,2.6572,2.6577,2.6904,2.7585,2.6878,2.6229,2.5673,2.6041,2.6135,2.5993,2.7071,2.7286,2.6806,2.7529,2.7764,2.7638,2.8079,2.8274,0.0,0.0,0.0,0.0,0.0,0.0,0.0,0.0,0.0,0.0,0.0,0.0,0.0,0.0,0.0,0.0,0.0,0.0,0.0,0.0,0.0,0.0,0.0,0.0,0.0,0.0,0.0,0.0,0.0,0.0,0.0,0.0,0.0,0.0,0.0,0.0,0.0,0.0,2.7606,2.7606,2.7606,2.7743,2.7869,0.0,0.0,0.0,0.0,0.0,0.0,2.8853,2.9324,2.96,2.96,2.9743,2.9915,3.008,3.0691,3.1092,3.1276,3.1276,3.1616,3.2269,3.2324,3.2724,3.3412,3.4424,3.4858,3.4806,3.4209,3.3954,3.3954,3.3954,3.3954,3.3954,3.3954,3.3954,3.3954,0.0,0.0,0.0,0.0,0.0,0.0,0.0,0.0,0.0,0.0,0.0,2.2503,2.1875,2.2278,2.289,2.3587,2.3505,2.4007,2.542,2.5503,2.5831,2.6569,2.6545,2.6855,2.7587,2.6878,2.6484,2.6444,2.5776,2.6155,2.7486,2.7506,2.7522,2.7564,2.8256,2.8201,2.7606,2.7638,2.7656,2.7656,0.0,0.0,0.0,0.0,0.0,0.0,0.0,0.0,0.0,0.0,0.0,0.0,0.0,0.0,0.0,0.0,0.0,0.0,0.0,0.0,0.0,0.0,0.0,0.0,0.0,0.0,0.0,0.0,0.0,0.0,0.0,0.0,0.0,0.0,0.0,0.0,0.0,0.0,0.0,2.7606,2.815,0.0,0.0,0.0,0.0,2.9495,2.9525,2.9555,2.9555,2.9578,2.96,2.96,3.0155,3.0769,3.1406,3.2063,3.2721,3.3343,3.3343,3.3704,3.4346,3.4356,3.475,3.545,3.5516,3.5546,3.5542,3.5515,3.5487,3.5487,3.5487,3.5487,3.5487,3.5487,3.5487,3.5487,0.0,0.0,0.0,0.0,0.0,0.0,0.0,0.0,2.3198,2.2952,2.2787,2.2615,2.2363,2.2544,2.2581,2.237,2.3432,2.4127,2.418,2.4976,2.5754,2.6504,2.6054,2.5848,2.5986,2.5736,2.5536,2.5408,2.5622,2.6026,2.6652,2.7577,2.8054,2.8151,2.892,2.9114,2.8836,2.7966,2.7606,2.7606,2.7606,2.7723,0.0,0.0,0.0,0.0,0.0,0.0,0.0,0.0,0.0,0.0,0.0,0.0,0.0,0.0,0.0,0.0,0.0,0.0,0.0,0.0,0.0,0.0,0.0,0.0,0.0,0.0,0.0,0.0,0.0,0.0,0.0,0.0,0.0,0.0,0.0,0.0,0.0,2.8843,2.9106,0.0,2.9234,2.9458,2.96,2.96,3.0357,3.0822,3.0822,3.1644,3.2108,3.2108,3.2325,3.2542,3.2781,3.3013,3.326,3.3507,3.3507,3.3849,3.4496,3.4496,3.49,3.5596,3.5596,3.5866,3.631,3.63,3.6034,3.5603,3.5603,3.5603,3.5603,3.5603,3.5603,3.5603,0.0,0.0,0.0,0.0,0.0,0.0,0.0,0.0,2.2891,2.2682,2.2478,2.228,2.2046,2.2365,2.2586,2.2575,2.3467,2.4147,2.4436,2.4804,2.5446,2.6359,2.6092,2.5637,2.5011,2.5243,2.5303,2.5175,2.5591,2.6099,2.6704,2.7843,2.8577,2.9002,2.9526,2.9825,2.9826,2.8731,2.8274,2.8274,2.8274,2.8132,2.7953,0.0,0.0,0.0,0.0,0.0,0.0,0.0,0.0,0.0,0.0,0.0,0.0,0.0,0.0,0.0,0.0,0.0,0.0,0.0,0.0,0.0,0.0,0.0,0.0,0.0,0.0,0.0,0.0,0.0,0.0,0.0,0.0,0.0,0.0,0.0,2.9092,2.9555,2.9773,2.999,3.023,3.0454,3.0664,3.0895,3.1697,3.2176,3.2176,3.3021,3.3507,3.3507,3.3717,3.3844,3.3844,3.4061,3.4173,3.4173,3.4173,3.4415,3.4835,3.4835,3.5098,3.5578,3.5578,3.5843,3.63,3.63,3.6146,3.5974,3.6255,3.6378,3.6336,3.6067,3.6144,3.6345,0.0,0.0,0.0,0.0,0.0,0.0,0.0,2.1342,2.1508,2.0913,2.1337,2.1451,2.0796,2.1754,2.2964,2.4303,2.3636,2.4063,2.6278,2.5076,2.4853,2.6094,2.6678,2.6283,2.4861,2.5539,2.5925,2.5938,2.5771,2.6422,2.7859,2.8314,2.9103,3.0152,3.0129,3.0279,3.051,2.9926,2.9664,2.9634,2.9616,2.9212,2.8697,0.0,0.0,0.0,0.0,0.0,0.0,0.0,0.0,0.0,0.0,0.0,0.0,0.0,0.0,0.0,0.0,0.0,0.0,0.0,0.0,0.0,0.0,0.0,0.0,0.0,0.0,0.0,0.0,0.0,0.0,0.0,0.0,0.0,2.9623,2.963,2.9638,2.969,3.0215,3.0829,3.1496,3.2146,3.2804,3.3447,3.3514,3.3537,3.3537,3.3552,3.3567,3.3567,3.4188,3.4526,3.4526,3.5183,3.5496,3.5496,3.5496,3.5496,3.5496,3.5496,3.5496,3.5496,3.5496,3.5512,3.5537,3.5537,3.5967,3.6726,3.75,3.7836,3.7759,3.6983,3.7199,3.7741,0.0,0.0,0.0,0.0,0.0,0.0,0.0,2.2015,2.2195,2.1532,2.1549,2.1558,2.1368,2.2409,2.3065,2.2925,2.3562,2.4177,2.4661,2.4314,2.441,2.5155,2.584,2.5931,2.5389,2.6016,2.6532,2.6917,2.7257,2.7934,2.8956,2.909,3.0001,3.1519,3.0798,3.091,3.1651,3.1477,3.1128,3.062,2.9897,2.9495,2.9353,0.0,0.0,0.0,0.0,0.0,0.0,0.0,0.0,0.0,0.0,0.0,0.0,0.0,0.0,0.0,0.0,0.0,0.0,0.0,0.0,0.0,0.0,0.0,0.0,0.0,0.0,0.0,0.0,0.0,0.0,0.0,0.0,3.0807,3.0313,3.0253,3.0612,3.1584,3.1846,3.2213,3.2893,3.3125,3.3305,3.3492,3.3949,3.4226,3.4226,3.4689,3.4951,3.4951,3.513,3.5228,3.5228,3.5415,3.5496,3.5496,3.5496,3.5496,3.5496,3.5496,3.5496,3.5496,3.5496,3.5806,3.6298,3.6298,3.6753,3.7387,3.6499,3.6491,3.6926,3.6708,3.6767,3.6855,0.0,0.0,0.0,0.0,0.0,0.0,0.0,2.2022,2.2141,2.1744,2.1896,2.1997,2.1937,2.2793,2.3304,2.3155,2.3769,2.4253,2.4443,2.4588,0.0,0.0,0.0,2.6423,2.6306,2.688,2.7324,2.7641,2.8176,2.8681,2.9206,2.9451,3.0343,3.1707,3.1235,3.1573,3.2536,3.2637,3.2452,3.2022,3.1158,3.0484,3.0012,3.0298,3.0058,2.9623,2.9892,2.9817,2.96,2.96,0.0,0.0,0.0,0.0,0.0,0.0,0.0,0.0,0.0,0.0,0.0,0.0,0.0,0.0,0.0,0.0,0.0,0.0,0.0,0.0,0.0,0.0,0.0,0.0,3.0962,3.1787,3.1398,3.1338,3.1727,3.2789,3.2923,3.3178,3.3851,3.3911,3.4031,3.4322,3.4704,3.4914,3.4914,3.5295,3.5496,3.5496,3.5496,3.5496,3.5496,3.5496,3.5496,3.5496,3.5496,3.5496,3.5496,3.5496,3.5496,0.0,3.5496,3.5742,3.6134,3.6134,3.6592,0.0,0.0,0.0,0.0,0.0,3.6889,3.6538,0.0,0.0,0.0,0.0,0.0,0.0,0.0,2.1637,2.1604,2.1604,2.211,2.2435,2.231,2.2884,2.3528,2.4102,2.4057,2.4332,2.5113,2.5435,0.0,2.5695,2.6733,2.7298,2.7298,2.7883,2.8188,2.8188,2.8731,2.8998,2.9019,2.9656,3.04,3.1209,3.1441,3.2053,3.2908,3.3146,3.3254,3.3244,3.2764,3.1833,3.0784,3.1301,3.0792,2.9877,3.0417,3.0268,2.9817,2.9817,0.0,0.0,0.0,0.0,0.0,0.0,0.0,0.0,0.0,0.0,0.0,0.0,0.0,0.0,0.0,0.0,0.0,0.0,0.0,0.0,0.0,0.0,0.0,0.0,3.1498,3.2415,3.2564,3.2654,3.2953,3.3537,3.3612,3.3874,3.4555,3.4615,3.4862,3.5459,3.5496,3.5496,3.5496,0.0,0.0,0.0,0.0,3.5654,3.5706,3.5706,3.5706,3.5706,3.5706,3.5706,3.5706,3.5706,3.5706,3.5706,3.5706,3.5706,3.5706,3.5706,3.6099,3.6762,3.7416,3.7661,3.7646,3.7566,3.7145,3.6592,0.0,0.0,0.0,0.0,0.0,0.0,0.0,2.1287,2.0967,2.0967,2.1414,2.1694,2.1684,2.2553,2.3186,2.3315,2.3742,2.4431,2.5438,0.0,2.5816,2.6298,2.6955,2.7298,2.7298,2.8251,2.8756,2.8756,2.9343,2.9628,2.9648,3.0525,3.1026,3.1195,3.1251,3.1381,3.1572,3.1622,3.177,3.2033,3.2713,3.2635,3.2063,3.166,3.1346,3.1144,3.1256,3.1227,3.1129,3.1129,3.1129,3.1039,3.05,0.0,0.0,0.0,0.0,0.0,0.0,0.0,0.0,0.0,0.0,0.0,0.0,0.0,0.0,0.0,0.0,0.0,0.0,0.0,0.0,3.0964,3.1267,3.1833,3.2911,3.3668,3.4158,3.4286,3.4308,3.4578,3.5235,3.531,3.5355,3.5481,3.5496,3.5496,3.5496,3.5496,3.5744,3.6291,3.6306,3.6545,3.7037,3.7037,3.7037,3.7037,0.0,0.0,3.7037,3.7037,3.7037,3.7037,3.7037,3.7037,3.7037,3.7037,3.7123,3.7223,3.694,3.6828,3.676,3.6149,3.6212,3.6507,0.0,0.0,0.0,0.0,0.0,0.0,0.0,2.1659,2.1494,2.2158,2.2081,2.2214,2.2872,2.3041,2.31,2.31,2.365,2.4577,0.0,2.577,2.5866,2.6461,2.7273,2.7704,2.7704,2.8778,2.9355,2.9355,2.9654,2.9801,2.9811,3.0279,3.0491,3.052,3.0998,3.1208,3.125,3.2204,3.2683,3.2865,3.353,3.3216,3.2315,3.2087,3.1795,3.1503,3.1503,3.1503,3.1503,3.1503,3.1503,3.1444,3.1114,3.0994,3.0935,0.0,0.0,0.0,0.0,0.0,0.0,0.0,0.0,0.0,0.0,0.0,0.0,0.0,0.0,3.0385,3.0696,0.0,3.0816,3.0964,3.2044,3.2922,3.3118,3.4227,3.5004,3.5004,3.5004,3.513,3.5474,3.5496,3.5496,3.5496,3.5804,3.5998,3.5998,3.6282,3.6603,3.6941,3.6941,3.7105,3.7396,3.7396,3.7396,3.7396,3.7396,3.7396,3.7396,3.7396,3.7396,3.7396,3.7396,3.7396,3.7396,3.7396,3.7396,3.7364,3.7107,3.7005,3.6956,3.6582,3.6682,3.694,0.0,0.0,0.0,0.0,0.0,0.0,0.0,2.1948,2.1997,2.3331,2.2753,2.2735,2.4062,2.3537,2.3145,2.3258,2.3612,0.0,0.0,2.577,2.5757,2.6461,2.7537,2.81,2.81,2.9224,2.9801,2.9801,2.9801,2.9801,2.9801,2.9991,2.9969,2.985,3.0973,3.137,3.1306,3.3013,3.3825,3.4026,3.4291,3.3614,3.2478,3.2636,3.2109,3.1241,3.108,3.1219,3.1474,3.1329,3.1372,3.1503,3.1503,3.1503,3.1503,3.1503,3.1503,0.0,0.0,0.0,0.0,0.0,0.0,0.0,0.0,0.0,3.0874,3.0397,3.0264,3.0378,3.0835,3.1184,3.136,3.1257,3.2923,3.4096,3.3636,3.4684,3.5496,3.5496,3.5496,3.5496,3.5496,3.5624,3.5691,3.5691,3.6306,3.668,3.668,3.715,3.7456,3.7599,3.759,3.765,3.7785,3.7785,3.7785,3.7785,3.7785,3.7785,3.7785,3.7785,3.7785,3.7785,3.7785,3.7785,3.7785,3.7785,3.7785,3.7785,3.7785,3.7785,3.7755,3.7501,3.7396,3.7396,0.0,0.0,0.0,0.0,0.0,0.0,0.0,0.0,2.1365,2.2634,2.2102,2.2089,2.3364,2.3273,2.3316,2.3846,2.3466,0.0,2.5594,2.5189,2.5372,2.6449,2.7537,2.81,2.81,2.9224,2.9801,2.9801,2.9801,2.9801,2.9821,3.0649,3.0592,2.9888,3.1659,3.1979,3.1259,3.2312,3.3241,3.4004,3.4048,3.377,3.3369,3.3379,3.2165,3.0329,2.9558,3.0246,3.1394,3.0673,3.0903,3.1503,3.1503,3.1503,3.1503,3.1503,0.0,3.1503,3.1503,3.0984,3.0231,2.9364,2.9804,3.0185,0.0,0.0,2.9465,3.017,3.016,3.002,2.9968,3.1118,3.2256,3.2755,3.3128,3.3792,3.5045,3.5394,3.5496,3.5496,3.5496,3.5496,3.5496,3.6036,3.638,3.638,3.6956,3.7291,3.7291,3.7366,3.7665,3.8266,3.8296,3.8571,3.9167,3.9182,3.9182,3.9182,3.9182,3.9182,3.9182,3.9182,3.9182,3.9182,3.9182,3.9182,3.9182,3.9182,3.9182,3.9182,3.9182,3.9182,3.9032,3.7845,3.7396,3.7396,0.0,0.0,0.0,0.0,0.0,0.0,0.0,0.0,0.0,2.3116,2.2234,2.213,2.3797,2.3456,2.3333,2.3954,0.0,0.0,2.5485,2.5093,2.531,2.6457,2.7537,2.81,2.81,2.9224,2.9801,2.9801,2.9801,2.9801,2.9811,3.0206,3.0463,3.0649,3.1439,3.187,3.2087,3.3022,3.3645,3.4052,3.4641,3.4027,3.2749,3.2749,3.1735,3.0314,3.0412,3.0903,0.0,0.0,3.1219,3.1503,3.1503,3.1503,3.1503,3.1503,3.1503,0.0,3.1503,3.1248,3.08,0.0,3.0374,3.0644,2.9309,3.0051,3.1,3.0848,3.0628,3.0891,3.229,3.2223,3.2328,0.0,3.4141,3.4555,3.4622,3.5133,3.5646,3.6036,3.6073,3.6073,3.6073,3.6641,3.703,3.703,3.7614,3.7973,3.7973,3.8353,3.8697,3.8966,3.8981,3.9116,3.9406,3.9406,3.9406,3.9406,3.9406,3.9406,3.9406,3.9406,3.9406,3.9406,3.9406,3.9406,3.9406,3.9406,3.9406,3.9406,3.9406,3.9406,3.9331,3.8778,3.8554,3.8554,0.0,0.0,0.0,0.0,0.0,0.0,0.0,0.0,0.0,0.0,2.2482,2.2548,2.4463,2.3923,2.3605,0.0,0.0,0.0,0.0,2.4929,2.5239,2.6214,2.7302,2.7946,2.81,2.9051,2.9628,2.9801,2.9801,2.9801,2.9801,2.9801,3.0308,3.1217,3.1472,3.2114,3.3057,3.4001,3.4309,3.4207,3.4931,3.4034,3.2282,3.2282,3.1598,3.0644,3.0777,3.1102,0.0,0.0,3.1329,3.1503,3.1503,3.1503,3.1503,3.1503,3.1503,3.1503,3.1503,3.1343,0.0,3.0442,3.0748,3.0888,2.9855,3.0913,3.2084,3.188,3.1642,3.2013,3.3788,3.3407,3.3075,3.3864,3.4847,3.5246,3.4518,3.5198,3.5961,3.6449,3.6808,3.7024,3.7024,3.7428,3.7689,3.7689,3.8302,3.8676,3.8676,3.9146,3.9406,3.9406,3.9406,3.9406,3.9406,3.9406,3.9406,3.9406,3.9406,3.9406,3.9406,3.9406,3.9406,3.9406,3.9406,3.9406,3.9406,3.9406,3.9406,3.9406,3.9406,3.9406,3.9406,3.9406,3.9406,3.9406,0.0,0.0,0.0,0.0,0.0,0.0,0.0,0.0,0.0,0.0,0.0,0.0,0.0,2.471,2.4263,0.0,0.0,0.0,0.0,2.4515,2.5042,2.5607,2.6721,2.7566,2.8088,2.8634,2.9208,2.9801,2.9801,2.9801,2.9801,2.9801,3.0308,3.1245,3.215,3.3084,3.4027,3.5027,3.5083,3.4486,3.4518,3.3716,3.2497,3.2497,3.2064,3.1248,2.9644,0.0,0.0,0.0,3.0851,3.1503,3.1503,3.1503,0.0,3.1503,3.1503,3.1503,3.1503,0.0,3.0329,3.0314,3.0322,3.0488,3.1004,3.1194,3.1667,3.3129,3.3272,3.3134,3.3136,3.438,3.5078,3.4146,3.4847,3.5488,3.5464,3.6041,3.6479,3.6508,3.7593,3.8341,0.0,3.8356,3.8371,3.8371,3.8981,3.9376,3.9376,3.9391,3.9406,3.9406,3.9406,3.9406,3.9406,3.9406,3.9406,3.9406,3.9406,3.9406,3.9406,3.9406,3.9406,3.9406,3.9406,3.9406,3.9406,3.9406,3.9406,3.9406,3.9406,3.9406,3.9406,3.9406,3.9406,3.9406,0.0,0.0,0.0,0.0,0.0,0.0,0.0,0.0,0.0,0.0,0.0,0.0,0.0,0.0,0.0,0.0,0.0,0.0,0.0,2.4167,2.4669,2.5557,2.6344,2.7018,2.7553,2.8088,2.8477,2.8674,2.9029,2.9195,2.9208,2.9616,3.0308,3.1245,3.2186,3.2908,3.347,3.4425,3.4458,3.3844,3.3844,3.3305,3.2497,3.2497,3.2086,3.143,0.0,0.0,0.0,0.0,3.1278,3.1503,3.1503,0.0,3.225,3.2699,3.2512,3.2161,3.2161,3.1968,3.1767,3.1767,3.2085,3.2477,3.2684,3.3076,3.3533,3.4067,3.3932,3.3926,3.4563,3.4593,3.4602,3.4945,3.5271,3.5496,3.5496,3.6081,3.665,3.7045,3.7877,0.0,0.0,0.0,0.0,3.9056,3.9272,3.9406,3.9406,3.9406,3.9406,3.9406,3.9825,4.0058,4.0058,4.0502,4.0735,4.0735,4.0735,4.0735,4.0735,4.0735,4.0735,4.0735,4.0735,4.0735,4.0735,4.0735,4.0735,4.0735,4.0735,4.0735,4.0735,4.0735,4.0442,3.9999,0.0,0.0,0.0,0.0,0.0,0.0,0.0,0.0,0.0,0.0,0.0,0.0,0.0,0.0,0.0,0.0,0.0,0.0,0.0,0.0,2.4579,2.5012,2.6028,2.6837,2.7429,2.7689,2.8059,2.8561,2.8596,2.8618,2.8618,2.9013,2.9862,3.1088,3.1687,3.2441,3.3274,3.3885,3.3896,3.3477,3.3245,3.2878,3.2467,3.2235,3.1877,0.0,0.0,0.0,0.0,3.1503,3.1503,3.154,3.178,3.2318,3.2893,3.3095,3.3013,3.2804,3.2579,3.2662,3.2863,3.2863,3.3178,3.3567,3.3791,3.4188,3.457,3.4817,3.4699,3.4725,3.5375,3.4978,3.475,3.5392,3.5496,3.5496,3.5496,3.6267,3.6979,3.7351,3.8197,3.8931,0.0,0.0,0.0,3.9406,3.9406,3.9406,3.9406,3.964,3.9759,3.9759,4.0412,4.0765,4.0765,4.1184,4.1403,4.1403,4.1403,4.1403,4.1403,4.1403,4.1403,4.1403,4.1403,4.1403,4.1403,4.1403,4.1403,4.1403,4.1403,4.1403,4.1403,4.1403,4.1134,4.0651,0.0,0.0,0.0,0.0,0.0,0.0,0.0,0.0,0.0,0.0,0.0,0.0,0.0,0.0,0.0,0.0,0.0,0.0,0.0,0.0,0.0,2.4093,2.5697,2.694,2.7589,2.7391,2.7932,2.9267,2.8539,2.8196,2.8196,2.8221,2.9139,3.0789,3.084,3.1797,3.3378,3.3424,3.3432,3.3335,3.2699,3.2452,3.2377,3.1735,0.0,0.0,0.0,0.0,0.0,0.0,3.1503,3.1615,3.2288,3.2938,3.3335,3.2774,3.3036,3.3372,3.2774,3.3066,3.3552,3.3552,3.3582,3.3776,3.4406,3.4555,3.4727,3.537,3.5496,3.5496,0.0,0.0,3.5496,3.5496,3.5496,3.5511,3.5541,3.6618,3.7411,0.0,0.0,0.0,0.0,0.0,0.0,3.9451,0.0,3.9451,3.9451,4.0088,4.0442,4.0442,4.1094,4.1448,4.1448,4.1478,4.1508,4.1508,4.1508,4.1508,4.1508,4.1508,4.1508,4.1508,4.1508,4.1508,4.1508,4.1508,4.1508,4.1508,4.1508,4.1508,4.1508,4.1508,4.1478,4.1358,0.0,0.0,0.0,0.0,0.0,0.0,0.0,0.0,0.0,0.0,0.0,0.0,0.0,0.0,0.0,0.0,0.0,0.0,0.0,0.0,0.0,0.0,0.0,0.0,0.0,0.0,0.0,0.0,0.0,2.9369,2.9383,2.9784,3.0218,3.068,3.1435,3.1754,3.1761,3.2458,3.2467,3.1996,0.0,3.175,3.1735,0.0,0.0,0.0,0.0,0.0,0.0,0.0,0.0,3.1615,3.2288,3.2624,3.2916,3.3747,3.3761,3.3567,3.3904,3.4113,3.4248,3.4248,3.4614,3.504,3.5205,3.5258,3.5295,3.5466,3.5496,3.5496,0.0,0.0,0.0,3.5496,3.5496,0.0,3.6171,3.6902,0.0,3.8086,0.0,3.9406,3.9406,3.9406,0.0,0.0,4.0148,4.0148,4.0148,4.078,4.1149,4.1149,4.1802,4.2146,4.2146,4.2596,4.2816,4.2816,4.2816,4.2816,4.2816,4.2816,4.2816,4.2816,4.2816,4.2816,4.2816,4.2816,4.2816,4.2816,4.2816,4.2816,4.2816,4.2816,4.2521,4.2116,0.0,0.0,0.0,0.0,0.0,0.0,0.0,0.0,0.0,0.0,0.0,0.0,0.0,0.0,0.0,0.0,0.0,0.0,0.0,0.0,0.0,0.0,0.0,0.0,0.0,0.0,0.0,0.0,0.0,0.0,0.0,2.9176,2.9658,3.0071,3.0932,3.1295,3.1304,0.0,0.0,0.0,0.0,0.0,0.0,0.0,0.0,0.0,0.0,0.0,0.0,0.0,0.0,3.1996,3.237,3.2893,3.3477,3.3934,3.421,3.4405,3.4481,3.4712,3.4937,3.4937,3.522,3.5496,3.5496,3.5496,3.5496,3.5496,3.5496,0.0,3.5496,3.5496,0.0,0.0,0.0,0.0,3.6404,3.7015,3.7659,0.0,3.8981,0.0,3.9406,3.967,3.9999,0.0,4.0397,4.0531,4.0825,4.1463,4.1847,4.1847,4.2456,4.2785,4.2785,4.313,4.33,4.33,4.33,4.33,4.33,4.33,4.33,4.33,0.0,4.33,4.33,4.33,4.33,4.33,4.33,4.33,4.33,4.33,4.3085,4.2785,0.0,0.0,0.0,0.0,0.0,0.0,0.0,0.0,0.0,0.0,0.0,0.0,0.0,0.0,0.0,0.0,0.0,0.0,0.0,0.0,0.0,0.0,0.0,0.0,0.0,0.0,0.0,0.0,0.0,0.0,0.0,0.0,0.0,0.0,0.0,0.0,0.0,0.0,0.0,0.0,0.0,0.0,0.0,0.0,0.0,0.0,0.0,0.0,0.0,0.0,3.1892,3.2362,3.2362,3.323,3.4143,3.3634,3.4382,3.525,3.4772,3.5063,3.5496,3.5496,3.5496,3.5496,3.5496,3.5496,3.5496,3.5496,0.0,3.5496,3.5496,3.5496,3.5496,3.5496,0.0,3.5759,3.6515,3.7075,3.768,3.8437,3.9041,3.9406,3.9406,4.0014,4.0442,4.0531,4.0616,4.0915,4.1493,4.2161,4.2521,4.2521,4.3035,4.33,4.33,4.33,4.33,4.33,4.33,4.33,4.33,4.33,4.33,4.33,4.33,0.0,4.33,4.33,4.33,4.33,4.33,4.33,4.33,4.33,4.33,4.33,0.0,0.0,0.0,0.0,0.0,0.0,0.0,0.0,0.0,0.0,2.4192,2.4474,0.0,0.0,0.0,0.0,0.0,0.0,0.0,0.0,0.0,0.0,0.0,0.0,0.0,0.0,0.0,0.0,0.0,0.0,0.0,0.0,0.0,0.0,0.0,0.0,0.0,0.0,0.0,0.0,0.0,0.0,0.0,0.0,0.0,0.0,0.0,0.0,0.0,0.0,3.1585,3.1675,3.1675,3.2206,3.2938,3.3365,3.4054,3.4772,3.5205,3.5415,3.5496,3.5496,3.5496,3.5496,3.5496,3.5496,0.0,0.0,3.5496,3.5496,3.5496,3.5496,3.5496,3.5496,3.5496,3.5908,3.709,3.7336,3.7845,0.0,0.0,0.0,0.0,0.0,0.0,0.0,0.0,4.2101,4.2221,4.2806,4.3145,4.3145,4.3255,4.33,4.33,4.33,4.33,4.33,4.33,4.33,4.33,4.33,4.33,4.33,4.33,0.0,4.33,4.33,4.33,4.33,4.33,4.33,4.33,4.33,4.33,4.33,0.0,0.0,0.0,0.0,0.0,0.0,0.0,2.2337,2.2167,2.3428,2.4461,2.4919,2.4504,2.5047,2.5133,0.0,0.0,0.0,0.0,0.0,0.0,0.0,0.0,0.0,0.0,0.0,0.0,0.0,0.0,0.0,0.0,0.0,0.0,0.0,0.0,0.0,0.0,0.0,0.0,0.0,0.0,0.0,0.0,0.0,0.0,0.0,0.0,0.0,0.0,0.0,3.1503,3.1503,3.1503,3.2191,3.3073,3.3417,3.4225,3.5093,3.5415,3.5496,3.5496,3.5496,3.5496,3.5496,3.5496,0.0,0.0,0.0,3.5496,3.5496,3.5496,3.5496,0.0,3.5496,3.5496,3.5945,3.7216,3.7396,0.0,3.9242,3.9406,0.0,0.0,0.0,0.0,0.0,0.0,4.2865,4.2865,4.3145,4.33,4.33,4.33,4.33,4.33,4.33,4.33,4.33,4.33,4.33,4.33,4.33,4.33,4.33,4.33,0.0,4.33,4.33,4.33,4.33,4.33,4.33,4.33,4.33,4.33,4.33,0.0,0.0,0.0,0.0,0.0,0.0,0.0,2.2446,2.2167,2.3428,2.4636,2.5224,2.4774,2.579,2.5973,0.0,0.0,0.0,0.0,0.0,0.0,0.0,0.0,0.0,0.0,0.0,0.0,0.0,0.0,0.0,0.0,0.0,0.0,0.0,0.0,0.0,0.0,0.0,0.0,0.0,0.0,0.0,0.0,0.0,0.0,0.0,0.0,0.0,0.0,0.0,3.1503,3.1525,3.1675,3.2542,3.3537,3.3672,3.4562,3.5496,3.5496,3.5496,3.5496,3.5496,3.5496,3.5496,3.5496,3.5496,0.0,3.5496,3.5496,3.5496,3.5496,3.5496,3.5496,0.0,3.5496,3.5945,3.7216,3.7396,3.7904,0.0,3.9406,0.0,0.0,0.0,0.0,0.0,0.0,0.0,4.33,4.33,4.33,4.33,4.33,4.33,4.33,4.33,4.33,4.33,4.33,4.33,4.33,4.33,4.33,4.33,4.33,0.0,0.0,4.33,4.33,4.33,4.33,4.33,4.33,4.33,4.33,4.33,0.0,0.0,0.0,0.0,0.0,0.0,0.0,2.217,2.2167,2.3428,2.4236,2.4901,2.5446,2.6106,2.6182,0.0,0.0,0.0,0.0,0.0,0.0,0.0,0.0,0.0,0.0,0.0,0.0,0.0,0.0,0.0,0.0,0.0,0.0,0.0,0.0,0.0,0.0,0.0,0.0,0.0,0.0,0.0,0.0,0.0,0.0,0.0,0.0,0.0,0.0,0.0,0.0,3.1615,3.2228,3.2908,3.3627,3.4226,0.0,0.0,3.5496,3.5496,3.5496,3.5496,3.5496,3.5496,3.5496,0.0,3.5496,3.5496,3.5496,3.5496,3.5496,3.5496,0.0,0.0,0.0,3.5945,3.7216,3.7396,3.7904,3.9242,0.0,0.0,0.0,0.0,0.0,0.0,0.0,0.0,4.33,4.33,4.33,4.33,4.33,4.33,4.33,4.33,4.33,4.33,4.33,4.33,4.33,4.33,4.33,4.33,4.33,0.0,0.0,4.33,4.33,4.33,4.33,4.33,4.33,4.33,4.33,4.33,0.0,0.0,0.0,0.0,0.0,0.0,2.2928,2.2067,2.1748,2.3384,2.3518,2.3833,2.4827,2.5578,2.6027,2.6067,0.0,0.0,0.0,0.0,0.0,0.0,0.0,0.0,0.0,0.0,0.0,0.0,0.0,0.0,0.0,0.0,0.0,0.0,0.0,0.0,0.0,0.0,0.0,0.0,0.0,0.0,0.0,0.0,0.0,0.0,0.0,0.0,0.0,0.0,0.0,0.0,3.2288,3.2677,0.0,0.0,3.4974,3.5496,3.5496,3.5496,3.5496,3.5496,3.5496,3.5496,3.5496,0.0,3.5496,3.5496,3.5496,3.5496,3.5496,3.5496,0.0,0.0,0.0,0.0,3.7216,3.7396,3.7904,3.9242,3.9406,0.0,0.0,0.0,0.0,0.0,0.0,0.0,4.33,4.33,4.33,4.33,4.33,4.33,4.33,4.33,4.33,4.33,4.33,4.33,4.33,4.33,4.33,4.33,4.33,0.0,0.0,4.33,4.33,4.33,4.33,4.33,4.33,4.33,4.33,4.33,0.0,0.0,0.0,0.0,0.0,2.0756,2.2736,2.1925,2.154,2.2854,2.284,2.309,2.4124,2.4929,2.5701,2.6438,2.6969,0.0,0.0,0.0,0.0,0.0,0.0,0.0,0.0,0.0,0.0,0.0,0.0,0.0,0.0,0.0,0.0,0.0,0.0,0.0,0.0,0.0,0.0,0.0,0.0,0.0,0.0,0.0,0.0,0.0,0.0,0.0,0.0,0.0,0.0,0.0,0.0,0.0,0.0,0.0,3.4832,3.5258,3.5444,3.5496,3.5496,3.5496,3.5496,3.5496,0.0,0.0,3.5496,3.5496,3.5496,3.5496,3.5496,3.5496,3.5496,3.5496,3.5496,3.5945,3.7216,3.7396,3.7904,0.0,0.0,0.0,0.0,0.0,0.0,0.0,0.0,0.0,4.33,4.33,4.33,4.33,4.33,4.33,4.33,4.33,4.33,4.33,4.33,4.33,4.33,4.33,4.33,4.33,4.33,0.0,0.0,4.33,4.33,4.33,4.33,4.33,4.33,4.33,4.33,4.33,0.0,0.0,0.0,0.0,0.0,0.0,2.1627,2.1697,2.1697,2.1714,2.2288,2.2921,2.3541,2.4273,2.5195,2.6395,2.651,0.0,0.0,0.0,0.0,0.0,0.0,0.0,0.0,0.0,0.0,2.7606,2.7606,0.0,0.0,0.0,0.0,0.0,0.0,0.0,0.0,0.0,0.0,0.0,0.0,0.0,0.0,0.0,0.0,0.0,0.0,0.0,0.0,0.0,0.0,0.0,0.0,3.2497,3.2759,0.0,3.4496,3.466,3.5325,3.5496,3.5496,3.5496,3.5496,3.5496,0.0,3.5496,3.5496,3.5496,3.5496,3.5496,3.5496,3.5496,3.5496,3.5496,3.5496,0.0,3.7216,3.7396,3.7904,0.0,0.0,4.066,0.0,0.0,0.0,0.0,0.0,0.0,4.33,4.33,4.33,4.33,4.33,4.33,4.33,4.33,4.33,4.33,4.33,4.33,4.33,4.33,4.33,0.0,0.0,0.0,0.0,4.33,4.33,4.33,4.33,4.33,4.33,4.33,4.33,4.33,0.0,0.0,0.0,0.0,0.0,0.0,0.0,2.1697,2.1864,2.2323,2.1817,2.2124,2.4005,2.4094,2.4692,2.6355,2.6956,0.0,0.0,0.0,0.0,0.0,0.0,0.0,0.0,0.0,0.0,2.7606,2.7606,2.7606,2.7606,0.0,0.0,0.0,0.0,0.0,0.0,0.0,0.0,0.0,0.0,0.0,0.0,0.0,0.0,0.0,0.0,0.0,0.0,0.0,0.0,0.0,0.0,0.0,0.0,3.2878,3.3776,3.4555,3.4757,3.5145,3.5496,3.5496,3.5496,3.5496,3.5496,3.5496,3.5496,3.5496,3.5496,3.5496,3.5496,3.5496,3.5496,3.5496,3.5496,3.5945,0.0,0.0,0.0,3.9242,4.0397,4.1164,0.0,0.0,0.0,0.0,0.0,0.0,4.33,4.33,4.33,4.33,4.33,4.33,4.33,4.33,4.33,4.33,4.33,4.33,4.33,4.33,4.33,0.0,0.0,0.0,0.0,4.33,4.33,4.33,4.33,4.33,4.33,4.33,4.33,4.33,0.0,0.0,0.0,0.0,0.0,0.0,0.0,2.1864,2.1852,2.2271,2.1623,2.1915,2.3936,2.4107,2.4731,2.6355,2.7169,0.0,0.0,0.0,0.0,0.0,0.0,0.0,0.0,0.0,2.7606,2.7606,2.7606,2.7606,2.7606,2.7606,2.7606,0.0,0.0,0.0,0.0,0.0,0.0,0.0,0.0,0.0,3.1503,0.0,0.0,0.0,0.0,0.0,0.0,0.0,0.0,0.0,0.0,0.0,0.0,0.0,3.2893,3.3859,3.4361,3.4802,3.5175,3.5444,3.5496,3.5496,3.5496,0.0,3.5496,3.5496,3.5496,3.5496,3.5496,3.5496,3.5496,3.5496,3.5496,3.5945,0.0,0.0,0.0,3.9948,0.0,0.0,0.0,0.0,0.0,0.0,0.0,0.0,4.33,4.33,4.33,4.33,4.33,4.33,4.33,4.33,4.33,4.33,4.33,4.33,4.33,4.33,4.33,0.0,0.0,0.0,0.0,4.33,4.33,4.33,4.33,4.33,4.33,4.33,4.33,4.33,0.0,0.0,0.0,0.0,0.0,0.0,0.0,2.2181,2.1815,2.1787,2.1775,2.2264,2.3605,2.4329,2.5205,2.6467,0.0,0.0,0.0,0.0,0.0,0.0,0.0,0.0,0.0,2.7606,2.7606,2.7606,2.7606,2.7606,2.7606,2.7606,2.7606,2.7606,0.0,0.0,0.0,0.0,0.0,0.0,2.9585,3.0321,0.0,0.0,0.0,0.0,0.0,0.0,0.0,0.0,0.0,0.0,0.0,0.0,0.0,0.0,0.0,0.0,0.0,3.4436,3.4645,3.5265,3.5466,3.5496,3.5496,0.0,0.0,3.5496,3.5496,3.5496,3.5496,3.5496,3.5496,3.5496,3.5496,3.5945,0.0,3.7486,0.0,0.0,4.1373,0.0,0.0,0.0,0.0,0.0,0.0,0.0,4.33,4.33,4.33,4.33,4.33,4.33,4.33,4.33,4.33,4.33,4.33,4.33,4.33,4.33,4.33,0.0,0.0,0.0,0.0,4.33,4.33,4.33,4.33,4.33,4.33,4.33,4.33,4.33,0.0,0.0,0.0,0.0,0.0,0.0,0.0,0.0,0.0,0.0,2.2463,2.3146,2.4939,2.487,2.5419,0.0,0.0,0.0,0.0,0.0,0.0,0.0,0.0,0.0,0.0,2.7606,2.7606,2.7606,2.7606,2.7606,2.7606,2.7606,2.7606,2.7606,2.7606,0.0,0.0,0.0,0.0,0.0,2.9383,3.0065,0.0,0.0,0.0,0.0,3.1503,3.1503,0.0,0.0,0.0,0.0,0.0,0.0,0.0,0.0,3.1615,3.1921,3.2759,0.0,3.454,3.4697,3.5123,3.5496,0.0,3.5496,0.0,0.0,0.0,3.5496,3.5496,3.5496,3.5496,3.5496,3.5496,3.5945,3.7216,0.0,0.0,4.0502,4.1079,0.0,0.0,0.0,0.0,0.0,0.0,4.33,4.33,4.33,4.33,4.33,4.33,4.33,4.33,4.33,4.33,4.33,4.33,4.33,4.33,4.33,4.33,0.0,0.0,0.0,4.33,4.33,4.33,4.33,4.33,4.33,4.33,4.33,4.33,4.33,0.0,0.0,0.0,0.0,0.0,0.0,0.0,0.0,0.0,0.0,0.0,0.0,0.0,0.0,0.0,0.0,0.0,0.0,0.0,0.0,0.0,0.0,0.0,0.0,0.0,2.7606,2.7606,2.7606,2.7606,2.7606,2.7606,2.7606,2.7606,2.7606,2.7606,0.0,0.0,0.0,0.0,0.0,2.9324,0.0,0.0,0.0,0.0,0.0,3.1503,3.1503,0.0,3.1503,3.1503,3.1503,0.0,0.0,0.0,0.0,3.1503,3.1585,3.1936,3.2804,3.3732,3.4346,3.4772,3.5123,3.5421,0.0,0.0,0.0,0.0,3.5496,3.5496,3.5496,3.5496,3.5496,3.5759,0.0,0.0,0.0,3.9759,4.0735,4.1179,0.0,0.0,0.0,0.0,0.0,0.0,4.33,4.33,4.33,4.33,4.33,4.33,4.33,4.33,4.33,4.33,4.33,4.33,4.33,4.33,4.33,4.33,0.0,0.0,0.0,4.33,4.33,4.33,4.33,4.33,4.33,4.33,4.33,4.33,4.33,0.0,0.0,0.0,0.0,0.0,0.0,0.0,0.0,0.0,0.0,0.0,0.0,0.0,0.0,0.0,0.0,0.0,0.0,0.0,0.0,0.0,0.0,0.0,2.7606,2.7606,2.7606,2.7606,2.7606,2.7606,2.7606,2.7606,2.7606,2.7606,2.7606,2.7606,0.0,0.0,0.0,0.0,0.0,2.9294,0.0,0.0,0.0,0.0,0.0,0.0,0.0,0.0,3.1503,3.1503,3.1503,3.1503,0.0,0.0,0.0,0.0,0.0,3.1503,3.1996,3.2774,3.3919,3.4346,3.4645,3.522,0.0,0.0,0.0,0.0,0.0,0.0,3.5496,0.0,0.0,0.0,0.0,3.8236,3.8981,3.9894,4.1239,4.1403,0.0,0.0,0.0,0.0,0.0,0.0,4.33,4.33,4.33,4.33,4.33,4.33,4.33,4.33,4.33,4.33,4.33,4.33,4.33,4.33,4.33,4.33,4.33,0.0,0.0,4.33,4.33,4.33,4.33,4.33,4.33,4.33,4.33,4.33,4.33,0.0,0.0,0.0,0.0,0.0,0.0,0.0,0.0,0.0,0.0,0.0,0.0,0.0,0.0,0.0,0.0,0.0,0.0,0.0,0.0,0.0,0.0,2.7606,2.7606,2.7606,2.7606,2.7606,2.7606,2.7606,2.7606,2.7606,2.7606,2.7606,2.7606,2.7606,2.7606,0.0,0.0,0.0,2.7869,2.9106,0.0,0.0,0.0,0.0,0.0,0.0,0.0,0.0,3.1503,3.1503,3.1503,3.1503,0.0,0.0,0.0,0.0,0.0,3.1503,3.1996,3.2542,3.2759,3.3657,3.4526,0.0,0.0,0.0,0.0,0.0,0.0,0.0,3.5496,3.5496,0.0,0.0,3.7524,0.0,0.0,3.9894,4.1239,0.0,0.0,0.0,0.0,0.0,0.0,0.0,4.33,4.33,4.33,4.33,4.33,4.33,4.33,4.33,4.33,4.33,4.33,4.33,4.33,4.33,4.33,4.33,4.33,0.0,4.33,4.33,4.33,4.33,4.33,4.33,4.33,4.33,4.33,4.33,4.33,0.0,0.0,0.0,0.0,0.0,0.0,0.0,0.0,0.0,0.0,0.0,0.0,0.0,0.0,0.0,0.0,0.0,0.0,0.0,0.0,0.0,2.7587,2.7606,2.7606,2.7606,2.7606,2.7779,2.8141,2.8141,2.8327,2.8678,2.8312,2.7953,2.7606,2.7606,2.7606,2.7606,0.0,2.7606,2.7726,0.0,0.0,0.0,0.0,0.0,0.0,0.0,0.0,0.0,0.0,3.1503,3.1503,3.1503,0.0,0.0,0.0,0.0,0.0,3.1503,3.172,3.2056,3.2407,3.3507,3.4592,0.0,0.0,0.0,0.0,0.0,0.0,0.0,0.0,3.5721,3.6409,0.0,3.8167,3.8847,3.9212,0.0,0.0,0.0,0.0,0.0,0.0,0.0,0.0,0.0,0.0,4.33,4.33,4.33,4.33,4.33,4.33,4.33,4.33,4.33,4.33,4.33,4.33,4.33,4.33,4.33,4.33,0.0,4.33,4.33,4.33,4.33,4.33,4.33,4.33,4.33,4.33,4.33,4.33,0.0,0.0,0.0,0.0,0.0,0.0,0.0,0.0,0.0,0.0,0.0,0.0,0.0,0.0,0.0,0.0,0.0,0.0,0.0,0.0,2.7414,2.7593,2.7606,2.7606,2.7606,2.7606,2.7848,2.8374,2.8517,2.8861,2.9353,2.8838,2.8239,2.7606,2.7606,2.7606,2.7606,2.7606,2.7606,2.7726,0.0,0.0,0.0,0.0,0.0,0.0,0.0,0.0,0.0,0.0,0.0,0.0,0.0,0.0,0.0,3.1503,3.1503,3.1503,3.1503,3.1615,3.1899,3.2579,0.0,0.0,0.0,0.0,0.0,0.0,0.0,0.0,0.0,3.5624,0.0,3.7434,3.8071,3.8631,0.0,0.0,0.0,0.0,0.0,0.0,0.0,0.0,0.0,0.0,0.0,0.0,4.33,4.33,4.33,4.33,4.33,4.33,4.33,4.33,4.33,4.33,4.33,4.33,4.33,4.33,4.33,4.33,4.33,4.33,4.33,4.33,4.33,4.33,4.33,4.33,4.33,4.33,4.33,4.33,0.0,0.0,0.0,0.0,0.0,0.0,0.0,0.0,0.0,0.0,0.0,0.0,0.0,0.0,0.0,0.0,0.0,0.0,0.0,0.0,2.6878,2.7575,2.7606,2.7606,2.7606,2.7606,2.7615,2.7666,2.8299,2.8622,2.8667,2.8622,2.8239,2.7606,2.7606,2.7606,2.7606,2.7606,2.7606,2.7726,2.9061,0.0,0.0,0.0,0.0,0.0,0.0,0.0,0.0,0.0,0.0,0.0,0.0,0.0,3.1503,3.1503,3.1503,3.1503,3.1503,3.1951,3.2587,3.326,0.0,0.0,0.0,0.0,0.0,0.0,0.0,0.0,0.0,3.6013,3.6853,3.8116,3.8371,3.8631,3.9316,0.0,0.0,0.0,0.0,0.0,0.0,0.0,0.0,0.0,0.0,0.0,4.33,4.33,4.33,4.33,4.33,4.33,4.33,4.33,4.33,4.33,4.33,4.33,4.33,4.33,4.33,4.33,4.33,4.33,4.33,4.33,4.33,4.33,4.33,4.33,4.33,4.33,4.33,4.33,0.0,0.0,0.0,0.0,0.0,0.0,0.0,0.0,0.0,0.0,0.0,0.0,0.0,0.0,0.0,0.0,0.0,0.0,0.0,0.0,2.7312,2.7593,2.7606,2.7606,2.7606,2.7606,2.7809,2.8209,2.9265,2.9586,2.9212,2.9212,2.8635,2.7606,2.7606,2.7606,2.7606,2.7606,2.7833,2.8299,2.9225,2.9817,0.0,0.0,0.0,0.0,0.0,0.0,0.0,0.0,3.1503,3.1503,3.1503,3.1503,3.1503,3.1503,3.1503,3.1503,3.1503,3.1996,3.2662,3.3335,0.0,0.0,0.0,0.0,0.0,0.0,0.0,0.0,0.0,0.0,3.7345,3.8251,3.8751,3.9116,3.9361,3.9406,0.0,0.0,0.0,0.0,0.0,0.0,0.0,0.0,0.0,0.0,4.33,4.33,4.33,4.33,4.33,4.33,4.33,4.33,4.33,4.33,4.33,4.33,4.33,4.33,4.33,4.33,4.33,4.33,4.33,4.33,4.33,4.33,4.33,4.33,4.33,4.33,4.33,4.33,0.0,0.0,0.0,0.0,0.0,0.0,0.0,0.0,0.0,0.0,0.0,0.0,0.0,0.0,0.0,0.0,0.0,0.0,0.0,2.7606,2.7606,2.7606,2.7606,2.7606,2.7606,2.7606,2.7818,2.8284,2.9586,3.0005,2.96,2.96,2.8881,0.0,2.7606,2.7606,2.7606,2.7606,2.7998,2.8667,2.9324,2.996,0.0,0.0,0.0,0.0,0.0,0.0,0.0,0.0,3.1503,3.1503,3.1503,3.1503,3.1503,3.1503,3.1503,3.1548,3.1765,3.2146,3.2706,0.0,0.0,0.0,0.0,0.0,0.0,0.0,0.0,0.0,0.0,0.0,0.0,0.0,3.9101,3.9406,3.9406,3.9586,4.0133,0.0,0.0,0.0,0.0,0.0,0.0,0.0,0.0,0.0,0.0,4.33,4.33,4.33,4.33,4.33,4.33,4.33,4.33,4.33,4.33,4.33,4.33,4.33,4.33,4.33,4.33,4.33,4.33,4.33,4.33,4.33,4.33,4.33,4.33,4.33,4.33,4.33,0.0,0.0,0.0,0.0,0.0,0.0,0.0,0.0,0.0,0.0,0.0,0.0,0.0,0.0,0.0,0.0,0.0,0.0,0.0,2.7606,2.7606,2.7606,2.7606,2.7606,2.7606,2.7606,2.7606,2.76,2.8941,2.9585,2.9585,2.9585,0.0,0.0,0.0,2.7606,2.7606,2.76,2.7998,2.8673,2.9338,2.9975,3.0575,0.0,0.0,0.0,0.0,0.0,0.0,0.0,3.1503,3.1503,3.1503,3.1503,3.1503,3.1503,3.1503,3.1638,3.231,3.2497,3.2834,0.0,0.0,0.0,0.0,0.0,0.0,0.0,0.0,0.0,0.0,0.0,0.0,3.9287,3.9406,3.9406,3.9406,3.9984,4.0651,4.1328,4.1982,0.0,0.0,0.0,0.0,0.0,0.0,0.0,0.0,4.33,4.33,4.33,4.33,4.33,4.33,4.33,4.33,4.33,4.33,4.33,4.33,4.33,4.33,4.33,4.33,4.33,4.33,4.33,4.33,4.33,4.33,4.33,4.33,4.33,4.33,4.33,0.0,0.0,0.0,0.0,0.0,0.0,0.0,0.0,0.0,0.0,0.0,0.0,0.0,0.0,0.0,0.0,0.0,0.0,0.0,2.7606,2.7606,2.7606,2.7606,2.7606,2.7606,2.7606,2.7833,2.8299,2.8703,2.8898,2.8898,0.0,0.0,2.7606,0.0,0.0,2.763,2.8096,2.8695,2.9353,2.9983,3.062,3.1234,0.0,0.0,0.0,0.0,0.0,0.0,0.0,0.0,0.0,3.1503,3.1503,3.1503,3.1503,3.1503,3.154,3.1735,3.2482,0.0,3.3702,0.0,0.0,0.0,0.0,0.0,0.0,0.0,0.0,0.0,0.0,0.0,0.0,0.0,0.0,3.9406,3.9984,4.0651,4.1328,4.1982,4.2646,4.324,0.0,0.0,0.0,0.0,0.0,0.0,4.33,4.33,4.33,4.33,4.33,4.33,4.33,4.33,4.33,4.33,4.33,4.33,4.33,4.33,4.33,4.33,4.33,4.33,4.33,4.33,4.33,4.33,4.33,4.33,4.33,4.33,4.33,0.0,0.0,0.0,0.0,0.0,0.0,0.0,0.0,0.0,0.0,2.5045,0.0,0.0,0.0,0.0,0.0,0.0,0.0,0.0,0.0,2.7606,2.7606,2.7606,2.7606,2.7606,2.7606,2.7809,2.8201,2.8479,2.8607,2.8607,0.0,2.8239,2.7606,0.0,2.775,2.8021,2.8427,2.9137,2.999,3.0357,3.0897,3.1503,0.0,0.0,0.0,0.0,0.0,0.0,0.0,0.0,0.0,3.1503,3.1503,3.1503,3.1503,3.169,3.1966,3.222,3.308,0.0,3.4233,3.4906,3.5496,3.5496,0.0,0.0,0.0,0.0,0.0,0.0,0.0,0.0,3.9331,3.9406,3.9406,3.9406,4.0208,4.0945,4.1343,4.2202,4.2895,4.3255,4.33,0.0,0.0,0.0,0.0,0.0,4.33,4.33,4.33,4.33,4.33,4.33,4.33,4.33,4.33,4.33,4.33,4.33,4.33,4.33,4.33,4.33,4.33,4.33,4.33,4.33,4.33,4.33,4.33,4.33,4.33,4.33,4.33,0.0,0.0,2.0956,2.0894,0.0,0.0,0.0,0.0,0.0,0.0,2.6135,2.6536,0.0,0.0,0.0,0.0,0.0,0.0,2.7562,2.7606,2.7606,2.7606,2.7606,2.7606,2.7606,2.7606,2.7606,2.7606,2.8216,2.8502,0.0,0.0,2.8179,2.7606,0.0,2.7961,2.8607,2.8673,2.9385,3.0507,3.056,3.0957,3.1503,3.1503,0.0,0.0,0.0,0.0,0.0,0.0,0.0,0.0,3.1503,3.1503,3.1503,3.1503,3.1974,3.2632,3.3245,3.3934,3.4645,3.525,3.5451,0.0,3.5496,3.5496,3.5684,3.6365,0.0,3.759,3.8281,3.896,3.9406,3.9406,3.9406,3.9406,3.9406,4.0502,4.1328,4.1388,4.2482,4.324,4.33,4.33,4.33,4.33,4.33,0.0,4.33,4.33,4.33,4.33,4.33,4.33,4.33,4.33,4.33,4.33,4.33,4.33,4.33,4.33,4.33,4.33,4.33,4.33,4.33,4.33,4.33,4.33,4.33,4.33,4.33,4.33,4.33,4.33,0.0,0.0,2.2134,2.1598,0.0,0.0,0.0,0.0,0.0,0.0,0.0,0.0,0.0,0.0,0.0,0.0,0.0,0.0,2.7593,2.7606,2.7606,2.7606,2.7606,2.7606,2.7606,2.7606,2.7606,2.7606,2.775,0.0,0.0,0.0,0.0,2.7606,0.0,2.7961,2.8637,2.9152,2.9817,3.0552,3.1069,3.1376,3.1503,3.1503,3.1503,0.0,0.0,0.0,0.0,0.0,0.0,0.0,3.1503,3.1503,3.1503,3.1503,3.1974,3.2527,3.2684,3.3597,0.0,0.0,3.5108,3.5496,3.5496,3.5496,3.5684,3.6365,3.6985,3.759,3.8281,3.896,3.9406,3.9406,3.9406,3.9406,3.9406,4.0103,4.081,4.1343,4.2107,4.2785,4.3255,4.33,4.33,4.33,4.33,4.33,4.33,4.33,4.33,4.33,4.33,4.33,4.33,4.33,4.33,4.33,4.33,4.33,4.33,4.33,4.33,4.33,4.33,4.33,4.33,4.33,4.33,4.33,4.33,4.33,4.33,4.33,4.33,4.33,0.0,0.0,0.0,0.0,0.0,0.0,0.0,0.0,0.0,0.0,0.0,0.0,0.0,0.0,0.0,0.0,2.7606,2.7606,2.7606,2.7606,2.7606,2.7606,2.7606,2.7606,2.7606,2.7606,2.7606,2.7606,0.0,0.0,0.0,0.0,0.0,2.76,0.0,2.8455,2.9122,2.9766,3.0402,3.1009,3.1361,3.1503,3.1503,3.1503,3.1503,0.0,0.0,0.0,0.0,0.0,0.0,0.0,0.0,0.0,3.1503,3.1503,3.2191,3.2976,3.2976,0.0,0.0,3.4974,0.0,3.5496,3.5496,3.5496,3.5765,3.6731,3.7171,3.7695,3.8706,3.9152,3.9406,3.9406,3.9406,3.9406,3.9406,3.9984,4.0651,4.1328,4.1982,4.2646,4.324,4.33,4.33,4.33,4.33,4.33,4.33,4.33,4.33,4.33,4.33,4.33,4.33,4.33,4.33,4.33,4.33,4.33,4.33,4.33,4.33,4.33,4.33,4.33,4.33,4.33,4.33,4.33,4.33,4.33,4.33,4.33,4.33,4.33,0.0,0.0,0.0,0.0,0.0,0.0,0.0,0.0,0.0,0.0,0.0,0.0,0.0,0.0,2.7606,0.0,0.0,0.0,2.7606,2.7606,2.7606,2.7606,2.7606,2.7606,2.7606,2.7486,2.7465,0.0,0.0,0.0,0.0,0.0,0.0,2.7809,0.0,2.9032,2.9788,3.0283,3.0897,3.1503,3.1503,3.1503,3.1503,3.1503,0.0,0.0,0.0,3.1503,3.1503,3.1503,0.0,0.0,0.0,0.0,3.1518,3.1645,3.2542,3.3537,3.3642,0.0,3.5496,3.5496,3.5496,0.0,3.5496,3.5496,3.5855,3.7142,3.7396,3.7815,3.9152,3.9406,3.9406,3.9406,3.9406,3.9406,3.9406,3.9879,4.0472,4.1149,4.1727,4.2346,4.307,4.3145,4.319,4.33,4.33,4.33,4.33,4.33,4.33,4.33,4.33,4.33,4.33,4.33,4.33,4.33,4.33,4.33,4.33,4.33,4.33,4.33,4.33,4.33,4.33,4.33,4.33,4.33,4.33,4.33,4.33,4.33,4.33,4.33,0.0,0.0,0.0,0.0,0.0,0.0,0.0,0.0,0.0,0.0,2.754,2.7606,0.0,2.7606,2.7606,2.7606,2.7606,2.7606,2.7606,0.0,0.0,2.7606,2.7606,2.7606,2.7606,2.6969,2.6956,0.0,0.0,0.0,0.0,0.0,0.0,2.8479,0.0,0.0,3.0387,3.0477,3.0897,3.1503,3.1503,3.1503,3.1503,0.0,0.0,0.0,0.0,0.0,3.1503,3.1503,3.1503,0.0,0.0,0.0,3.1615,3.2191,3.2893,3.3627,3.4203,0.0,3.5496,0.0,3.5496,3.5496,0.0,0.0,3.5855,0.0,3.7396,3.7815,3.9152,3.9406,3.9406,3.9406,3.9406,3.9406,3.9406,3.9481,3.978,4.0442,4.0606,4.1154,4.2401,4.2521,4.2741,4.3255,4.33,4.33,4.33,4.33,4.33,4.33,4.33,4.33,4.33,4.33,4.33,4.33,4.33,4.33,4.33,4.33,4.33,4.33,4.33,4.33,4.33,4.33,4.33,4.33,4.33,4.33,4.33,4.33,4.33,4.33,0.0,0.0,0.0,0.0,0.0,0.0,0.0,0.0,0.0,0.0,0.0,2.7606,2.7606,2.7606,2.7606,2.7606,2.7606,2.7606,2.7606,2.7606,2.7606,2.7606,2.7606,2.7606,2.7606,2.728,0.0,0.0,0.0,0.0,0.0,2.7926,2.8314,0.0,0.0,0.0,0.0,0.0,0.0,3.1503,3.1503,3.1503,0.0,0.0,0.0,0.0,0.0,0.0,0.0,0.0,3.1205,3.0977,3.1804,0.0,0.0,0.0,3.3537,3.4203,3.4884,3.528,3.5496,0.0,3.5496,3.5496,3.5496,0.0,3.5855,3.7142,3.7396,3.7815,3.9152,3.9406,3.9406,3.9406,3.9406,3.9406,3.9406,3.9406,3.9645,4.0322,4.0397,4.078,4.1757,4.1847,4.2107,4.2756,4.28,4.294,4.3285,4.33,4.33,4.33,4.33,4.33,4.33,4.33,4.33,4.33,4.33,4.33,4.33,4.33,4.33,4.33,4.33,4.33,4.33,4.33,4.33,4.33,4.33,4.33,4.33,4.33,4.33,4.33,0.0,0.0,0.0,0.0,0.0,0.0,0.0,0.0,0.0,0.0,0.0,2.7389,2.7587,0.0,0.0,0.0,2.7606,2.7606,2.7606,2.7606,2.7606,2.7606,2.7606,2.7606,2.7606,2.7233,0.0,0.0,0.0,0.0,2.7383,2.8545,2.9079,0.0,3.0073,0.0,0.0,0.0,0.0,0.0,0.0,0.0,0.0,0.0,0.0,0.0,0.0,0.0,0.0,0.0,0.0,0.0,0.0,0.0,0.0,0.0,0.0,3.4854,0.0,0.0,3.5496,3.5496,3.5496,3.5496,0.0,0.0,3.5825,0.0,3.7291,3.7755,3.8937,3.9287,3.9406,3.9406,3.9406,3.9406,3.9406,3.9406,3.9586,4.0088,4.0148,4.0412,4.1089,4.1149,4.1418,4.2101,4.2146,4.2421,4.3035,4.308,4.3145,4.33,4.33,4.33,4.33,4.33,4.33,4.33,4.33,4.33,4.33,4.33,4.33,4.33,4.33,4.33,4.33,4.33,4.33,4.33,4.33,4.33,4.33,4.33,4.33,4.33,0.0,0.0,0.0,0.0,0.0,0.0,0.0,0.0,0.0,0.0,0.0,2.6819,2.7515,2.7606,2.7606,2.7606,2.7606,2.7606,2.7606,2.7606,2.7606,2.7606,2.7606,0.0,2.7606,0.0,0.0,0.0,0.0,0.0,2.753,2.9481,3.0395,3.0395,3.047,3.0852,3.1444,0.0,0.0,0.0,0.0,3.1503,0.0,0.0,0.0,0.0,0.0,0.0,0.0,0.0,0.0,0.0,0.0,0.0,0.0,0.0,0.0,0.0,0.0,3.5496,0.0,3.5496,3.5496,3.5496,0.0,0.0,3.5699,3.6395,3.7,3.7629,3.8326,3.8966,3.9406,3.9406,3.9406,3.9406,3.9406,3.9406,3.9406,3.9451,3.9451,3.9714,4.0382,4.0442,4.0735,4.1403,4.1448,4.1733,4.2401,4.2455,4.2711,4.3285,4.33,4.33,4.33,4.33,4.33,4.33,4.33,4.33,4.33,4.33,4.33,4.33,4.33,4.33,4.33,4.33,4.33,4.33,4.33,4.33,4.33,4.33,4.33,4.33,0.0,0.0,0.0,0.0,0.0,0.0,0.0,0.0,0.0,0.0,0.0,0.0,0.0,2.7606,2.7606,2.7606,2.7606,2.7606,2.7606,2.7606,2.7606,2.7606,2.7606,2.7376,2.6898,0.0,0.0,0.0,0.0,2.6883,2.6515,2.8712,2.9659,2.9579,3.0653,3.1271,3.1503,3.1503,0.0,0.0,3.1503,3.1503,0.0,0.0,0.0,0.0,0.0,0.0,0.0,0.0,0.0,0.0,0.0,0.0,0.0,0.0,0.0,0.0,0.0,0.0,0.0,3.5496,3.5496,3.5496,3.5496,3.5496,3.5684,3.6365,3.6985,3.759,3.8281,3.896,3.9406,3.9406,3.9406,3.9406,3.9406,3.9406,3.9406,3.9406,3.9406,3.9496,3.9735,3.9759,4.0043,4.072,4.0765,4.105,4.1718,4.2171,4.2506,4.2711,4.31,4.33,4.33,4.33,4.33,4.33,4.33,4.33,4.33,4.33,4.33,4.33,4.33,4.33,4.33,4.33,4.33,4.33,4.33,4.33,4.33,4.33,4.33,4.33,0.0,0.0,0.0,0.0,0.0,0.0,0.0,0.0,0.0,0.0,0.0,0.0,0.0,0.0,2.7606,2.7606,2.7606,2.7606,2.7606,2.7606,2.7606,2.7606,2.7606,2.7255,2.6523,0.0,0.0,0.0,0.0,0.0,0.0,2.871,2.9558,2.9496,3.0874,3.1503,0.0,0.0,0.0,3.1503,0.0,3.1623,3.1839,0.0,0.0,0.0,0.0,0.0,0.0,0.0,0.0,0.0,0.0,0.0,0.0,0.0,0.0,0.0,3.5496,0.0,0.0,0.0,3.5496,3.5496,3.5496,0.0,3.5624,3.6073,3.6656,3.73,3.7943,3.8607,3.9146,3.9361,3.9406,3.9406,3.9406,3.9406,3.9406,3.9406,3.9406,3.9406,3.9406,3.9406,3.9586,4.0029,4.0058,0.0,4.102,4.1493,4.1937,4.2396,4.2785,4.31,4.33,4.33,4.33,4.33,4.33,4.33,4.33,4.33,4.33,4.33,4.33,4.33,4.33,4.33,4.33,4.33,4.33,4.33,4.33,4.33,4.33,4.33,0.0,0.0,0.0,0.0,0.0,0.0,0.0,0.0,0.0,0.0,0.0,0.0,0.0,0.0,0.0,2.7606,2.7606,2.7606,2.7606,2.7606,2.7593,2.7575,2.7575,2.7201,2.6451,0.0,0.0,0.0,0.0,0.0,0.0,0.0,3.0246,0.0,3.108,3.1445,3.1503,0.0,3.1503,3.1503,0.0,3.1914,3.2497,0.0,0.0,0.0,3.3514,3.2934,0.0,0.0,0.0,0.0,0.0,0.0,0.0,0.0,0.0,0.0,0.0,0.0,0.0,0.0,0.0,0.0,3.5496,3.5496,3.5496,3.5496,3.6028,3.668,3.727,3.7943,3.8601,3.9257,3.9391,3.9406,3.9406,3.9406,3.9406,3.9406,3.9406,3.9406,3.9406,3.9406,3.9406,3.9406,3.9406,3.9675,4.0337,4.0382,4.1014,4.2336,4.2396,4.269,4.327,4.33,4.33,4.33,4.33,4.33,4.33,4.33,4.33,4.33,4.33,4.33,4.33,4.33,4.33,4.33,4.33,4.33,4.33,4.33,4.33,4.33,0.0,0.0,0.0,0.0,0.0,0.0,0.0,0.0,0.0,0.0,0.0,0.0,0.0,0.0,2.7606,2.7606,2.7606,2.7606,2.7606,2.7606,2.7363,2.6832,2.68,2.6202,2.4937,0.0,0.0,0.0,0.0,0.0,0.0,0.0,0.0,0.0,2.9589,3.0367,3.1503,3.1503,0.0,0.0,3.2026,3.2325,0.0,0.0,0.0,0.0,0.0,3.3899,3.3613,0.0,3.484,3.487,0.0,0.0,0.0,0.0,0.0,0.0,3.5496,0.0,0.0,0.0,0.0,0.0,3.5496,3.5496,3.5496,3.5496,3.6028,3.6545,3.6725,3.7652,3.8461,3.8655,3.9077,3.9406,3.9406,3.9406,3.9406,3.9406,3.9406,3.9406,3.9406,3.9406,3.9406,0.0,3.9406,3.9481,3.967,4.0142,4.0795,4.1652,4.2146,4.2476,4.2646,4.307,4.33,4.33,4.33,4.33,4.33,4.33,4.33,4.33,4.33,4.33,4.33,4.33,4.33,4.33,4.33,4.33,4.33,4.33,4.33,4.33,0.0,0.0,2.31,2.31,0.0,0.0,0.0,0.0,0.0,0.0,0.0,0.0,0.0,0.0,0.0,2.7606,2.7606,2.7465,2.7165,2.7427,2.7274,2.6537,2.6707,2.6292,2.5122,0.0,0.0,0.0,0.0,0.0,0.0,0.0,0.0,0.0,0.0,0.0,0.0,0.0,0.0,0.0,3.2347,0.0,0.0,3.3769,3.3999,0.0,0.0,0.0,3.4027,3.4225,3.4291,0.0,0.0,0.0,0.0,0.0,0.0,0.0,0.0,0.0,0.0,0.0,0.0,0.0,3.5496,3.5496,3.5496,0.0,3.5804,3.6171,3.644,3.7107,3.7697,3.7943,3.8556,3.9086,3.9361,3.9406,3.9406,3.9406,3.9406,3.9406,3.9406,3.9406,3.9406,3.9406,3.9406,3.9406,3.9406,3.9765,4.0292,4.096,4.1628,4.2126,4.2396,4.3005,4.33,4.33,4.33,4.33,4.33,4.33,4.33,4.33,4.33,4.33,4.33,4.33,4.33,4.33,4.33,4.33,4.33,4.33,4.33,4.33,0.0,0.0,2.31,2.31,2.31,2.31,0.0,0.0,0.0,0.0,0.0,0.0,0.0,0.0,0.0,0.0,2.7541,2.7355,2.6763,2.7261,2.7278,2.6611,2.6935,2.6792,2.6065,2.5936,0.0,0.0,0.0,0.0,0.0,0.0,0.0,0.0,2.9457,2.9863,0.0,0.0,0.0,3.2721,3.2721,3.3447,0.0,0.0,3.491,0.0,3.5464,3.4856,3.3885,3.3171,3.2917,0.0,0.0,0.0,0.0,0.0,3.5496,0.0,0.0,0.0,0.0,0.0,0.0,0.0,3.5496,3.5496,3.5496,3.5496,3.5496,3.5676,3.6276,3.644,3.668,3.721,3.7853,3.8512,3.9197,3.9346,3.9406,3.9406,3.9406,3.9406,3.9406,3.9406,3.9406,3.9406,3.9406,3.9406,3.9406,3.9406,3.9675,4.0268,4.0945,4.1613,4.2281,4.2886,4.3225,4.33,4.33,4.33,4.33,4.33,4.33,4.33,4.33,4.33,4.33,4.33,4.33,4.33,4.33,4.33,4.33,4.33,4.33,4.33,2.31,2.31,2.31,2.31,2.31,2.31,0.0,0.0,0.0,0.0,0.0,0.0,0.0,0.0,0.0,0.0,2.7261,2.7767,2.8157,2.7671,2.7267,2.7061,2.6487,2.5825,2.5093,2.5456,0.0,0.0,0.0,0.0,0.0,0.0,0.0,0.0,2.9105,3.0205,0.0,0.0,0.0,3.4113,3.4113,0.0,3.4555,3.5108,3.4876,3.4394,3.5213,3.4856,3.4095,0.0,3.4928,3.5009,0.0,0.0,0.0,0.0,0.0,0.0,0.0,0.0,0.0,0.0,0.0,0.0,3.5496,3.5496,3.5496,3.5496,3.5496,3.5541,3.5661,3.6141,3.6538,3.6665,3.7195,3.7838,3.8497,3.9056,3.9406,3.9406,3.9406,3.9406,3.9406,3.9406,3.9406,3.9406,3.9406,3.9406,3.9406,3.9406,3.9466,3.9586,4.0247,4.0915,4.1583,4.2251,4.283,4.33,4.33,4.33,4.33,4.33,4.33,4.33,4.33,4.33,4.33,4.33,4.33,4.33,4.33,4.33,4.33,4.33,4.33,4.33,2.31,2.31,2.31,2.31,2.31,2.31,2.31,0.0,0.0,0.0,0.0,0.0,0.0,0.0,0.0,0.0,0.0,0.0,0.0,2.7186,2.6965,2.6566,2.6385,2.6132,2.5764,2.5953,2.6051,0.0,0.0,0.0,0.0,0.0,0.0,0.0,0.0,0.0,0.0,0.0,3.3889,3.4496,3.4496,0.0,3.5034,3.537,3.5197,3.4814,3.5326,3.4856,3.416,3.5157,3.5166,0.0,0.0,3.5496,3.5496,0.0,3.5496,3.5496,0.0,0.0,0.0,3.5496,0.0,0.0,0.0,3.5496,3.5496,3.5496,3.5496,3.5496,3.5496,3.5774,3.5998,3.5998,3.6545,3.7069,3.7407,3.8296,3.8901,3.8901,3.9206,3.9406,3.9406,3.9406,3.9406,3.9406,3.9406,3.9406,3.9406,3.9406,3.9406,3.9406,4.0043,4.0711,4.1388,4.2056,4.2696,4.33,4.33,4.33,4.33,4.33,4.33,4.33,4.33,4.33,4.33,4.33,4.33,4.33,4.33,4.33,4.33,4.33,4.33,4.3359,2.31,2.31,2.31,2.31,2.31,2.31,2.31,0.0,0.0,0.0,0.0,0.0,0.0,0.0,0.0,0.0,0.0,0.0,0.0,0.0,2.6737,2.6266,2.6512,2.6655,2.6655,2.6557,2.6508,2.6508,0.0,0.0,0.0,0.0,0.0,0.0,0.0,0.0,0.0,0.0,0.0,3.415,0.0,3.4836,3.5496,3.5496,3.5496,3.5496,3.5496,3.4978,3.4411,3.523,0.0,3.4428,3.5238,3.5496,0.0,0.0,0.0,0.0,0.0,0.0,0.0,0.0,0.0,3.5496,0.0,0.0,0.0,0.0,0.0,0.0,0.0,0.0,0.0,0.0,0.0,0.0,0.0,3.7293,0.0,3.8191,3.8802,3.9212,3.9212,3.9316,3.9406,3.9406,3.9406,3.9406,3.9406,3.9406,3.9406,3.9406,3.9924,4.0591,4.1388,4.1937,4.2576,4.33,4.33,4.33,4.33,4.33,4.33,4.33,4.33,4.33,4.33,4.33,4.33,4.33,4.33,4.33,4.33,4.33,4.33,4.3404,2.31,2.31,2.31,2.31,2.31,2.31,2.31,0.0,0.0,0.0,0.0,0.0,0.0,0.0,0.0,0.0,0.0,0.0,2.7723,0.0,0.0,2.7471,2.6865,2.6523,2.6523,2.6513,2.6508,2.6508,0.0,0.0,0.0,0.0,0.0,0.0,2.8553,0.0,0.0,0.0,3.2274,0.0,3.3725,3.4635,0.0,3.5496,3.5496,3.5496,3.5496,3.5431,3.5351,0.0,3.5416,3.5351,0.0,3.5496,3.5496,0.0,0.0,0.0,0.0,0.0,0.0,0.0,3.5496,0.0,0.0,0.0,3.5496,3.5496,0.0,0.0,0.0,0.0,0.0,0.0,0.0,0.0,3.5601,3.6252,3.6919,3.7449,3.8108,3.8505,3.8505,3.9056,3.9406,3.9406,3.9406,3.9406,3.9406,3.9406,3.9406,3.9406,3.9466,4.0118,4.1388,4.1478,4.2102,4.33,4.33,4.33,4.33,4.33,4.33,4.33,4.33,4.33,4.33,4.33,4.33,4.33,4.33,4.33,4.33,4.33,4.33,4.3404,2.31,2.31,2.31,2.31,2.31,2.31,2.31,0.0,0.0,0.0,0.0,0.0,0.0,0.0,0.0,0.0,0.0,2.6454,0.0,0.0,0.0,0.0,2.6684,2.6508,2.6508,2.6508,2.6508,2.6508,2.6508,0.0,0.0,0.0,0.0,0.0,2.8704,0.0,3.1002,0.0,3.3162,0.0,0.0,0.0,0.0,3.5271,3.5496,3.5496,3.5496,3.5496,3.5496,0.0,3.5496,0.0,0.0,0.0,0.0,0.0,0.0,0.0,0.0,0.0,0.0,0.0,0.0,0.0,3.5367,0.0,3.5496,0.0,0.0,0.0,0.0,0.0,0.0,0.0,3.5496,0.0,0.0,0.0,3.6156,0.0,0.0,0.0,3.8356,3.8646,3.8981,3.9376,3.9406,3.9406,3.9406,3.9406,3.9406,3.9406,3.9406,4.0043,4.1388,4.1403,4.2043,4.33,4.33,4.33,4.33,4.33,4.33,4.33,4.33,4.33,4.33,4.33,4.33,4.33,4.33,4.33,4.33,4.33,4.33,4.3449,2.31,0.0,0.0,0.0,0.0,2.3158,0.0,0.0,0.0,0.0,0.0,0.0,2.5005,2.5017,0.0,0.0,2.5854,2.603,0.0,0.0,2.6508,0.0,0.0,0.0,0.0,2.6508,2.6508,2.6508,2.6508,0.0,0.0,0.0,0.0,0.0,0.0,2.9668,3.0346,0.0,0.0,3.2864,3.3127,3.3536,3.4078,3.4814,3.5262,3.5496,3.5496,3.5496,3.5496,3.5496,3.5496,0.0,3.5496,0.0,0.0,0.0,0.0,0.0,3.5496,0.0,0.0,0.0,0.0,0.0,0.0,0.0,0.0,0.0,0.0,0.0,0.0,0.0,0.0,0.0,0.0,3.5496,0.0,3.5496,0.0,0.0,0.0,0.0,0.0,3.8131,3.8392,3.9086,3.9131,3.9212,3.9391,3.9406,3.9406,3.9406,3.9406,4.0043,4.1388,4.1403,4.2043,4.33,4.33,4.33,4.33,4.33,4.33,4.33,4.33,4.33,4.33,4.33,4.33,4.33,4.33,4.33,4.33,4.33,4.33,4.3494,2.31,2.31,0.0,0.0,0.0,0.0,0.0,0.0,0.0,0.0,0.0,0.0,0.0,0.0,0.0,0.0,0.0,2.6474,2.6508,0.0,2.6508,0.0,0.0,2.6508,0.0,0.0,2.6508,2.6508,2.6508,0.0,0.0,0.0,0.0,0.0,0.0,2.9255,2.9825,2.9905,2.9934,3.0008,3.0914,3.2384,3.4001,0.0,3.4658,3.5496,3.5496,0.0,0.0,3.5496,3.5496,0.0,0.0,0.0,0.0,0.0,0.0,0.0,0.0,0.0,0.0,3.5488,0.0,0.0,0.0,0.0,3.5496,0.0,0.0,0.0,0.0,0.0,0.0,0.0,0.0,0.0,0.0,0.0,0.0,0.0,0.0,0.0,0.0,3.7426,3.7719,0.0,3.8431,3.873,3.9376,3.9406,3.9406,3.9406,3.9406,4.0043,4.1388,4.1403,4.2043,4.33,4.33,4.33,4.33,4.33,4.33,4.33,4.33,4.33,4.33,4.33,4.33,4.33,4.33,4.33,4.33,4.33,4.33,4.3494,2.31,0.0,0.0,0.0,0.0,0.0,0.0,2.4607,0.0,0.0,0.0,0.0,0.0,2.6733,2.6959,0.0,0.0,2.7553,2.7553,2.7553,0.0,0.0,0.0,2.6855,0.0,0.0,2.6508,2.6508,0.0,0.0,0.0,0.0,0.0,0.0,0.0,2.9242,0.0,0.0,0.0,0.0,0.0,3.1951,3.3215,0.0,0.0,3.5496,3.5496,3.5496,0.0,3.5496,3.5496,3.5496,3.5496,3.5496,3.5496,3.5496,3.5496,0.0,0.0,0.0,3.4675,3.5335,0.0,0.0,0.0,0.0,0.0,0.0,0.0,0.0,0.0,0.0,0.0,0.0,0.0,0.0,0.0,0.0,0.0,0.0,0.0,0.0,0.0,0.0,0.0,0.0,3.8401,0.0,3.9361,3.9406,3.9406,3.9406,3.9406,4.0043,4.1388,4.1403,4.2043,4.33,4.33,4.33,4.33,4.33,4.33,4.33,4.33,4.33,4.33,4.33,4.33,4.33,4.33,4.33,4.33,4.33,4.3569,4.4147,2.31,0.0,0.0,0.0,0.0,0.0,0.0,0.0,0.0,0.0,2.6532,0.0,2.7537,0.0,2.772,0.0,2.81,2.81,2.81,2.81,0.0,2.7604,2.757,0.0,0.0,2.688,2.678,2.678,0.0,2.6955,0.0,0.0,0.0,0.0,0.0,2.9443,2.984,0.0,3.0705,0.0,0.0,3.1563,0.0,0.0,3.5197,3.5441,0.0,3.5205,3.5496,3.5496,3.5496,3.5496,3.5496,3.5496,3.5496,3.5496,3.5496,3.5496,3.5496,3.4773,0.0,3.5254,3.4733,0.0,3.5271,0.0,0.0,0.0,0.0,0.0,0.0,0.0,0.0,0.0,0.0,0.0,0.0,3.5496,0.0,0.0,0.0,0.0,0.0,0.0,3.668,3.7952,3.8033,3.8437,0.0,3.9406,3.9406,3.9406,3.9406,4.0043,4.1388,4.1403,4.2043,4.33,4.33,4.33,4.33,4.33,4.33,4.33,4.33,4.33,4.33,4.33,4.33,4.33,4.33,4.33,4.33,4.33,4.3878,4.4815,2.3175,2.365,0.0,0.0,2.37,0.0,0.0,0.0,2.6084,0.0,2.7336,2.7541,2.8075,2.8138,2.815,2.8176,2.8176,0.0,2.8176,2.8176,0.0,0.0,2.8138,2.8134,2.81,2.7604,2.7336,0.0,0.0,0.0,0.0,0.0,0.0,0.0,2.9543,0.0,2.9801,2.9801,2.9801,2.9888,3.0767,3.1161,3.1389,3.3136,3.4442,3.5238,3.4386,3.4633,3.5359,3.5408,3.5392,3.5359,3.5359,3.5359,3.5359,3.5359,3.5384,3.5431,3.5431,3.4758,3.4295,3.5262,3.4774,0.0,0.0,0.0,3.5496,0.0,0.0,0.0,0.0,0.0,0.0,0.0,0.0,0.0,0.0,0.0,0.0,0.0,0.0,0.0,0.0,0.0,3.6028,3.7261,3.7351,3.7949,0.0,3.9346,3.9376,3.9406,3.9406,4.0043,4.1388,4.1403,4.2043,4.33,4.33,4.33,4.33,4.33,4.33,4.33,4.33,4.33,4.33,4.33,4.33,4.33,4.33,4.3329,4.3359,4.3389,4.4217,4.5394,2.4362,2.4482,2.4666,0.0,2.5084,2.5431,0.0,0.0,0.0,0.0,2.7896,2.81,2.8643,2.8684,2.8878,2.9315,2.9365,0.0,0.0,0.0,0.0,2.8709,2.8684,2.8505,2.81,2.7971,0.0,2.7896,0.0,0.0,2.8502,0.0,0.0,0.0,0.0,0.0,2.9801,2.9801,2.9801,2.9821,3.0065,3.0576,3.118,0.0,3.1906,3.3489,3.4683,3.4358,3.3446,3.4143,3.3916,3.3342,3.3342,3.3342,3.3342,3.3342,3.3839,3.4386,3.4386,3.4733,3.5189,3.5447,3.5318,3.5189,0.0,0.0,0.0,0.0,0.0,0.0,0.0,0.0,0.0,0.0,0.0,0.0,0.0,0.0,0.0,3.5496,0.0,0.0,0.0,3.5496,3.5848,3.6665,3.674,3.7293,3.8595,0.0,3.8901,3.9382,3.9406,4.0043,4.1388,4.1403,4.2043,4.33,4.33,4.33,4.33,4.33,4.33,4.33,4.33,4.33,4.33,4.33,4.33,4.33,4.33,4.3599,4.4102,4.4591,4.5005,4.5479,2.4796,2.5201,0.0,2.6247,0.0,0.0,2.683,0.0,0.0,2.8389,2.8442,0.0,2.923,2.9283,2.9431,2.9767,2.9801,0.0,2.9801,0.0,0.0,2.9305,2.9283,2.9154,2.885,2.858,0.0,2.8442,0.0,0.0,2.891,0.0,0.0,0.0,0.0,2.9801,2.9801,2.9801,2.9801,2.9801,2.9801,3.011,0.0,3.0457,3.0809,3.1623,3.3538,3.3538,3.2749,3.3679,3.338,3.2664,3.3084,3.3215,3.328,3.3565,3.4327,3.5143,3.5407,3.5258,3.5125,3.5573,3.4995,3.4432,3.4874,3.477,3.4705,0.0,3.5028,3.4978,0.0,0.0,0.0,0.0,0.0,0.0,0.0,0.0,0.0,0.0,3.5496,0.0,0.0,3.5496,3.5774,3.644,3.6508,3.7062,3.8326,0.0,3.8706,3.9376,3.9406,4.0043,4.1388,4.1403,4.2043,4.33,4.33,4.33,4.33,4.33,4.33,4.33,4.33,4.33,4.33,4.33,4.33,4.33,4.33,4.3703,4.4381,4.505,4.5484,4.5892,2.5222,0.0,0.0,0.0,0.0,0.0,0.0,2.7908,0.0,2.8944,0.0,2.923,2.9741,2.9801,2.9801,2.9801,0.0,2.9801,2.9801,2.9801,2.9801,2.9801,2.9801,2.9801,2.9801,2.9292,0.0,0.0,0.0,0.0,0.0,0.0,0.0,0.0,0.0,0.0,0.0,2.9801,2.9801,2.9801,2.9801,2.9801,2.9885,3.0714,3.051,3.0008,3.165,3.2231,3.2375,3.331,3.3013,3.2389,3.3278,3.3551,3.3687,3.4345,3.523,3.6129,3.6651,3.562,3.4603,3.5476,3.4336,3.3256,3.4274,3.4099,3.4003,3.5025,3.4747,3.4593,0.0,0.0,0.0,0.0,0.0,0.0,0.0,0.0,0.0,0.0,0.0,0.0,0.0,3.5496,3.5744,3.6321,3.6365,3.6928,3.8206,0.0,3.8616,3.9376,3.9406,4.0043,4.1388,4.1403,4.2043,4.33,4.33,4.33,4.33,4.33,4.33,4.33,4.33,4.33,4.33,4.33,4.33,4.3314,4.3404,4.3848,4.4516,4.5185,4.5858,4.651,0.0,0.0,0.0,0.0,0.0,2.8722,2.8621,2.8706,2.8969,2.9556,2.9641,2.9679,2.9789,2.9801,2.9801,2.9801,2.9801,0.0,0.0,0.0,0.0,2.9801,2.9801,2.9801,2.9801,2.9701,2.9641,0.0,0.0,0.0,0.0,0.0,0.0,0.0,0.0,0.0,2.9801,2.9801,0.0,2.9801,2.9801,2.9801,2.9821,2.9979,2.9943,2.984,3.0168,3.0292,3.0428,3.1374,3.1076,3.0397,3.1,3.1203,3.1316,3.1864,3.2701,3.3465,3.3582,3.3957,3.4359,3.4538,3.4312,3.4321,3.5375,3.5541,3.5743,3.6755,3.648,3.6116,3.6296,0.0,0.0,0.0,0.0,0.0,0.0,0.0,0.0,0.0,0.0,3.5496,0.0,0.0,3.5541,3.5669,3.5684,3.6229,3.7509,0.0,3.8144,0.0,3.9406,4.0043,0.0,0.0,4.2043,4.33,4.33,4.33,4.33,4.33,4.33,4.33,4.33,4.33,4.33,4.33,4.33,4.3359,4.3908,4.4531,4.5214,4.5877,4.655,4.7134,0.0,0.0,0.0,0.0,0.0,0.0,0.0,2.9368,0.0,2.9754,2.9801,2.9801,2.9801,2.9801,2.9801,2.9801,2.9801,2.9801,2.9801,2.9801,2.9801,2.9801,2.9801,0.0,2.9801,2.9801,2.9801,2.9801,0.0,0.0,0.0,0.0,0.0,0.0,0.0,2.9801,0.0,0.0,0.0,2.9801,2.9801,2.9801,2.9801,2.9801,2.9801,2.9839,3.0118,3.0209,3.0363,3.1305,3.0996,3.0395,3.1425,3.175,3.1863,3.2464,3.3337,3.4168,3.4471,3.454,3.4622,3.5166,3.4474,3.3953,3.5034,3.4613,3.443,3.5991,3.5833,3.5633,3.6362,3.6246,0.0,0.0,0.0,0.0,0.0,0.0,0.0,0.0,0.0,0.0,0.0,0.0,0.0,0.0,0.0,3.6065,3.7336,0.0,3.8009,0.0,0.0,0.0,4.1388,0.0,4.2043,4.33,4.33,4.33,4.33,4.33,4.33,4.33,4.33,4.33,4.33,4.33,4.33,4.3374,4.4042,4.471,4.5379,4.6046,4.6719,4.7309,0.0,2.8803,0.0,0.0,2.9481,0.0,2.9801,2.9801,2.9801,2.9801,2.9801,2.9801,2.9801,2.9801,2.9801,2.9801,2.9801,2.9801,2.9801,2.9801,2.9801,2.9801,2.9801,2.9801,2.9801,2.9801,2.9801,0.0,0.0,0.0,0.0,0.0,0.0,0.0,0.0,0.0,0.0,0.0,2.9801,2.9801,2.9801,2.9801,2.9801,2.9801,2.9867,3.003,3.0447,3.0673,3.0903,3.1743,3.1474,3.0989,3.2263,3.2668,3.2795,3.3459,3.4216,3.4939,3.5415,3.4966,3.455,3.5336,3.4311,3.3377,3.4459,3.3835,3.3578,3.5447,3.5522,3.5547,3.6514,3.659,0.0,0.0,0.0,0.0,0.0,0.0,0.0,0.0,0.0,0.0,3.5496,0.0,0.0,0.0,0.0,3.6207,3.7336,3.753,3.8159,0.0,0.0,4.0043,4.1388,0.0,4.2043,4.33,4.33,4.33,4.33,4.33,4.33,4.33,4.33,4.33,4.33,4.33,4.3389,4.3569,4.4262,4.492,4.5589,4.6266,4.685,4.7309,0.0,0.0,0.0,0.0,0.0,0.0,2.9801,2.9801,2.9801,2.9801,2.9801,2.9801,2.9801,2.9801,2.9801,2.9801,2.9801,2.9801,2.9801,2.9801,2.9801,2.9801,2.9801,2.9801,2.9801,2.9801,2.9801,0.0,0.0,2.9801,0.0,0.0,0.0,0.0,0.0,0.0,0.0,2.9801,2.9801,2.9801,2.9801,2.9801,2.9801,2.9801,3.0105,3.0535,3.0575,3.0911,3.1406,3.1992,3.1807,3.1432,3.2055,3.2262,3.2386,3.2988,3.3237,3.3324,3.3362,3.3324,3.3272,3.3366,3.3238,3.3377,3.4459,3.5288,3.6168,3.7339,3.7815,3.7885,3.74,3.6866,3.6479,0.0,0.0,0.0,0.0,0.0,0.0,0.0,0.0,0.0,0.0,3.5496,3.5496,0.0,3.6058,3.6695,3.7366,3.7982,3.8631,3.9376,3.9406,4.0043,4.1388,4.1403,4.2043,4.33,4.33,4.33,4.33,4.33,4.33,4.33,4.33,4.33,4.33,4.33,4.3658,4.4267,4.4935,4.5618,4.6285,4.6954,4.7238,4.7309,0.0,0.0,0.0,0.0,0.0,0.0,0.0,2.9801,2.9801,2.9801,2.9801,2.9801,2.9801,2.9801,2.9801,2.9801,2.9801,2.9801,2.9801,2.9801,2.9801,2.9801,2.9801,2.9801,2.9801,2.9801,2.9801,0.0,0.0,0.0,0.0,0.0,0.0,0.0,0.0,2.9801,2.9801,2.9801,2.9801,2.9801,2.9801,2.9993,3.0271,3.0271,3.061,3.1122,3.1441,3.1702,3.1964,3.2552,3.2363,3.1989,3.2564,3.274,3.279,3.3027,3.3102,3.3102,3.3102,3.3102,3.3251,3.39,3.3577,3.3377,3.4459,3.502,3.5588,3.6628,3.7992,3.8796,3.8123,3.7802,3.7503,3.7114,0.0,0.0,0.0,0.0,0.0,0.0,0.0,0.0,0.0,3.5496,3.5496,3.5496,0.0,3.6755,3.7366,3.8042,3.8706,3.9376,0.0,4.0442,4.1388,4.1802,4.2441,4.33,4.33,4.33,4.33,4.33,4.33,4.33,4.33,4.33,4.3329,4.3733,4.4057,4.4411,4.5488,4.6061,4.6375,4.7044,4.7309,4.7309,2.9801,0.0,2.9801,0.0,2.9801,2.9801,2.9801,2.9801,2.9801,2.9801,2.9801,2.9801,2.9801,2.9801,2.9801,2.9801,2.9801,2.9801,2.9801,2.9801,2.9801,2.9801,2.9801,0.0,2.9801,2.9801,2.9801,2.9801,2.9801,0.0,0.0,0.0,0.0,0.0,2.9801,2.9801,2.9801,2.9801,2.9801,2.9804,2.9967,3.0259,3.0623,3.0773,3.1173,3.1687,3.2066,3.2317,3.2528,3.2964,3.2815,3.2541,3.2977,3.3102,3.3102,3.3102,3.3102,3.3102,3.3102,3.3102,3.3283,3.4047,3.3649,3.3377,3.4459,3.4928,3.5521,3.6862,3.835,3.9266,3.8781,3.8535,3.8251,3.7778,0.0,0.0,0.0,0.0,0.0,0.0,3.578,3.578,3.578,3.578,3.5863,0.0,0.0,3.7159,3.7396,3.8219,0.0,0.0,0.0,0.0,4.1388,4.2056,4.2696,4.33,4.33,4.33,4.33,4.33,4.33,4.33,4.33,4.3419,4.3638,4.4102,4.4521,4.4984,4.5927,4.642,4.6644,4.7119,4.7309,4.7309,2.9801,2.9801,2.9801,2.9801,2.9801,2.9801,2.9801,2.9801,2.9801,2.9801,2.9801,2.9801,2.9801,2.9801,2.9801,2.9801,2.9801,2.9801,2.9801,2.9801,2.9801,0.0,0.0,2.9801,2.9801,2.9801,2.9801,2.9801,0.0,0.0,2.9801,0.0,2.9801,2.9801,2.9801,2.9801,2.9801,2.9801,2.9801,2.9852,3.0372,3.0588,3.0651,3.1195,3.1725,3.2192,3.2204,3.2579,3.309,3.3102,3.3101,3.309,3.3102,3.3102,3.3102,3.3102,3.3102,3.3102,3.3102,3.3102,3.3102,3.3124,3.3113,3.3377,3.4459,3.548,3.6789,3.892,3.9388,3.9406,3.9391,3.8856,3.8401,3.8386,0.0,0.0,0.0,0.0,0.0,0.0,3.6493,3.6493,3.6493,3.6493,0.0,0.0,0.0,0.0,0.0,0.0,0.0,3.9406,4.0043,0.0,4.1388,4.2056,4.2696,4.33,4.33,4.33,4.33,4.33,4.33,4.33,4.33,4.3683,4.4292,4.4307,4.5074,4.6285,4.6285,4.6689,4.7294,4.7309,4.7309,4.7309,2.9801,2.9801,2.9801,2.9801,2.9801,2.9801,2.9801,2.9801,2.993,3.0306,3.0347,3.0472,3.0856,3.057,3.0485,0.0,3.0894,3.0743,0.0,3.0347,3.0171,2.9826,2.9801,2.9801,2.9801,2.9801,2.9801,2.9801,0.0,0.0,0.0,2.9801,2.9801,2.9801,2.9801,2.9801,2.9801,2.9801,3.0005,3.0359,3.0535,3.105,3.1715,3.1878,3.2303,3.2815,3.2815,3.2939,3.3102,3.3102,3.3102,3.3102,3.3102,3.3102,3.3102,3.3102,3.3102,3.3102,3.3102,3.3102,3.3102,3.3102,3.3102,3.3186,3.3524,3.4955,3.6595,3.8022,3.8898,3.9406,3.9406,3.9236,3.9086,3.9086,3.8527,0.0,0.0,0.0,0.0,0.0,3.7112,3.7112,3.7112,3.7112,0.0,0.0,0.0,0.0,0.0,0.0,0.0,0.0,4.0726,0.0,4.2081,4.2701,4.3115,4.33,4.33,4.33,4.33,4.33,4.33,4.3329,4.3778,4.4102,4.4381,4.5284,4.5912,4.6345,4.6805,4.7104,4.7309,4.7309,4.7309,4.7309,2.9801,2.9801,2.9801,2.9801,2.9967,3.0105,3.0105,3.0269,3.053,3.0859,3.0899,3.11,3.1637,3.1401,0.0,3.1396,3.1396,3.1258,3.0911,3.0899,3.066,3.0118,3.0105,3.0005,2.9792,2.9801,0.0,2.9801,2.9801,2.9801,2.9801,2.9801,2.9801,2.9801,2.9801,2.9905,3.0105,3.0105,3.0419,3.0911,3.1125,3.1602,3.2229,3.2453,3.2778,3.3102,3.3102,3.3102,3.3102,3.3102,3.3102,3.3102,3.3102,3.3102,3.3102,3.3102,3.3102,3.3102,3.3102,3.3102,3.3102,3.3102,3.3102,3.3208,3.3609,3.5312,3.6992,3.7653,3.8653,3.9406,3.9406,3.9406,3.9406,3.9406,3.9041,3.8781,3.8781,0.0,0.0,0.0,0.0,0.0,0.0,3.7778,3.7883,0.0,0.0,0.0,0.0,0.0,0.0,4.0382,4.105,4.1718,4.2396,4.3005,4.33,4.33,4.33,4.33,4.33,4.33,4.3434,4.3688,4.4127,4.4591,4.5129,4.5956,4.645,4.673,4.7134,4.7309,4.7309,4.7309,4.7309,4.7309,2.9852,2.9864,2.9877,0.0,3.0322,0.0,3.066,3.1085,3.1409,3.1446,3.1459,3.166,3.2204,3.2267,3.2054,3.156,0.0,0.0,0.0,3.1459,3.1223,3.0686,3.066,3.0422,2.9917,2.9914,2.9889,2.9864,2.9826,2.9826,2.9864,2.9864,2.9877,2.9914,2.9914,3.0193,3.066,3.066,3.0972,3.1497,3.1991,3.2229,3.2317,3.2889,3.3102,3.3102,3.3102,3.3102,3.3102,3.3102,3.3102,3.3102,3.3102,3.3102,3.3102,3.3102,3.3102,3.3102,3.3102,3.3102,3.3102,3.3102,3.3102,3.3356,3.4356,3.6144,3.7596,3.7663,3.8546,3.931,3.9397,3.9406,3.9406,3.9406,3.9406,3.9406,3.9406,3.9406,3.9176,0.0,0.0,0.0,3.8476,3.8476,3.8736,0.0,0.0,0.0,0.0,0.0,3.9774,4.0442,4.1124,4.1792,4.2461,4.302,4.33,4.33,4.33,4.3329,4.3374,4.3374,4.3743,4.4381,4.4426,4.5149,4.63,4.6345,4.6745,4.7309,4.7309,4.7309,4.7309,4.7309,4.7309,4.7309,0.0,0.0,3.0535,3.0957,3.1133,3.121,3.121,3.1321,3.1547,3.1953,3.2003,3.224,3.2815,3.2889,3.2839,3.2713,3.27,3.2501,3.2041,3.2003,3.1775,3.1235,3.121,3.1158,3.1019,3.1019,3.0821,3.0409,2.9993,3.0005,3.0409,3.0409,3.0633,3.1019,3.1019,3.1095,3.121,3.121,3.1524,3.2016,3.2154,3.2478,3.2891,3.3052,3.3102,3.3102,3.3102,3.3102,3.3102,3.3102,3.3102,3.3102,3.3102,3.3102,3.3102,3.3102,3.3102,3.3102,3.3102,3.3102,3.3102,3.3102,3.3102,3.3165,3.342,3.4491,3.5641,3.6418,3.7429,3.8435,3.9256,3.9406,3.9406,3.9406,3.9406,3.9406,3.9406,3.9406,3.9346,0.0,3.9152,3.9152,3.9152,3.9152,3.9227,0.0,0.0,0.0,4.0142,4.0163,4.0472,4.1149,4.1817,4.2466,4.307,4.3225,4.33,4.33,4.33,4.3579,4.4057,4.4057,4.4426,4.5095,4.5598,4.6016,4.6345,4.685,4.7164,4.7309,4.7309,4.7309,4.7309,4.7309,4.7309,4.7309,3.0909,3.0972,3.106,3.1346,3.1599,3.1763,3.1763,3.1999,3.2275,3.2566,3.2604,3.274,3.3065,3.3102,3.3102,3.3102,3.3102,3.2953,3.2629,3.2604,3.2353,3.1788,3.1763,3.165,3.1409,3.1396,3.1258,3.0972,3.067,3.068,3.0972,3.0972,3.1122,3.1396,3.1396,3.1547,3.1763,3.1763,3.2089,3.2604,3.2604,3.2815,3.3102,3.3102,3.3102,3.3102,3.3102,3.3102,3.3102,3.3102,3.3102,3.3102,3.3102,3.3102,3.3102,3.3102,3.3102,3.3102,3.3102,3.3102,3.3102,3.3102,3.3102,3.3229,3.3713,3.4643,3.5678,3.6716,3.7776,3.8708,3.9292,3.9406,3.9406,3.9406,3.9406,3.9406,3.9406,3.9406,3.9406,3.9406,3.9406,3.9406,3.9406,3.9406,3.9526,3.9825,3.9864,0.0,4.0825,4.1149,4.1478,4.1847,4.2206,4.269,4.33,4.33,4.33,4.33,4.3614,4.3953,4.4322,4.4631,4.5114,4.5773,4.6136,4.6465,4.679,4.7149,4.7309,4.7309,4.7309,4.7309,4.7309,4.7309,4.7309,4.7309,3.1499,3.1522,3.1547,3.1635,3.2026,3.234,3.234,3.2765,3.3102,3.3102,3.3102,3.3102,3.3102,3.3102,3.3102,3.3102,3.3102,3.3102,3.3102,3.3102,3.2866,3.2355,3.234,3.2114,3.167,3.1572,3.1522,3.1522,3.1446,3.1446,3.1522,3.1522,3.1572,3.166,3.166,3.1901,3.234,3.234,3.2629,3.3102,3.3102,3.3102,3.3102,3.3102,3.3102,3.3102,3.3102,3.3102,3.3102,3.3102,3.3102,3.3102,3.3102,3.3102,3.3102,3.3102,3.3102,3.3102,3.3102,3.3102,3.3102,3.3102,3.3102,3.3377,3.4459,3.5359,3.632,3.7548,3.8518,3.9219,3.9364,3.9406,3.9406,3.9406,3.9406,3.9406,3.9406,0.0,3.9406,3.9406,3.9406,3.9406,3.9406,3.9496,3.9789,4.0367,4.0487,4.084,4.1517,4.2086,4.244,4.2536,4.2536,4.2785,4.329,4.33,4.3359,4.3464,4.4027,4.4411,4.4621,4.5189,4.5817,4.645,4.645,4.6764,4.7309,4.7309,4.7309,4.7309,4.7309,4.7309,4.7309,4.7309,4.7309,4.7309,3.1989,3.2089,3.224,3.2751,3.2891,3.2964,3.2964,3.304,3.3102,3.3102,3.3102,3.3102,3.3102,3.3102,3.3102,3.3102,3.3102,3.3102,3.3102,3.3102,3.3052,3.2953,3.2964,3.2916,3.2839,3.2351,3.2089,3.2089,3.1625,3.1625,3.2089,3.2089,3.2353,3.2839,3.2839,3.2889,3.2964,3.2964,3.3014,3.3102,3.3102,3.3102,3.3102,3.3102,3.3102,3.3102,3.3102,3.3102,3.3102,3.3102,3.3102,3.3102,3.3102,3.3102,3.3102,3.3102,3.3102,3.3102,3.3102,3.3102,3.3102,3.3102,3.3102,3.3377,3.4459,3.4815,3.5484,3.7405,3.7937,3.8327,3.9237,3.9406,3.9406,3.9406,3.9406,3.9406,3.9406,0.0,3.9406,3.9406,3.9406,3.9406,3.9406,3.9909,4.0292,4.0382,4.0915,4.1538,4.2206,4.2336,4.2631,4.3145,4.316,4.321,4.33,4.33,4.3584,4.4147,4.4262,4.488,4.5986,4.6091,4.651,4.7149,4.7149,4.7194,4.7309,4.7309,4.7309,4.7309,4.7309,4.7309,4.7309,4.7309,4.7309,4.7309,3.264,3.2679,3.2778,3.3052,3.3102,3.3102,3.3102,3.3102,3.3102,3.3102,3.3102,3.3102,3.3102,3.3102,3.3102,3.3102,3.3102,3.3102,3.3102,3.3102,3.3102,3.3102,3.3102,3.3102,3.3102,3.2828,3.2679,3.2679,3.2439,3.2439,3.2679,3.2679,3.2828,3.3102,3.3102,3.3102,3.3102,3.3102,3.3102,3.3102,3.3102,3.3102,3.3102,3.3102,3.3102,3.3102,3.3102,3.3102,3.314,3.3431,3.3531,3.3581,3.3872,3.396,3.396,3.396,3.3556,3.3102,3.3102,3.3102,3.3102,3.3102,3.3524,3.422,3.5268,3.5951,3.6812,3.8336,3.8662,3.881,3.931,3.9406,3.9406,3.9406,3.9406,0.0,3.9406,3.9406,3.9406,3.9406,3.972,3.9939,3.9939,4.0546,4.1079,4.1448,4.1757,4.2211,4.2851,4.288,4.3005,4.33,4.33,4.33,4.33,4.3658,4.3997,4.4322,4.5029,4.5702,4.6315,4.6674,4.7014,4.7309,4.7309,4.7309,4.7309,4.7309,4.7309,4.7309,4.7309,4.7309,4.7309,4.7309,4.7309,4.7309,3.3102,3.3102,3.3102,3.3102,3.3102,3.3102,3.3102,3.3102,3.3102,3.3102,3.3102,3.3102,3.3102,3.3102,3.3102,3.3102,3.3102,3.3102,3.3102,3.3102,3.3102,3.3102,3.3102,3.3102,3.3102,3.3102,3.3102,3.3102,3.3102,3.3102,3.3102,3.3102,3.3102,3.3102,3.3102,3.3102,3.3102,3.3102,3.3102,3.3102,3.3102,3.3102,3.3115,3.3241,3.3291,3.3303,3.3431,3.3468,3.3531,3.3947,3.4085,3.4161,3.4565,3.4703,3.4703,3.4703,3.4123,3.3468,3.3468,3.3468,3.3468,3.3468,3.4088,3.5038,3.6329,3.716,3.8016,3.9355,3.9511,3.9406,3.9406,3.9406,3.9406,3.9406,0.0,3.9451,3.9616,3.9631,3.9699,3.9849,4.0322,4.0621,4.0621,4.1239,4.1847,4.2366,4.2536,4.2815,4.3285,4.33,4.33,4.33,4.33,4.3374,4.3524,4.4042,4.4456,4.4775,4.5807,4.639,4.6555,4.7059,4.7309,4.7309,4.7309,4.7309,4.7309,4.7309,4.7309,4.7309,4.7309,4.7309,4.7309,4.7309,4.7309,4.7309,3.3102,3.3102,3.3102,3.3102,3.3102,3.3102,3.3102,3.3102,3.3102,3.3102,3.3102,3.3102,3.3102,3.3102,3.3102,3.3102,3.3102,3.3102,3.3102,3.3102,3.3102,3.3102,3.3102,3.3102,3.3102,3.3102,3.3102,3.3102,3.3102,3.3102,3.3102,3.3102,3.3102,3.3102,3.3102,3.3102,3.3102,3.3102,3.3102,3.3102,3.3102,3.3102,3.3153,3.3657,3.3847,3.3909,3.44,3.4577,3.459,3.4628,3.464,3.464,3.469,3.4703,3.4703,3.4703,3.464,3.4577,3.4577,3.4577,3.4577,3.4577,3.4645,3.5252,3.7382,3.7492,3.7767,3.9893,3.9825,3.9406,3.9406,3.9406,3.9406,3.9406,0.0,0.0,4.0247,4.0337,4.0561,4.1179,4.1298,4.1328,4.1328,4.1937,4.2351,4.2396,4.2925,4.3255,4.33,4.33,4.33,4.33,4.33,4.3599,4.4222,4.4277,4.4925,4.614,4.6256,4.6629,4.7234,4.7279,4.7309,4.7309,4.7309,4.7309,4.7309,4.7309,4.7309,4.7309,4.7309,4.7309,4.7309,4.7309,4.7309,4.7309,3.3102,3.3102,3.3102,3.3102,3.3102,3.3102,3.3102,3.3102,3.3102,3.3102,3.3102,3.3102,3.3102,3.3102,3.3102,3.3102,3.3102,3.3102,3.3102,3.3102,3.3102,3.3102,3.3102,3.3102,3.3102,3.3102,3.3102,3.3102,3.3102,3.3102,3.3102,3.3102,3.3102,3.3102,3.3102,3.3102,3.3128,3.3443,3.3594,3.3632,3.396,3.4087,3.4112,3.4313,3.44,3.4426,3.4628,3.4703,3.4753,3.508,3.5206,3.5256,3.5641,3.5754,3.5754,3.5754,3.5754,3.5754,3.5754,3.524,3.4703,3.4703,3.5204,3.5904,3.6756,3.7276,3.8045,3.9585,3.9702,3.9752,4.05,4.0645,4.0645,4.0645,0.0,4.0735,4.0975,4.102,4.1109,4.1373,4.1772,4.2027,4.2027,4.2591,4.296,4.296,4.3175,4.33,4.33,4.33,4.3494,4.3908,4.3923,4.4042,4.4307,4.5119,4.5792,4.6315,4.6719,4.7044,4.7309,4.7309,4.7309,4.7309,4.7309,4.7309,4.7309,4.7309,4.7309,4.7309,4.7309,4.7309,4.7309,4.7309,4.7309,4.7309,3.3102,3.3102,3.3102,3.3102,3.3102,3.3102,3.3102,3.3102,3.3102,3.3102,3.3102,3.3102,3.3102,3.3102,3.3102,3.3102,3.3102,3.3102,3.3102,3.3266,3.3278,3.3102,3.3102,3.3102,3.3102,3.3102,3.3102,3.3102,3.3102,3.3102,3.3102,3.3267,3.3354,3.3366,3.3531,3.3607,3.3632,3.3997,3.4149,3.4175,3.454,3.4703,3.4715,3.4891,3.4942,3.4979,3.5166,3.5229,3.5279,3.5668,3.5782,3.5856,3.6268,3.6393,3.6393,3.6393,3.6393,3.6393,3.6393,3.5828,3.5229,3.5229,3.5781,3.6428,3.6779,3.7275,3.8087,3.9597,3.9745,3.9977,4.1174,4.1403,4.1403,4.1403,4.1403,4.1463,4.1673,4.1712,4.1777,4.1968,4.2396,4.269,4.269,4.3065,4.33,4.33,4.33,4.33,4.33,4.3494,4.3818,4.4292,4.47,4.4935,4.4935,4.5837,4.6405,4.6614,4.7074,4.7309,4.7309,4.7309,4.7309,4.7309,4.7309,4.7309,4.7309,4.7309,4.7309,4.7309,4.7309,4.7309,4.7309,4.7309,4.7309,4.7309,3.3102,3.3102,3.3102,3.3102,3.3102,3.3102,3.3102,3.3102,3.3102,3.3102,3.3102,3.3102,3.3102,3.3102,3.3102,3.3102,3.3102,3.3115,3.3115,3.3619,3.3669,3.3151,3.3115,3.3115,3.3115,3.3115,3.3115,3.3115,3.3115,3.3115,3.3128,3.3669,3.3909,3.3935,3.4463,3.4703,3.4703,3.4703,3.4703,3.4703,3.4703,3.4703,3.4778,3.5306,3.5508,3.5595,3.6193,3.6393,3.6393,3.6393,3.6393,3.6393,3.6393,3.6393,3.6393,3.6393,3.6393,3.6393,3.6393,3.6393,3.6393,3.6393,3.6393,3.6697,3.7825,3.7571,3.7765,4.0115,4.0071,3.9971,4.1179,4.1403,4.1403,4.1403,4.1403,4.1652,4.2306,4.241,4.2631,4.3225,4.33,4.33,4.33,4.33,4.33,4.33,4.33,4.3314,4.3314,4.3938,4.4322,4.4322,4.5613,4.63,4.6315,4.6315,4.6629,4.7309,4.7309,4.7309,4.7309,4.7309,4.7309,4.7309,4.7309,4.7309,4.7309,4.7309,4.7309,4.7309,4.7309,4.7309,4.7309,4.7309,4.7309,4.7309,3.3102,3.3102,3.3102,3.3102,3.3102,3.3102,3.3102,3.3102,3.3102,3.3102,3.3102,3.3102,3.3102,3.3431,3.3669,3.3669,3.401,3.4212,3.4212,3.4375,3.4388,3.4225,3.4212,3.4212,3.4212,3.4212,3.4212,3.4212,3.4212,3.4212,3.4225,3.4388,3.4463,3.4476,3.4628,3.4703,3.4728,3.5106,3.5269,3.5306,3.5717,3.5891,3.5916,3.6068,3.6131,3.6156,3.6343,3.6393,3.6393,3.6393,3.6393,3.6393,3.6393,3.6393,3.6393,3.6393,3.6393,3.6393,3.6393,3.6393,3.6393,3.6393,3.6393,3.6499,3.6838,3.6744,3.727,3.962,3.9956,4.0419,4.2362,4.2726,4.2726,4.2726,4.2726,4.2801,4.3005,4.3035,4.31,4.3285,4.33,4.33,4.33,4.33,4.33,4.33,4.3743,4.3997,4.3997,4.4636,4.5219,4.5687,4.6091,4.6525,4.6999,4.6999,4.7104,4.7309,4.7309,4.7309,4.7309,4.7309,4.7309,4.7309,4.7309,4.7309,4.7309,4.7309,4.7309,4.7309,4.7309,4.7309,4.7309,4.7309,4.7309,4.7309,3.3102,3.3102,3.3102,3.3102,3.3102,3.3102,3.3102,3.3102,3.3178,3.338,3.3418,3.3494,3.372,3.4022,3.4212,3.4212,3.4502,3.4703,3.4703,3.4892,3.5018,3.5018,3.5253,3.5153,3.4703,3.4703,3.4703,3.4703,3.4703,3.4703,3.4703,3.4929,3.5018,3.503,3.5266,3.5366,3.5391,3.573,3.5856,3.5881,3.6243,3.6393,3.6393,3.6393,3.6393,3.6393,3.6393,3.6393,3.6393,3.6393,3.6393,3.6393,3.6393,3.6393,3.6393,3.6393,3.6393,3.6393,3.6393,3.6393,3.6393,3.6393,3.6393,3.6393,3.6393,3.6393,3.707,3.9417,3.9899,4.06,4.288,4.33,4.33,4.33,4.33,4.33,4.33,4.33,4.33,4.33,4.33,4.33,4.33,4.33,4.3419,4.3683,4.4072,4.4411,4.4681,4.5324,4.5877,4.6285,4.6555,4.6894,4.7309,4.7309,4.7309,4.7309,4.7309,4.7309,4.7309,4.7309,4.7309,4.7309,4.7309,4.7309,4.7309,4.7309,4.7309,4.7309,4.7309,4.7309,4.7309,4.7309,4.7309,4.7309,3.3102,3.3102,3.3102,3.3102,3.314,3.3178,3.3178,3.3215,3.3418,3.3909,3.3972,3.4161,3.464,3.4741,3.4778,3.4778,3.4816,3.4841,3.4841,3.5306,3.5582,3.5582,3.6106,3.5916,3.4866,3.4841,3.4841,3.4841,3.4841,3.4841,3.4853,3.5344,3.5582,3.5607,3.6143,3.6393,3.6393,3.6393,3.6393,3.6393,3.6393,3.6393,3.6393,3.6393,3.6393,3.6393,3.6393,3.6393,3.6393,3.6393,3.6393,3.6393,3.6393,3.6393,3.6393,3.6393,3.6393,3.6393,3.6393,3.6393,3.6393,3.6393,3.6393,3.6393,3.6393,3.6487,3.7198,3.9439,3.9986,4.0717,4.29,4.33,4.33,4.33,4.33,4.33,4.33,4.33,4.33,4.33,4.33,4.33,4.33,4.3359,4.3668,4.4337,4.4441,4.4755,4.536,4.6027,4.639,4.639,4.6984,4.7309,4.7309,4.7309,4.7309,4.7309,4.7309,4.7309,4.7309,4.7309,4.7309,4.7309,4.7309,4.7309,4.7309,4.7309,4.7309,4.7309,4.7309,4.7309,4.7309,4.7309,4.7309,4.7309,3.3102,3.3102,3.3102,3.3102,3.3454,3.3732,3.3732,3.4074,3.4389,3.4513,3.4539,3.4565,3.469,3.5068,3.5331,3.5331,3.5768,3.6029,3.6029,3.6143,3.6205,3.6205,3.633,3.628,3.6041,3.6029,3.6029,3.6029,3.6029,3.6029,3.6029,3.6155,3.6205,3.6218,3.6343,3.6393,3.6393,3.6393,3.6393,3.6393,3.6393,3.6393,3.6393,3.6393,3.6393,3.6393,3.6393,3.6393,3.6393,3.6393,3.6393,3.6393,3.6393,3.6393,3.6393,3.6393,3.6393,3.6393,3.6393,3.6393,3.6393,3.6393,3.6393,3.6393,3.6393,3.708,3.8143,3.9604,4.0607,4.1653,4.3046,4.33,4.33,4.33,4.33,4.33,4.33,4.33,4.33,4.33,4.33,4.33,4.33,4.3788,4.4366,4.5035,4.5563,4.5927,4.6076,4.673,4.7089,4.7089,4.7223,4.7309,4.7309,4.7309,4.7309,4.7309,4.7309,4.7309,4.7309,4.7309,4.7309,4.7309,4.7309,4.7309,4.7309,4.7309,4.7309,4.7309,4.7309,4.7309,4.7309,4.7309,4.7309,4.7309,3.3431,3.3481,3.3569,3.3822,3.4098,3.4288,3.4288,3.4526,3.4791,3.5055,3.508,3.5192,3.5479,3.5768,3.5931,3.5931,3.6218,3.6393,3.6393,3.6393,3.6393,3.6393,3.6393,3.6393,3.6393,3.6393,3.6393,3.6393,3.6393,3.6393,3.6393,3.6393,3.6393,3.6393,3.6393,3.6393,3.6393,3.6393,3.6393,3.6393,3.6393,3.6393,3.6393,3.6393,3.6393,3.6393,3.6393,3.6393,3.6393,3.6393,3.6393,3.6443,3.6695,3.6783,3.6833,3.7097,3.7161,3.7161,3.7161,3.7161,3.7161,3.7161,3.7161,3.7034,3.6519,3.7276,3.8435,3.9645,4.081,4.1943,4.3086,4.33,4.33,4.33,4.33,4.33,4.33,4.33,4.33,4.33,4.33,4.3434,4.3758,4.4381,4.5065,4.5728,4.6091,4.6435,4.6749,4.7104,4.7309,4.7309,4.7309,4.7309,4.7309,4.7309,4.7309,4.7309,4.7309,4.7309,4.7309,4.7309,4.7309,4.7309,4.7309,4.7309,4.7309,4.7309,4.7309,4.7309,4.7309,4.7309,4.7309,4.7309,4.7309,4.7309,3.3947,3.4035,3.4175,3.4615,3.4778,3.4841,3.4841,3.4916,3.5153,3.5606,3.5645,3.5844,3.6355,3.6393,3.6393,3.6393,3.6393,3.6393,3.6393,3.6393,3.6393,3.6393,3.6393,3.6393,3.6393,3.6393,3.6393,3.6393,3.6393,3.6393,3.6393,3.6393,3.6393,3.6393,3.6393,3.6393,3.6393,3.6393,3.6393,3.6393,3.6393,3.6393,3.6393,3.6393,3.6456,3.6544,3.6544,3.6594,3.6669,3.6669,3.6669,3.6746,3.7198,3.7336,3.7424,3.7877,3.799,3.799,3.799,3.799,3.799,3.799,3.799,3.7764,3.6884,3.7484,3.8525,3.951,4.0731,4.1891,4.285,4.3016,4.3076,4.327,4.3135,4.3115,4.3429,4.3479,4.3509,4.3638,4.3628,4.3908,4.4581,4.5129,4.5743,4.642,4.6465,4.6704,4.7268,4.7309,4.7309,4.7309,4.7309,4.7309,4.7309,4.7309,4.7309,4.7309,4.7309,4.7309,4.7309,4.7309,4.7309,4.7309,4.7309,4.7309,4.7309,4.7309,4.7309,4.7309,4.7309,4.7309,4.7309,4.7309,4.7309,4.7309,3.4577,3.459,3.4603,3.469,3.508,3.5382,3.5382,3.583,3.6205,3.6268,3.6281,3.6318,3.6393,3.6393,3.6393,3.6393,3.6393,3.6393,3.6393,3.6393,3.6393,3.6393,3.6393,3.6393,3.6393,3.6393,3.6393,3.6393,3.6393,3.6393,3.6393,3.6393,3.6393,3.6393,3.6393,3.6393,3.6393,3.6393,3.6393,3.6393,3.6393,3.6393,3.6393,3.6393,3.6695,3.7097,3.7097,3.7387,3.7789,3.7789,3.7789,3.7801,3.7877,3.7889,3.7914,3.799,3.799,3.799,3.799,3.799,3.799,3.799,3.799,3.7965,3.7814,3.83,3.8848,3.901,4.0403,4.1649,4.1798,4.1829,4.2142,4.3135,4.2477,4.2387,4.3941,4.4162,4.4381,4.496,4.5035,4.5294,4.5956,4.6106,4.6446,4.7104,4.7164,4.7194,4.7309,4.7309,4.7309,4.7309,4.7309,4.7309,4.7309,4.7309,4.7309,4.7309,4.7309,4.7309,4.7309,4.7309,4.7309,4.7309,4.7309,4.7309,4.7309,4.7309,4.7309,4.7309,4.7309,4.7309,4.7309,4.7309,4.7309,4.7309,3.5093,3.5156,3.5255,3.5591,3.5855,3.5994,3.5994,3.623,3.6393,3.6393,3.6393,3.6393,3.6393,3.6393,3.6393,3.6393,3.6393,3.6393,3.6393,3.6393,3.6393,3.6393,3.6393,3.6393,3.6393,3.6393,3.6393,3.6393,3.6393,3.6393,3.6393,3.6393,3.6393,3.6393,3.6393,3.6393,3.6418,3.672,3.6846,3.6871,3.7173,3.7286,3.7286,3.7286,3.7437,3.7651,3.7651,3.7801,3.799,3.799,3.799,3.8065,3.8404,3.8504,3.8555,3.8856,3.8956,3.8956,3.8956,3.8956,3.8956,3.8956,3.8956,3.8956,3.8956,3.8916,3.9004,3.9335,4.0541,4.154,4.154,4.154,4.1715,4.2217,4.1867,4.181,4.262,4.3349,4.4173,4.5187,4.5623,4.5971,4.6271,4.6629,4.6984,4.7279,4.7309,4.7309,4.7309,4.7309,4.7309,4.7309,4.7309,4.7309,4.7309,4.7309,4.7309,4.7309,4.7309,4.7309,4.7309,4.7309,4.7309,4.7309,4.7309,4.7309,4.7309,4.7309,4.7309,4.7309,4.7309,4.7309,4.7309,4.7309,4.7309,4.7309]},{"header":{"parameterUnit":"m.s-1","parameterCategory":1,"la1":30.6,"la2":28.766,"lo1":-90.7593,"lo2":-88.6598,"dy":0.0162,"dx":0.0183,"nx":116,"ny":114,"refTime":"2024-02-08T18:00:00:Z","depth":0,"parameterNumber":3,"parameterNumberName":"V-component_of_WINDS"},"data":[0.0,0.0,0.0,0.0,0.0,0.0,0.0,0.0,0.0,0.0,0.0,0.0,0.0,0.0,0.0,0.0,0.0,0.0,0.0,0.0,0.0,0.0,0.0,0.0,0.0,0.0,0.0,0.0,0.0,0.0,0.0,0.0,0.0,0.0,0.0,0.0,0.0,0.0,0.0,0.0,0.0,0.0,0.0,0.0,0.0,0.0,0.0,0.0,0.0,0.0,0.0,0.0,0.0,0.0,0.0,0.0,0.0,0.0,0.0,0.0,0.0,0.0,0.0,0.0,0.0,0.0,0.0,0.0,0.0,0.0,0.0,0.0,0.0,0.0,0.0,0.0,0.0,0.0,0.0,0.0,0.0,0.0,0.0,0.0,0.0,0.0,0.0,0.0,0.0,0.0,0.0,0.0,0.0,0.0,0.0,0.0,0.0,0.0,0.0,0.0,0.0,0.0,0.0,0.0,0.0,0.0,0.0,0.0,0.0,0.0,0.0,0.0,0.0,0.0,0.0,0.0,0.0,0.0,0.0,0.0,0.0,0.0,0.0,0.0,0.0,0.0,0.0,0.0,0.0,0.0,0.0,0.0,0.0,0.0,0.0,0.0,0.0,0.0,0.0,0.0,0.0,0.0,0.0,0.0,0.0,0.0,0.0,0.0,0.0,0.0,0.0,0.0,0.0,0.0,0.0,0.0,0.0,0.0,0.0,0.0,0.0,0.0,0.0,0.0,0.0,0.0,0.0,0.0,0.0,0.0,0.0,0.0,0.0,0.0,0.0,0.0,0.0,0.0,0.0,0.0,0.0,0.0,0.0,0.0,0.0,0.0,0.0,0.0,0.0,0.0,0.0,0.0,0.0,0.0,0.0,0.0,0.0,0.0,0.0,0.0,0.0,0.0,0.0,0.0,0.0,0.0,0.0,0.0,0.0,0.0,0.0,0.0,0.0,0.0,0.0,0.0,0.0,0.0,0.0,0.0,0.0,0.0,0.0,0.0,0.0,0.0,0.0,0.0,0.0,0.0,0.0,0.0,0.0,0.0,0.0,0.0,0.0,0.0,0.0,0.0,0.0,0.0,0.0,0.0,0.0,0.0,0.0,0.0,0.0,0.0,0.0,0.0,0.0,0.0,0.0,0.0,0.0,0.0,0.0,0.0,0.0,0.0,0.0,0.0,0.0,0.0,0.0,0.0,0.0,0.0,0.0,0.0,0.0,0.0,0.0,0.0,0.0,0.0,0.0,0.0,0.0,0.0,0.0,0.0,0.0,0.0,0.0,0.0,0.0,0.0,0.0,0.0,0.0,0.0,0.0,0.0,0.0,0.0,0.0,0.0,0.0,0.0,0.0,0.0,0.0,0.0,0.0,0.0,0.0,0.0,0.0,0.0,0.0,0.0,0.0,0.0,0.0,0.0,0.0,0.0,0.0,0.0,0.0,0.0,0.0,0.0,0.0,0.0,0.0,0.0,0.0,0.0,0.0,0.0,0.0,0.0,0.0,0.0,0.0,0.0,0.0,0.0,0.0,0.0,0.0,0.0,0.0,0.0,0.0,0.0,0.0,0.0,0.0,0.0,0.0,0.0,0.0,0.0,0.0,0.0,0.0,0.0,0.0,0.0,0.0,0.0,0.0,0.0,0.0,0.0,0.0,0.0,0.0,0.0,0.0,0.0,0.0,0.0,0.0,0.0,0.0,0.0,0.0,0.0,0.0,0.0,0.0,0.0,0.0,0.0,0.0,0.0,0.0,0.0,0.0,0.0,0.0,0.0,0.0,0.0,0.0,0.0,0.0,0.0,0.0,0.0,0.0,0.0,0.0,0.0,0.0,0.0,0.0,0.0,0.0,0.0,0.0,0.0,0.0,0.0,0.0,0.0,0.0,0.0,0.0,0.0,0.0,0.0,0.0,0.0,0.0,0.0,0.0,0.0,0.0,0.0,0.0,0.0,0.0,0.0,0.0,0.0,0.0,0.0,0.0,0.0,0.0,0.0,0.0,0.0,0.0,0.0,0.0,0.0,0.0,0.0,0.0,0.0,0.0,0.0,0.0,0.0,0.0,0.0,0.0,0.0,0.0,0.0,0.0,0.0,0.0,0.0,0.0,0.0,0.0,0.0,0.0,0.0,0.0,0.0,0.0,0.0,0.0,0.0,0.0,0.0,0.0,0.0,0.0,0.0,0.0,0.0,0.0,0.0,0.0,0.0,0.0,0.0,0.0,0.0,0.0,0.0,0.0,0.0,0.0,0.0,0.0,0.0,0.0,0.0,0.0,0.0,0.0,0.0,0.0,0.0,0.0,0.0,0.0,0.0,0.0,0.0,0.0,0.0,0.0,0.0,0.0,0.0,0.0,0.0,0.0,0.0,0.0,0.0,0.0,0.0,0.0,0.0,0.0,0.0,0.0,0.0,0.0,0.0,0.0,0.0,0.0,0.0,0.0,0.0,0.0,0.0,0.0,0.0,0.0,0.0,0.0,0.0,0.0,0.0,0.0,0.0,0.0,0.0,0.0,0.0,0.0,0.0,0.0,0.0,0.0,0.0,0.0,0.0,0.0,0.0,0.0,0.0,0.0,0.0,0.0,0.0,0.0,0.0,0.0,0.0,0.0,0.0,0.0,0.0,0.0,0.0,0.0,0.0,0.0,0.0,0.0,0.0,0.0,0.0,0.0,0.0,0.0,0.0,0.0,0.0,0.0,0.0,0.0,0.0,0.0,0.0,0.0,0.0,0.0,0.0,0.0,0.0,0.0,0.0,0.0,0.0,0.0,0.0,0.0,0.0,0.0,0.0,0.0,0.0,0.0,0.0,0.0,0.0,0.0,0.0,0.0,0.0,0.0,0.0,0.0,0.0,0.0,0.0,0.0,0.0,0.0,0.0,0.0,0.0,0.0,0.0,0.0,0.0,0.0,0.0,0.0,0.0,0.0,0.0,0.0,0.0,0.0,0.0,0.0,0.0,0.0,0.0,0.0,0.0,0.0,0.0,0.0,0.0,0.0,0.0,0.0,0.0,0.0,0.0,0.0,0.0,0.0,0.0,0.0,0.0,0.0,0.0,0.0,0.0,0.0,0.0,0.0,0.0,0.0,0.0,0.0,0.0,0.0,0.0,0.0,0.0,0.0,0.0,0.0,0.0,0.0,0.0,0.0,0.0,0.0,0.0,0.0,0.0,0.0,0.0,0.0,0.0,0.0,0.0,0.0,0.0,0.0,0.0,0.0,0.0,0.0,0.0,0.0,0.0,0.0,0.0,0.0,0.0,0.0,0.0,0.0,0.0,0.0,0.0,0.0,0.0,0.0,0.0,0.0,0.0,0.0,0.0,0.0,0.0,0.0,0.0,0.0,0.0,0.0,0.0,0.0,0.0,0.0,0.0,0.0,0.0,0.0,0.0,0.0,0.0,0.0,0.0,0.0,0.0,0.0,0.0,0.0,0.0,0.0,0.0,0.0,0.0,0.0,0.0,0.0,0.0,0.0,0.0,0.0,0.0,0.0,0.0,0.0,0.0,0.0,0.0,0.0,0.0,0.0,0.0,0.0,0.0,0.0,0.0,0.0,0.0,0.0,0.0,0.0,0.0,0.0,0.0,0.0,0.0,0.0,0.0,0.0,0.0,0.0,0.0,0.0,0.0,0.0,0.0,0.0,0.0,0.0,0.0,0.0,0.0,0.0,0.0,0.0,0.0,0.0,0.0,0.0,0.0,0.0,0.0,0.0,0.0,0.0,0.0,0.0,0.0,0.0,0.0,0.0,0.0,0.0,0.0,0.0,0.0,0.0,0.0,0.0,0.0,0.0,0.0,0.0,0.0,0.0,0.0,0.0,0.0,0.0,0.0,0.0,0.0,0.0,0.0,0.0,0.0,0.0,0.0,0.0,0.0,0.0,0.0,0.0,0.0,0.0,0.0,0.0,0.0,0.0,0.0,0.0,0.0,0.0,0.0,0.0,0.0,0.0,0.0,0.0,0.0,0.0,0.0,0.0,0.0,0.0,0.0,0.0,0.0,0.0,0.0,0.0,0.0,0.0,0.0,0.0,0.0,0.0,0.0,0.0,0.0,0.0,0.0,0.0,0.0,0.0,0.0,0.0,0.0,0.0,0.0,0.0,0.0,0.0,0.0,0.0,0.0,0.0,0.0,0.0,0.0,0.0,0.0,0.0,0.0,0.0,0.0,0.0,0.0,0.0,0.0,0.0,0.0,0.0,0.0,0.0,0.0,0.0,0.0,0.0,0.0,0.0,0.0,0.0,0.0,0.0,0.0,0.0,0.0,0.0,0.0,0.0,0.0,0.0,0.0,0.0,0.0,0.0,0.0,0.0,0.0,0.0,0.0,0.0,0.0,0.0,0.0,0.0,0.0,0.0,0.0,0.0,0.0,0.0,0.0,0.0,0.0,0.0,0.0,0.0,0.0,0.0,0.0,0.0,0.0,0.0,0.0,0.0,0.0,0.0,0.0,0.0,0.0,0.0,0.0,0.0,0.0,0.0,0.0,0.0,0.0,0.0,0.0,0.0,0.0,0.0,0.0,0.0,0.0,0.0,0.0,0.0,0.0,0.0,0.0,0.0,0.0,0.0,0.0,0.0,0.0,0.0,0.0,0.0,0.0,0.0,0.0,0.0,0.0,0.0,0.0,0.0,0.0,0.0,0.0,0.0,0.0,0.0,0.0,0.0,0.0,0.0,0.0,0.0,0.0,0.0,0.0,0.0,0.0,0.0,0.0,0.0,0.0,0.0,0.0,0.0,0.0,0.0,0.0,0.0,0.0,0.0,0.0,0.0,0.0,0.0,0.0,0.0,0.0,0.0,0.0,0.0,0.0,0.0,0.0,0.0,0.0,0.0,0.0,0.0,0.0,0.0,0.0,0.0,0.0,0.0,0.0,0.0,0.0,0.0,0.0,0.0,0.0,0.0,0.0,0.0,0.0,0.0,0.0,0.0,0.0,0.0,0.0,0.0,0.0,0.0,0.0,0.0,0.0,0.0,0.0,0.0,0.0,0.0,0.0,0.0,0.0,0.0,0.0,0.0,0.0,0.0,0.0,0.0,0.0,0.0,0.0,0.0,0.0,0.0,0.0,0.0,0.0,0.0,0.0,0.0,0.0,0.0,0.0,0.0,0.0,0.0,0.0,0.0,0.0,0.0,0.0,0.0,0.0,0.0,0.0,0.0,0.0,0.0,0.0,0.0,0.0,0.0,0.0,0.0,0.0,0.0,0.0,0.0,0.0,0.0,0.0,0.0,0.0,0.0,0.0,0.0,0.0,0.0,0.0,0.0,0.0,0.0,0.0,0.0,0.0,0.0,0.0,0.0,0.0,0.0,0.0,0.0,0.0,0.0,0.0,0.0,0.0,0.0,0.0,0.0,0.0,0.0,0.0,0.0,0.0,0.0,0.0,0.0,0.0,0.0,0.0,0.0,0.0,0.0,0.0,0.0,0.0,0.0,0.0,0.0,0.0,0.0,0.0,0.0,0.0,0.0,0.0,0.0,0.0,0.0,0.0,0.0,0.0,0.0,0.0,0.0,0.0,0.0,0.0,0.0,0.0,0.0,0.0,0.0,0.0,0.0,0.0,0.0,0.0,0.0,0.0,0.0,0.0,0.0,0.0,0.0,0.0,0.0,0.0,0.0,0.0,0.0,0.0,0.0,0.0,0.0,0.0,0.0,0.0,0.0,0.0,0.0,0.0,0.0,0.0,0.0,0.0,0.0,0.0,0.0,0.0,0.0,0.0,0.0,0.0,0.0,0.0,0.0,0.0,0.0,0.0,0.0,0.0,0.0,0.0,0.0,0.0,0.0,0.0,0.0,0.0,0.0,0.0,0.0,0.0,0.0,0.0,0.0,0.0,0.0,0.0,0.0,0.0,0.0,0.0,0.0,0.0,0.0,0.0,0.0,0.0,0.0,0.0,0.0,0.0,0.0,0.0,0.0,0.0,0.0,0.0,0.0,0.0,0.0,0.0,0.0,0.0,0.0,0.0,0.0,0.0,0.0,0.0,0.0,0.0,0.0,0.0,0.0,0.0,0.0,0.0,0.0,0.0,0.0,0.0,0.0,0.0,0.0,0.0,0.0,0.0,0.0,0.0,0.0,0.0,0.0,0.0,0.0,0.0,0.0,0.0,1.7999,0.0,0.0,0.0,0.0,0.0,0.0,0.0,0.0,0.0,0.0,0.0,0.0,0.0,0.0,0.0,0.0,0.0,0.0,0.0,0.0,0.0,0.0,0.0,0.0,0.0,0.0,0.0,1.9798,1.9798,1.9798,1.9798,1.993,2.0226,2.0226,2.0496,2.1074,2.1074,2.1344,2.1882,2.1882,2.2013,2.2277,0.0,0.0,0.0,0.0,0.0,0.0,0.0,0.0,0.0,0.0,0.0,0.0,0.0,0.0,0.0,0.0,0.0,0.0,0.0,0.0,0.0,0.0,0.0,0.0,0.0,0.0,0.0,0.0,0.0,0.0,0.0,0.0,0.0,0.0,0.0,0.0,0.0,0.0,0.0,0.0,0.0,0.0,0.0,0.0,0.0,0.0,0.0,0.0,0.0,0.0,0.0,0.0,0.0,0.0,0.0,0.0,0.0,0.0,0.0,0.0,0.0,0.0,0.0,0.0,0.0,0.0,0.0,0.0,0.0,0.0,0.0,0.0,0.0,0.0,1.7999,0.0,0.0,0.0,0.0,0.0,0.0,0.0,0.0,0.0,0.0,0.0,0.0,0.0,0.0,0.0,0.0,0.0,0.0,0.0,0.0,0.0,0.0,0.0,1.9798,1.9798,1.9798,1.9798,1.9798,1.9798,1.9899,2.0175,2.0686,2.0786,2.1087,2.1626,2.1638,2.1895,2.2433,2.2433,2.2664,2.31,0.0,0.0,0.0,0.0,0.0,0.0,0.0,0.0,0.0,0.0,0.0,0.0,0.0,0.0,0.0,0.0,0.0,0.0,0.0,0.0,0.0,0.0,0.0,0.0,0.0,0.0,0.0,0.0,0.0,0.0,0.0,0.0,0.0,0.0,0.0,0.0,0.0,0.0,0.0,0.0,0.0,0.0,0.0,0.0,0.0,0.0,0.0,0.0,0.0,0.0,0.0,0.0,0.0,0.0,0.0,0.0,0.0,0.0,0.0,0.0,0.0,0.0,0.0,0.0,0.0,0.0,0.0,1.9965,1.9873,1.9603,2.0774,2.1202,2.0927,1.904,1.8327,1.8472,0.0,0.0,0.0,0.0,0.0,0.0,0.0,0.0,0.0,0.0,0.0,0.0,0.0,0.0,0.0,0.0,0.0,0.0,0.0,0.0,0.0,0.0,1.9798,1.9798,1.9798,1.9798,1.9798,1.9798,2.0295,2.0623,2.0698,2.115,2.1658,2.2176,2.2182,2.2458,2.2987,2.2987,2.3032,2.31,2.31,2.31,2.31,0.0,0.0,0.0,0.0,0.0,0.0,0.0,0.0,0.0,0.0,0.0,0.0,0.0,0.0,0.0,0.0,0.0,0.0,0.0,0.0,0.0,0.0,0.0,0.0,0.0,0.0,0.0,0.0,0.0,0.0,0.0,0.0,0.0,0.0,0.0,0.0,0.0,0.0,0.0,0.0,0.0,0.0,0.0,0.0,2.3063,2.2944,0.0,0.0,0.0,0.0,0.0,0.0,0.0,0.0,0.0,0.0,0.0,0.0,0.0,2.2657,2.2435,2.3057,2.2846,2.1833,2.2577,2.2122,2.0611,2.0786,2.0395,1.9569,1.9258,0.0,2.0356,1.9498,0.0,0.0,0.0,0.0,0.0,0.0,0.0,0.0,0.0,0.0,0.0,0.0,0.0,0.0,0.0,0.0,0.0,0.0,0.0,0.0,0.0,2.0144,2.0358,2.0358,2.0636,2.0804,2.0804,2.1025,2.1281,2.1588,2.182,2.2194,2.2739,2.3187,2.3741,2.4395,2.3987,2.3981,2.4374,2.3508,2.3342,2.3745,2.3298,2.31,2.3055,2.2233,0.0,0.0,0.0,0.0,0.0,0.0,0.0,0.0,0.0,0.0,0.0,0.0,0.0,0.0,0.0,0.0,0.0,0.0,0.0,0.0,0.0,0.0,0.0,0.0,0.0,0.0,0.0,0.0,0.0,0.0,0.0,0.0,0.0,0.0,0.0,0.0,0.0,0.0,0.0,2.31,2.31,2.31,2.31,2.31,0.0,0.0,0.0,0.0,0.0,0.0,0.0,0.0,0.0,2.3547,2.3875,2.4003,2.3875,2.377,2.3451,2.2937,2.3318,2.2794,2.1507,2.2332,2.2156,2.1198,2.0931,2.1072,2.1352,1.9903,1.9296,1.9296,0.0,0.0,0.0,0.0,1.9296,1.9296,0.0,0.0,0.0,0.0,0.0,0.0,0.0,0.0,0.0,0.0,0.0,0.0,2.0276,2.0883,2.1206,2.102,2.1694,2.1981,2.1596,2.1836,2.2082,2.2297,2.2624,2.2902,2.3095,2.3884,2.4567,2.5119,2.4766,2.4667,2.4788,2.399,2.3746,2.3965,2.3525,2.3246,2.3063,2.246,2.2214,0.0,0.0,0.0,0.0,0.0,0.0,0.0,0.0,0.0,0.0,0.0,0.0,0.0,0.0,0.0,0.0,0.0,0.0,0.0,0.0,0.0,0.0,0.0,0.0,0.0,0.0,0.0,0.0,0.0,0.0,0.0,0.0,0.0,0.0,0.0,0.0,0.0,0.0,2.31,2.31,2.31,2.3241,2.3333,0.0,0.0,0.0,0.0,0.0,0.0,2.4197,2.4578,2.4796,2.4796,2.4929,2.5088,2.5226,2.4729,2.4539,2.4684,2.4684,2.4151,2.3204,2.4316,2.427,2.3314,2.2974,2.2813,2.2644,2.0504,1.9628,1.9628,1.9628,1.9628,1.9628,1.9628,1.9628,1.9628,0.0,0.0,0.0,0.0,0.0,0.0,0.0,0.0,0.0,0.0,0.0,2.0973,2.1544,2.2193,2.2323,2.1614,2.281,2.2994,2.1603,2.2638,2.3005,2.2331,2.3524,2.3851,2.3123,2.3884,2.4321,2.4364,2.5014,2.4617,2.3243,2.4442,2.4336,2.318,2.3723,2.3637,2.31,2.3063,2.304,2.304,0.0,0.0,0.0,0.0,0.0,0.0,0.0,0.0,0.0,0.0,0.0,0.0,0.0,0.0,0.0,0.0,0.0,0.0,0.0,0.0,0.0,0.0,0.0,0.0,0.0,0.0,0.0,0.0,0.0,0.0,0.0,0.0,0.0,0.0,0.0,0.0,0.0,0.0,0.0,2.31,2.3607,0.0,0.0,0.0,0.0,2.4708,2.4733,2.4758,2.4758,2.4791,2.4796,2.4796,2.5289,2.5833,2.6411,2.6874,2.7365,2.787,2.787,2.7339,2.6369,2.6452,2.5964,2.5068,2.5042,2.5034,2.4801,2.1777,2.0527,2.0527,2.0527,2.0527,2.0527,2.0527,2.0527,2.0527,0.0,0.0,0.0,0.0,0.0,0.0,0.0,0.0,2.0232,2.0452,2.0664,2.0882,2.1094,2.2034,2.2717,2.2926,2.3689,2.4127,2.4075,2.4464,2.4359,2.3629,2.4496,2.5304,2.5915,2.6218,2.6792,2.7713,2.7462,2.7025,2.6435,2.5956,2.544,2.4892,2.4632,2.4402,2.4156,2.3401,2.31,2.31,2.31,2.2929,0.0,0.0,0.0,0.0,0.0,0.0,0.0,0.0,0.0,0.0,0.0,0.0,0.0,0.0,0.0,0.0,0.0,0.0,0.0,0.0,0.0,0.0,0.0,0.0,0.0,0.0,0.0,0.0,0.0,0.0,0.0,0.0,0.0,0.0,0.0,0.0,0.0,2.4148,2.4382,0.0,2.4503,2.4691,2.4796,2.4796,2.5473,2.5891,2.5891,2.6553,2.6912,2.6912,2.7109,2.7306,2.7537,2.7717,2.7908,2.81,2.81,2.7564,2.659,2.659,2.6091,2.52,2.52,2.478,2.4019,2.2918,2.2901,2.3565,2.3565,2.3565,2.3565,2.3565,2.3565,2.3565,0.0,0.0,0.0,0.0,0.0,0.0,0.0,0.0,2.0521,2.0751,2.0972,2.1352,2.201,2.2821,2.3478,2.3893,2.4878,2.5363,2.5112,2.5517,2.5543,2.5027,2.5669,2.6722,2.8177,2.7943,2.8256,2.9201,2.9149,2.8827,2.8294,2.798,2.7371,2.6546,2.605,2.5557,2.5013,2.4068,2.3672,2.3672,2.3672,2.3567,2.3416,0.0,0.0,0.0,0.0,0.0,0.0,0.0,0.0,0.0,0.0,0.0,0.0,0.0,0.0,0.0,0.0,0.0,0.0,0.0,0.0,0.0,0.0,0.0,0.0,0.0,0.0,0.0,0.0,0.0,0.0,0.0,0.0,0.0,0.0,0.0,2.4398,2.4758,2.4954,2.5151,2.5352,2.554,2.5716,2.5895,2.6611,2.7043,2.7043,2.7708,2.81,2.81,2.8276,2.8367,2.8367,2.8565,2.8674,2.8674,2.8674,2.8322,2.7678,2.7678,2.7344,2.6749,2.6749,2.6326,2.5625,2.5625,2.5842,2.6047,2.4627,2.4092,2.4121,2.4486,2.4408,2.4142,0.0,0.0,0.0,0.0,0.0,0.0,0.0,2.21,2.1911,2.2586,2.2131,2.2482,2.4362,2.4669,2.4653,2.4476,2.6366,2.6666,2.4572,2.577,2.655,2.6495,2.7044,2.8047,2.9596,2.8883,2.851,2.8525,2.9925,2.9849,2.8458,3.0346,3.0055,2.7949,2.7973,2.7144,2.5686,2.5167,2.4932,2.4907,2.4837,2.4498,2.4079,0.0,0.0,0.0,0.0,0.0,0.0,0.0,0.0,0.0,0.0,0.0,0.0,0.0,0.0,0.0,0.0,0.0,0.0,0.0,0.0,0.0,0.0,0.0,0.0,0.0,0.0,0.0,0.0,0.0,0.0,0.0,0.0,0.0,2.4829,2.4821,2.4842,2.4871,2.5339,2.5883,2.6487,2.7018,2.7541,2.805,2.8122,2.8125,2.8125,2.8138,2.815,2.815,2.8656,2.8922,2.8922,2.9506,2.9801,2.9801,2.9801,2.9801,2.9801,2.9801,2.9801,2.9801,2.9801,2.9782,2.9753,2.9753,2.9077,2.7659,2.3689,2.2121,2.2214,2.3264,2.2991,2.2245,0.0,0.0,0.0,0.0,0.0,0.0,0.0,2.1458,2.1271,2.1887,2.2659,2.3347,2.3888,2.4738,2.5462,2.5954,2.6486,2.6984,2.7389,2.7801,2.8236,2.87,2.8323,2.8768,3.0224,3.0512,3.0893,3.136,3.2251,3.2134,3.1136,3.1677,3.0898,2.9088,2.9823,2.9509,2.8421,2.8264,2.7981,2.7465,2.5563,2.4708,2.4603,0.0,0.0,0.0,0.0,0.0,0.0,0.0,0.0,0.0,0.0,0.0,0.0,0.0,0.0,0.0,0.0,0.0,0.0,0.0,0.0,0.0,0.0,0.0,0.0,0.0,0.0,0.0,0.0,0.0,0.0,0.0,0.0,2.5879,2.5435,2.5385,2.5686,2.6502,2.6737,2.706,2.7616,2.7795,2.7946,2.8088,2.8455,2.8671,2.8671,2.9092,2.9327,2.9327,2.9478,2.9543,2.9543,2.9716,2.9801,2.9801,2.9801,2.9801,2.9801,2.9801,2.9801,2.9801,2.9801,2.9336,2.8567,2.8567,2.7916,2.6993,2.7441,2.7125,2.643,2.6731,2.6651,2.6562,0.0,0.0,0.0,0.0,0.0,0.0,0.0,2.1394,2.1299,2.1649,2.2624,2.3498,2.4059,2.497,2.5825,2.6505,2.7058,2.7595,2.8103,2.8932,0.0,0.0,0.0,3.0497,3.1316,3.1981,3.2527,3.2923,3.3597,3.3655,3.3175,3.3453,3.2807,3.138,3.1355,3.0791,2.983,2.9194,2.8727,2.8299,2.6553,2.5565,2.5155,2.5423,2.5222,2.4829,2.5055,2.4992,2.4796,2.4796,0.0,0.0,0.0,0.0,0.0,0.0,0.0,0.0,0.0,0.0,0.0,0.0,0.0,0.0,0.0,0.0,0.0,0.0,0.0,0.0,0.0,0.0,0.0,0.0,2.7019,2.6717,2.636,2.631,2.6637,2.7528,2.7641,2.7855,2.8389,2.8439,2.8539,2.88,2.9104,2.928,2.928,2.9616,2.9801,2.9801,2.9801,2.9801,2.9801,2.9801,2.9801,2.9801,2.9801,2.9801,2.9801,2.9801,2.9801,0.0,2.9801,2.9414,2.8806,2.8806,2.8158,0.0,0.0,0.0,0.0,0.0,2.7703,2.8195,0.0,0.0,0.0,0.0,0.0,0.0,0.0,2.1756,2.1817,2.1817,2.2524,2.3487,2.467,2.5415,2.6044,2.6578,2.7843,2.838,2.7876,2.9518,0.0,3.0605,3.1824,3.2497,3.2497,3.323,3.3612,3.3612,3.4278,3.4615,3.4622,3.5108,3.4856,3.3947,3.2629,3.1585,3.0721,2.9357,2.8669,2.8471,2.789,2.6904,2.5845,2.6323,2.5866,2.5042,2.5523,2.5398,2.4992,2.4992,0.0,0.0,0.0,0.0,0.0,0.0,0.0,0.0,0.0,0.0,0.0,0.0,0.0,0.0,0.0,0.0,0.0,0.0,0.0,0.0,0.0,0.0,0.0,0.0,2.7593,2.7487,2.7613,2.7537,2.7666,2.8125,2.8188,2.8392,2.8947,2.8998,2.922,2.9754,2.9801,2.9801,2.9801,0.0,0.0,0.0,0.0,2.9917,2.9977,2.9977,2.9977,2.9977,2.9977,2.9977,2.9977,2.9977,2.9977,2.9977,2.9977,2.9977,2.9977,2.9977,2.9379,2.8352,2.7153,2.6678,2.6698,2.6811,2.7392,2.8126,0.0,0.0,0.0,0.0,0.0,0.0,0.0,2.2152,2.2509,2.2509,2.3979,2.5136,2.5402,2.6509,2.7253,2.7374,2.8138,2.8988,2.985,0.0,3.0732,3.1271,3.2071,3.2497,3.2497,3.3687,3.4308,3.4308,3.4989,3.531,3.5294,3.4616,3.4194,3.3987,3.3696,3.3468,3.3288,3.2997,3.2172,3.1018,3.0157,2.8667,2.6934,2.6625,2.6361,2.6176,2.6285,2.626,2.6164,2.6164,2.6164,2.6088,2.5607,0.0,0.0,0.0,0.0,0.0,0.0,0.0,0.0,0.0,0.0,0.0,0.0,0.0,0.0,0.0,0.0,0.0,0.0,0.0,0.0,2.8249,2.8293,2.8599,2.9503,2.9026,2.8631,2.8722,2.8756,2.8982,2.9566,2.9628,2.9666,2.9789,2.9801,2.9801,2.9801,2.9801,2.9993,3.0435,3.0447,3.0648,3.1095,3.1095,3.1095,3.1095,0.0,0.0,3.1095,3.1095,3.1095,3.1095,3.1095,3.1095,3.1095,3.1095,3.0961,3.0565,2.857,2.7783,2.7906,2.8819,2.8708,2.8235,0.0,0.0,0.0,0.0,0.0,0.0,0.0,2.1789,2.2197,2.2146,2.39,2.5122,2.5056,2.6579,2.7606,2.7606,2.8216,2.9273,0.0,3.0695,3.0792,3.1466,3.2467,3.2998,3.2998,3.4315,3.5004,3.5004,3.534,3.5496,3.5488,3.4986,3.475,3.4725,3.4219,3.4001,3.3936,3.3005,3.217,3.1393,3.0158,2.913,2.8231,2.7269,2.6738,2.6508,2.6508,2.6508,2.6508,2.6508,2.6508,2.6457,2.6151,2.6051,2.6,0.0,0.0,0.0,0.0,0.0,0.0,0.0,0.0,0.0,0.0,0.0,0.0,0.0,0.0,2.7782,2.8051,0.0,2.8439,2.948,2.9123,2.9079,3.0148,2.9753,2.9355,2.9355,2.9355,2.9478,2.9767,2.9801,2.9801,2.9801,3.0043,3.0206,3.0206,3.0444,3.0731,3.0997,3.0997,3.1135,3.1396,3.1396,3.1396,3.1396,3.1396,3.1396,3.1396,3.1396,3.1396,3.1396,3.1396,3.1396,3.1396,3.1396,3.1396,3.1283,3.0183,2.9749,2.981,3.0391,3.0238,2.983,0.0,0.0,0.0,0.0,0.0,0.0,0.0,2.1498,2.1865,2.1804,2.3588,2.4838,2.4713,2.6429,2.7645,2.7779,2.8171,0.0,0.0,3.0695,3.068,3.1466,3.2781,3.3507,3.3507,3.4808,3.5496,3.5496,3.5496,3.5496,3.5496,3.531,3.5303,3.5455,3.4268,3.3825,3.3885,3.2195,3.137,3.1094,2.9858,2.9268,2.902,2.7889,2.7152,2.6756,2.6913,2.6782,2.6512,2.6684,2.6632,2.6508,2.6508,2.6508,2.6508,2.6508,2.6508,0.0,0.0,0.0,0.0,0.0,0.0,0.0,0.0,0.0,2.712,2.7595,2.7914,2.8251,2.8707,2.8732,2.9116,3.0499,2.984,2.9428,3.0187,3.0001,2.9801,2.9801,2.9801,2.9801,2.9801,2.9892,2.9965,2.9965,3.0447,3.0761,3.0761,3.1173,3.1446,3.1549,3.156,3.161,3.1723,3.1723,3.1723,3.1723,3.1723,3.1723,3.1723,3.1723,3.1723,3.1723,3.1723,3.1723,3.1723,3.1723,3.1723,3.1723,3.1723,3.1723,3.1698,3.1484,3.1396,3.1396,0.0,0.0,0.0,0.0,0.0,0.0,0.0,0.0,2.2564,2.2499,2.4252,2.5466,2.54,2.6714,2.7833,2.8434,2.8013,0.0,3.0485,3.0035,3.0238,3.1451,3.2781,3.3507,3.3507,3.4808,3.5496,3.5496,3.5496,3.5496,3.548,3.4585,3.4635,3.5423,3.3581,3.3223,3.3927,3.2899,3.196,3.1176,3.1012,2.986,2.8234,2.807,2.7838,2.767,2.8435,2.7761,2.6607,2.7317,2.7087,2.6508,2.6508,2.6508,2.6508,2.6508,0.0,2.6508,2.6508,2.7023,2.7777,2.8636,2.8206,2.7827,0.0,0.0,2.8532,2.7843,2.8683,2.9613,2.9805,2.9546,2.9557,3.0312,3.0224,3.0012,2.9881,2.9831,2.9801,2.9801,2.9801,2.9801,2.9801,3.0221,3.051,3.051,3.1009,3.1308,3.1308,3.1371,3.1622,3.2091,3.2116,3.2365,3.2901,3.2914,3.2914,3.2914,3.2914,3.2914,3.2914,3.2914,3.2914,3.2914,3.2914,3.2914,3.2914,3.2914,3.2914,3.2914,3.2914,3.2914,3.2788,3.1773,3.1396,3.1396,0.0,0.0,0.0,0.0,0.0,0.0,0.0,0.0,0.0,2.2032,2.4105,2.543,2.4968,2.6527,2.7869,2.8547,0.0,0.0,3.0372,2.9937,3.0163,3.1444,3.2781,3.3507,3.3507,3.4808,3.5496,3.5496,3.5496,3.5496,3.5488,3.5075,3.4774,3.4585,3.3788,3.3328,3.3119,3.2186,3.1563,3.1152,3.0614,2.9775,2.8862,2.8862,2.8387,2.7687,2.7579,2.7087,0.0,0.0,2.6782,2.6508,2.6508,2.6508,2.6508,2.6508,2.6508,0.0,2.6508,2.6748,2.7204,0.0,2.762,2.7351,2.8692,2.8486,2.8035,2.8144,2.9352,3.0175,2.9491,3.0081,3.0711,0.0,3.0355,3.0121,3.0547,3.0139,2.9927,3.0221,3.0269,3.0269,3.0269,3.0746,3.1072,3.1072,3.1562,3.1863,3.1863,3.22,3.2489,3.2715,3.2727,3.284,3.3102,3.3102,3.3102,3.3102,3.3102,3.3102,3.3102,3.3102,3.3102,3.3102,3.3102,3.3102,3.3102,3.3102,3.3102,3.3102,3.3102,3.3102,3.304,3.2575,3.2386,3.2386,0.0,0.0,0.0,0.0,0.0,0.0,0.0,0.0,0.0,0.0,2.3873,2.5166,2.4785,2.6265,2.7486,0.0,0.0,0.0,0.0,2.9743,3.0095,3.1189,3.2519,3.3305,3.3507,3.4622,3.531,3.5496,3.5496,3.5496,3.5496,3.5496,3.4961,3.3993,3.3731,3.3092,3.215,3.1208,3.0723,3.0515,2.9834,2.9261,2.8829,2.8829,2.8217,2.7351,2.7229,2.6888,0.0,0.0,2.6684,2.6508,2.6508,2.6508,2.6508,2.6508,2.6508,2.6508,2.6508,2.6666,0.0,2.7546,2.7263,2.7193,2.8549,2.8218,2.7783,2.8282,2.9587,3.0362,2.9485,3.0295,3.1114,3.1184,3.0409,3.0037,3.0724,3.0362,3.0158,3.055,3.0851,3.105,3.105,3.1388,3.1625,3.1625,3.2139,3.2453,3.2453,3.2866,3.3102,3.3102,3.3102,3.3102,3.3102,3.3102,3.3102,3.3102,3.3102,3.3102,3.3102,3.3102,3.3102,3.3102,3.3102,3.3102,3.3102,3.3102,3.3102,3.3102,3.3102,3.3102,3.3102,3.3102,3.3102,3.3102,0.0,0.0,0.0,0.0,0.0,0.0,0.0,0.0,0.0,0.0,0.0,0.0,0.0,2.6067,2.6537,0.0,0.0,0.0,0.0,2.9249,2.9877,3.05,3.1809,3.2834,3.3492,3.4181,3.4847,3.5496,3.5496,3.5496,3.5496,3.5496,3.4961,3.3967,3.3057,3.2123,3.118,3.0231,2.9504,2.8969,2.8932,2.8307,2.7359,2.7359,2.7024,2.6748,2.8347,0.0,0.0,0.0,2.7145,2.6508,2.6508,2.6508,0.0,2.6508,2.6508,2.6508,2.6508,0.0,2.767,2.7687,2.7678,2.7815,2.8379,2.849,2.8404,2.8154,2.9243,3.0246,3.0331,3.0084,3.0142,3.105,3.0409,2.9811,2.984,3.0276,3.0575,3.06,3.1526,3.2154,0.0,3.2167,3.2179,3.2179,3.2727,3.3077,3.3077,3.309,3.3102,3.3102,3.3102,3.3102,3.3102,3.3102,3.3102,3.3102,3.3102,3.3102,3.3102,3.3102,3.3102,3.3102,3.3102,3.3102,3.3102,3.3102,3.3102,3.3102,3.3102,3.3102,3.3102,3.3102,3.3102,3.3102,0.0,0.0,0.0,0.0,0.0,0.0,0.0,0.0,0.0,0.0,0.0,0.0,0.0,0.0,0.0,0.0,0.0,0.0,0.0,2.8801,2.94,3.044,3.136,3.2146,3.2819,3.3492,3.3956,3.4173,3.4614,3.4832,3.4847,3.5295,3.4961,3.3967,3.3022,3.1883,3.0603,2.9614,2.8881,2.8367,2.8367,2.7946,2.7298,2.7298,2.6968,2.6564,0.0,0.0,0.0,0.0,2.6714,2.6508,2.6508,0.0,2.7106,2.7453,2.7311,2.7031,2.7031,2.7228,2.7433,2.7433,2.7692,2.8015,2.8194,2.8516,2.8735,2.8649,2.9823,3.0682,3.0111,3.0404,3.063,3.0327,3.0008,2.9801,2.9801,3.0259,3.0736,3.1085,3.1765,0.0,0.0,0.0,0.0,3.279,3.2989,3.3102,3.3102,3.3102,3.3102,3.3102,3.3454,3.3632,3.3632,3.3985,3.4162,3.4162,3.4162,3.4162,3.4162,3.4162,3.4162,3.4162,3.4162,3.4162,3.4162,3.4162,3.4162,3.4162,3.4162,3.4162,3.4162,3.4162,3.3935,3.3581,0.0,0.0,0.0,0.0,0.0,0.0,0.0,0.0,0.0,0.0,0.0,0.0,0.0,0.0,0.0,0.0,0.0,0.0,0.0,0.0,2.8683,2.9775,3.0425,3.1043,3.1693,3.2653,3.3108,3.3038,3.3779,3.4143,3.4143,3.4577,3.4107,3.2832,3.2227,3.1073,2.9536,2.8893,2.8427,2.8075,2.7896,2.7604,2.7273,2.7094,2.6792,0.0,0.0,0.0,0.0,2.6508,2.6508,2.6524,2.6725,2.7148,2.7616,2.777,2.7717,2.7541,2.7352,2.7437,2.7591,2.7591,2.7855,2.815,2.8339,2.8656,2.896,2.9183,3.0014,3.052,2.9914,3.0289,3.0491,2.9895,2.9801,2.9801,2.9801,3.0432,3.1012,3.1359,3.2051,3.2667,0.0,0.0,0.0,3.3102,3.3102,3.3102,3.3102,3.328,3.338,3.338,3.3909,3.4187,3.4187,3.4539,3.4703,3.4703,3.4703,3.4703,3.4703,3.4703,3.4703,3.4703,3.4703,3.4703,3.4703,3.4703,3.4703,3.4703,3.4703,3.4703,3.4703,3.4703,3.4477,3.411,0.0,0.0,0.0,0.0,0.0,0.0,0.0,0.0,0.0,0.0,0.0,0.0,0.0,0.0,0.0,0.0,0.0,0.0,0.0,0.0,0.0,2.8507,2.903,2.9594,3.0191,3.1597,3.2239,3.2045,3.2902,3.3324,3.3324,3.3354,3.2451,3.0806,3.0756,2.9765,2.8132,2.8077,2.8037,2.7971,2.7453,2.7261,2.7198,2.6688,0.0,0.0,0.0,0.0,0.0,0.0,2.6508,2.6587,2.7123,2.7654,2.7971,2.7516,2.772,2.7987,2.7516,2.7745,2.8138,2.8138,2.8163,2.8326,2.8822,2.8947,2.9107,2.9679,2.9801,2.9801,0.0,0.0,2.9801,2.9801,2.9801,2.9814,2.9839,3.0743,3.1409,0.0,0.0,0.0,0.0,0.0,0.0,3.314,0.0,3.314,3.314,3.3657,3.3935,3.3935,3.4463,3.4741,3.4741,3.4766,3.4791,3.4791,3.4791,3.4791,3.4791,3.4791,3.4791,3.4791,3.4791,3.4791,3.4791,3.4791,3.4791,3.4791,3.4791,3.4791,3.4791,3.4791,3.4766,3.4665,0.0,0.0,0.0,0.0,0.0,0.0,0.0,0.0,0.0,0.0,0.0,0.0,0.0,0.0,0.0,0.0,0.0,0.0,0.0,0.0,0.0,0.0,0.0,0.0,0.0,0.0,0.0,0.0,0.0,3.0881,3.0895,3.1403,3.1394,3.0915,3.0175,2.9353,2.8504,2.7798,2.7273,2.6893,0.0,2.67,2.6688,0.0,0.0,0.0,0.0,0.0,0.0,0.0,0.0,2.6587,2.7123,2.739,2.762,2.8301,2.8314,2.815,2.8417,2.8593,2.8706,2.8706,2.9029,2.9402,2.9541,2.9569,2.9616,2.9776,2.9801,2.9801,0.0,0.0,0.0,2.9801,2.9801,0.0,3.0334,3.0982,0.0,3.1941,0.0,3.3102,3.3102,3.3102,0.0,0.0,3.3707,3.3707,3.3707,3.42,3.449,3.449,3.5018,3.5306,3.5306,3.5742,3.5967,3.5967,3.5967,3.5967,3.5967,3.5967,3.5967,3.5967,3.5967,3.5967,3.5967,3.5967,3.5967,3.5967,3.5967,3.5967,3.5967,3.5967,3.568,3.5281,0.0,0.0,0.0,0.0,0.0,0.0,0.0,0.0,0.0,0.0,0.0,0.0,0.0,0.0,0.0,0.0,0.0,0.0,0.0,0.0,0.0,0.0,0.0,0.0,0.0,0.0,0.0,0.0,0.0,0.0,0.0,2.9464,2.9562,2.9198,2.886,2.8349,2.7695,0.0,0.0,0.0,0.0,0.0,0.0,0.0,0.0,0.0,0.0,0.0,0.0,0.0,0.0,2.6893,2.7207,2.7616,2.8075,2.8442,2.869,2.8853,2.8885,2.9095,2.9283,2.9283,2.9553,2.9801,2.9801,2.9801,2.9801,2.9801,2.9801,0.0,2.9801,2.9801,0.0,0.0,0.0,0.0,3.0512,3.106,3.1599,0.0,3.2727,0.0,3.3102,3.3305,3.3581,0.0,3.3897,3.401,3.4237,3.4753,3.5055,3.5055,3.5605,3.5881,3.5881,3.623,3.6393,3.6393,3.6393,3.6393,3.6393,3.6393,3.6393,3.6393,0.0,3.6393,3.6393,3.6393,3.6393,3.6393,3.6393,3.6393,3.6393,3.6393,3.6193,3.5881,0.0,0.0,0.0,0.0,0.0,0.0,0.0,0.0,0.0,0.0,0.0,0.0,0.0,0.0,0.0,0.0,0.0,0.0,0.0,0.0,0.0,0.0,0.0,0.0,0.0,0.0,0.0,0.0,0.0,0.0,0.0,0.0,0.0,0.0,0.0,0.0,0.0,0.0,0.0,0.0,0.0,0.0,0.0,0.0,0.0,0.0,0.0,0.0,0.0,0.0,2.6805,2.7185,2.7185,2.7883,2.8618,2.8222,2.885,2.9578,2.9145,2.9405,2.9801,2.9801,2.9801,2.9801,2.9801,2.9801,2.9801,2.9801,0.0,2.9801,2.9801,2.9801,2.9801,2.9801,0.0,3.0005,3.0623,3.111,3.1635,3.2252,3.2778,3.3102,3.3102,3.3594,3.3935,3.401,3.4062,3.4313,3.4778,3.5319,3.562,3.562,3.6131,3.6393,3.6393,3.6393,3.6393,3.6393,3.6393,3.6393,3.6393,3.6393,3.6393,3.6393,3.6393,0.0,3.6393,3.6393,3.6393,3.6393,3.6393,3.6393,3.6393,3.6393,3.6393,3.6393,0.0,0.0,0.0,0.0,0.0,0.0,0.0,0.0,0.0,0.0,2.1497,2.3098,0.0,0.0,0.0,0.0,0.0,0.0,0.0,0.0,0.0,0.0,0.0,0.0,0.0,0.0,0.0,0.0,0.0,0.0,0.0,0.0,0.0,0.0,0.0,0.0,0.0,0.0,0.0,0.0,0.0,0.0,0.0,0.0,0.0,0.0,0.0,0.0,0.0,0.0,2.6562,2.6637,2.6637,2.7069,2.7654,2.7996,2.8543,2.9145,2.9541,2.9716,2.9801,2.9801,2.9801,2.9801,2.9801,2.9801,0.0,0.0,2.9801,2.9801,2.9801,2.9801,2.9801,2.9801,2.9801,3.0131,3.1122,3.1346,3.1773,0.0,0.0,0.0,0.0,0.0,0.0,0.0,0.0,3.5269,3.5369,3.5918,3.6243,3.6243,3.6355,3.6393,3.6393,3.6393,3.6393,3.6393,3.6393,3.6393,3.6393,3.6393,3.6393,3.6393,3.6393,0.0,3.6393,3.6393,3.6393,3.6393,3.6393,3.6393,3.6393,3.6393,3.6393,3.6393,0.0,0.0,0.0,0.0,0.0,0.0,0.0,2.1093,2.1244,1.9965,2.11,2.2413,2.3406,2.4614,2.566,0.0,0.0,0.0,0.0,0.0,0.0,0.0,0.0,0.0,0.0,0.0,0.0,0.0,0.0,0.0,0.0,0.0,0.0,0.0,0.0,0.0,0.0,0.0,0.0,0.0,0.0,0.0,0.0,0.0,0.0,0.0,0.0,0.0,0.0,0.0,2.6508,2.6508,2.6508,2.7056,2.7767,2.8025,2.8703,2.9431,2.9716,2.9801,2.9801,2.9801,2.9801,2.9801,2.9801,0.0,0.0,0.0,2.9801,2.9801,2.9801,2.9801,0.0,2.9801,2.9801,3.0178,3.1246,3.1396,0.0,3.2964,3.3102,0.0,0.0,0.0,0.0,0.0,0.0,3.5968,3.5968,3.6243,3.6393,3.6393,3.6393,3.6393,3.6393,3.6393,3.6393,3.6393,3.6393,3.6393,3.6393,3.6393,3.6393,3.6393,3.6393,0.0,3.6393,3.6393,3.6393,3.6393,3.6393,3.6393,3.6393,3.6393,3.6393,3.6393,0.0,0.0,0.0,0.0,0.0,0.0,0.0,2.0977,2.1244,1.9965,2.0684,2.1591,2.2282,2.3516,2.4837,0.0,0.0,0.0,0.0,0.0,0.0,0.0,0.0,0.0,0.0,0.0,0.0,0.0,0.0,0.0,0.0,0.0,0.0,0.0,0.0,0.0,0.0,0.0,0.0,0.0,0.0,0.0,0.0,0.0,0.0,0.0,0.0,0.0,0.0,0.0,2.6508,2.6512,2.6637,2.7336,2.8125,2.8238,2.9001,2.9801,2.9801,2.9801,2.9801,2.9801,2.9801,2.9801,2.9801,2.9801,0.0,2.9801,2.9801,2.9801,2.9801,2.9801,2.9801,0.0,2.9801,3.0178,3.1246,3.1396,3.1823,0.0,3.3102,0.0,0.0,0.0,0.0,0.0,0.0,0.0,3.6393,3.6393,3.6393,3.6393,3.6393,3.6393,3.6393,3.6393,3.6393,3.6393,3.6393,3.6393,3.6393,3.6393,3.6393,3.6393,3.6393,0.0,0.0,3.6393,3.6393,3.6393,3.6393,3.6393,3.6393,3.6393,3.6393,3.6393,0.0,0.0,0.0,0.0,0.0,0.0,0.0,2.1269,2.1244,1.9965,2.0371,2.0976,2.1542,2.3224,2.4617,0.0,0.0,0.0,0.0,0.0,0.0,0.0,0.0,0.0,0.0,0.0,0.0,0.0,0.0,0.0,0.0,0.0,0.0,0.0,0.0,0.0,0.0,0.0,0.0,0.0,0.0,0.0,0.0,0.0,0.0,0.0,0.0,0.0,0.0,0.0,0.0,2.6587,2.7072,2.7629,2.8201,2.8671,0.0,0.0,2.9801,2.9801,2.9801,2.9801,2.9801,2.9801,2.9801,0.0,2.9801,2.9801,2.9801,2.9801,2.9801,2.9801,0.0,0.0,0.0,3.0178,3.1246,3.1396,3.1823,3.2964,0.0,0.0,0.0,0.0,0.0,0.0,0.0,0.0,3.6393,3.6393,3.6393,3.6393,3.6393,3.6393,3.6393,3.6393,3.6393,3.6393,3.6393,3.6393,3.6393,3.6393,3.6393,3.6393,3.6393,0.0,0.0,3.6393,3.6393,3.6393,3.6393,3.6393,3.6393,3.6393,3.6393,3.6393,0.0,0.0,0.0,0.0,0.0,0.0,2.0509,2.1403,2.17,2.0016,2.0991,2.1923,2.2135,2.3082,2.3981,2.4682,0.0,0.0,0.0,0.0,0.0,0.0,0.0,0.0,0.0,0.0,0.0,0.0,0.0,0.0,0.0,0.0,0.0,0.0,0.0,0.0,0.0,0.0,0.0,0.0,0.0,0.0,0.0,0.0,0.0,0.0,0.0,0.0,0.0,0.0,0.0,0.0,2.7123,2.7449,0.0,0.0,2.933,2.9801,2.9801,2.9801,2.9801,2.9801,2.9801,2.9801,2.9801,0.0,2.9801,2.9801,2.9801,2.9801,2.9801,2.9801,0.0,0.0,0.0,0.0,3.1246,3.1396,3.1823,3.2964,3.3102,0.0,0.0,0.0,0.0,0.0,0.0,0.0,3.6393,3.6393,3.6393,3.6393,3.6393,3.6393,3.6393,3.6393,3.6393,3.6393,3.6393,3.6393,3.6393,3.6393,3.6393,3.6393,3.6393,0.0,0.0,3.6393,3.6393,3.6393,3.6393,3.6393,3.6393,3.6393,3.6393,3.6393,0.0,0.0,0.0,0.0,0.0,2.2651,2.0663,2.1522,2.1907,2.0533,2.1357,2.2285,2.2843,2.2982,2.3383,2.4226,2.3782,0.0,0.0,0.0,0.0,0.0,0.0,0.0,0.0,0.0,0.0,0.0,0.0,0.0,0.0,0.0,0.0,0.0,0.0,0.0,0.0,0.0,0.0,0.0,0.0,0.0,0.0,0.0,0.0,0.0,0.0,0.0,0.0,0.0,0.0,0.0,0.0,0.0,0.0,0.0,2.9195,2.9569,2.9741,2.9801,2.9801,2.9801,2.9801,2.9801,0.0,0.0,2.9801,2.9801,2.9801,2.9801,2.9801,2.9801,2.9801,2.9801,2.9801,3.0178,3.1246,3.1396,3.1823,0.0,0.0,0.0,0.0,0.0,0.0,0.0,0.0,0.0,3.6393,3.6393,3.6393,3.6393,3.6393,3.6393,3.6393,3.6393,3.6393,3.6393,3.6393,3.6393,3.6393,3.6393,3.6393,3.6393,3.6393,0.0,0.0,3.6393,3.6393,3.6393,3.6393,3.6393,3.6393,3.6393,3.6393,3.6393,0.0,0.0,0.0,0.0,0.0,0.0,2.1793,2.1697,2.1697,2.1679,2.1174,2.1527,2.3387,2.2884,2.2923,2.4187,2.4292,0.0,0.0,0.0,0.0,0.0,0.0,0.0,0.0,0.0,0.0,2.31,2.31,0.0,0.0,0.0,0.0,0.0,0.0,0.0,0.0,0.0,0.0,0.0,0.0,0.0,0.0,0.0,0.0,0.0,0.0,0.0,0.0,0.0,0.0,0.0,0.0,2.7298,2.7503,0.0,2.8897,2.9035,2.9641,2.9801,2.9801,2.9801,2.9801,2.9801,0.0,2.9801,2.9801,2.9801,2.9801,2.9801,2.9801,2.9801,2.9801,2.9801,2.9801,0.0,3.1246,3.1396,3.1823,0.0,0.0,3.4099,0.0,0.0,0.0,0.0,0.0,0.0,3.6393,3.6393,3.6393,3.6393,3.6393,3.6393,3.6393,3.6393,3.6393,3.6393,3.6393,3.6393,3.6393,3.6393,3.6393,0.0,0.0,0.0,0.0,3.6393,3.6393,3.6393,3.6393,3.6393,3.6393,3.6393,3.6393,3.6393,0.0,0.0,0.0,0.0,0.0,0.0,0.0,2.1697,2.1556,2.1137,2.1686,2.2318,2.2854,2.3015,2.3407,2.423,2.3796,0.0,0.0,0.0,0.0,0.0,0.0,0.0,0.0,0.0,0.0,2.31,2.31,2.31,2.31,0.0,0.0,0.0,0.0,0.0,0.0,0.0,0.0,0.0,0.0,0.0,0.0,0.0,0.0,0.0,0.0,0.0,0.0,0.0,0.0,0.0,0.0,0.0,0.0,2.7604,2.8326,2.8947,2.9132,2.949,2.9801,2.9801,2.9801,2.9801,2.9801,2.9801,2.9801,2.9801,2.9801,2.9801,2.9801,2.9801,2.9801,2.9801,2.9801,3.0178,0.0,0.0,0.0,3.2964,3.3897,3.4502,0.0,0.0,0.0,0.0,0.0,0.0,3.6393,3.6393,3.6393,3.6393,3.6393,3.6393,3.6393,3.6393,3.6393,3.6393,3.6393,3.6393,3.6393,3.6393,3.6393,0.0,0.0,0.0,0.0,3.6393,3.6393,3.6393,3.6393,3.6393,3.6393,3.6393,3.6393,3.6393,0.0,0.0,0.0,0.0,0.0,0.0,0.0,2.1556,2.1568,2.1192,2.1825,2.2496,2.2926,2.3002,2.3366,2.423,2.3553,0.0,0.0,0.0,0.0,0.0,0.0,0.0,0.0,0.0,2.31,2.31,2.31,2.31,2.31,2.31,2.31,0.0,0.0,0.0,0.0,0.0,0.0,0.0,0.0,0.0,2.6508,0.0,0.0,0.0,0.0,0.0,0.0,0.0,0.0,0.0,0.0,0.0,0.0,0.0,2.7616,2.838,2.8784,2.917,2.9515,2.9741,2.9801,2.9801,2.9801,0.0,2.9801,2.9801,2.9801,2.9801,2.9801,2.9801,2.9801,2.9801,2.9801,3.0178,0.0,0.0,0.0,3.352,0.0,0.0,0.0,0.0,0.0,0.0,0.0,0.0,3.6393,3.6393,3.6393,3.6393,3.6393,3.6393,3.6393,3.6393,3.6393,3.6393,3.6393,3.6393,3.6393,3.6393,3.6393,0.0,0.0,0.0,0.0,3.6393,3.6393,3.6393,3.6393,3.6393,3.6393,3.6393,3.6393,3.6393,0.0,0.0,0.0,0.0,0.0,0.0,0.0,2.1257,2.1578,2.1633,2.1645,2.2095,2.3323,2.2824,2.2882,2.4107,0.0,0.0,0.0,0.0,0.0,0.0,0.0,0.0,0.0,2.31,2.31,2.31,2.31,2.31,2.31,2.31,2.31,2.31,0.0,0.0,0.0,0.0,0.0,0.0,2.4783,2.5456,0.0,0.0,0.0,0.0,0.0,0.0,0.0,0.0,0.0,0.0,0.0,0.0,0.0,0.0,0.0,0.0,0.0,2.8847,2.9023,2.9591,2.9776,2.9801,2.9801,0.0,0.0,2.9801,2.9801,2.9801,2.9801,2.9801,2.9801,2.9801,2.9801,3.0178,0.0,3.1472,0.0,0.0,3.4678,0.0,0.0,0.0,0.0,0.0,0.0,0.0,3.6393,3.6393,3.6393,3.6393,3.6393,3.6393,3.6393,3.6393,3.6393,3.6393,3.6393,3.6393,3.6393,3.6393,3.6393,0.0,0.0,0.0,0.0,3.6393,3.6393,3.6393,3.6393,3.6393,3.6393,3.6393,3.6393,3.6393,0.0,0.0,0.0,0.0,0.0,0.0,0.0,0.0,0.0,0.0,2.1016,2.1256,2.192,2.2234,2.2675,0.0,0.0,0.0,0.0,0.0,0.0,0.0,0.0,0.0,0.0,2.31,2.31,2.31,2.31,2.31,2.31,2.31,2.31,2.31,2.31,0.0,0.0,0.0,0.0,0.0,2.4628,2.5214,0.0,0.0,0.0,0.0,2.6508,2.6508,0.0,0.0,0.0,0.0,0.0,0.0,0.0,0.0,2.6587,2.683,2.7503,0.0,2.8935,2.9082,2.9456,2.9801,0.0,2.9801,0.0,0.0,0.0,2.9801,2.9801,2.9801,2.9801,2.9801,2.9801,3.0178,3.1246,0.0,0.0,3.3985,3.4451,0.0,0.0,0.0,0.0,0.0,0.0,3.6393,3.6393,3.6393,3.6393,3.6393,3.6393,3.6393,3.6393,3.6393,3.6393,3.6393,3.6393,3.6393,3.6393,3.6393,3.6393,0.0,0.0,0.0,3.6393,3.6393,3.6393,3.6393,3.6393,3.6393,3.6393,3.6393,3.6393,3.6393,0.0,0.0,0.0,0.0,0.0,0.0,0.0,0.0,0.0,0.0,0.0,0.0,0.0,0.0,0.0,0.0,0.0,0.0,0.0,0.0,0.0,0.0,0.0,0.0,0.0,2.31,2.31,2.31,2.31,2.31,2.31,2.31,2.31,2.31,2.31,0.0,0.0,0.0,0.0,0.0,2.4578,0.0,0.0,0.0,0.0,0.0,2.6508,2.6508,0.0,2.6508,2.6508,2.6508,0.0,0.0,0.0,0.0,2.6508,2.6562,2.6842,2.7541,2.8288,2.8772,2.9145,2.9456,2.9739,0.0,0.0,0.0,0.0,2.9801,2.9801,2.9801,2.9801,2.9801,3.0005,0.0,0.0,0.0,3.338,3.4162,3.4515,0.0,0.0,0.0,0.0,0.0,0.0,3.6393,3.6393,3.6393,3.6393,3.6393,3.6393,3.6393,3.6393,3.6393,3.6393,3.6393,3.6393,3.6393,3.6393,3.6393,3.6393,0.0,0.0,0.0,3.6393,3.6393,3.6393,3.6393,3.6393,3.6393,3.6393,3.6393,3.6393,3.6393,0.0,0.0,0.0,0.0,0.0,0.0,0.0,0.0,0.0,0.0,0.0,0.0,0.0,0.0,0.0,0.0,0.0,0.0,0.0,0.0,0.0,0.0,0.0,2.31,2.31,2.31,2.31,2.31,2.31,2.31,2.31,2.31,2.31,2.31,2.31,0.0,0.0,0.0,0.0,0.0,2.4553,0.0,0.0,0.0,0.0,0.0,0.0,0.0,0.0,2.6508,2.6508,2.6508,2.6508,0.0,0.0,0.0,0.0,0.0,2.6508,2.6893,2.7516,2.843,2.8772,2.9023,2.9553,0.0,0.0,0.0,0.0,0.0,0.0,2.9801,0.0,0.0,0.0,0.0,3.2066,3.2727,3.3494,3.4565,3.4703,0.0,0.0,0.0,0.0,0.0,0.0,3.6393,3.6393,3.6393,3.6393,3.6393,3.6393,3.6393,3.6393,3.6393,3.6393,3.6393,3.6393,3.6393,3.6393,3.6393,3.6393,3.6393,0.0,0.0,3.6393,3.6393,3.6393,3.6393,3.6393,3.6393,3.6393,3.6393,3.6393,3.6393,0.0,0.0,0.0,0.0,0.0,0.0,0.0,0.0,0.0,0.0,0.0,0.0,0.0,0.0,0.0,0.0,0.0,0.0,0.0,0.0,0.0,0.0,2.31,2.31,2.31,2.31,2.31,2.31,2.31,2.31,2.31,2.31,2.31,2.31,2.31,2.31,0.0,0.0,0.0,2.3333,2.4382,0.0,0.0,0.0,0.0,0.0,0.0,0.0,0.0,2.6508,2.6508,2.6508,2.6508,0.0,0.0,0.0,0.0,0.0,2.6508,2.6893,2.7336,2.7503,2.8226,2.8922,0.0,0.0,0.0,0.0,0.0,0.0,0.0,2.9801,2.9801,0.0,0.0,3.1486,0.0,0.0,3.3494,3.4565,0.0,0.0,0.0,0.0,0.0,0.0,0.0,3.6393,3.6393,3.6393,3.6393,3.6393,3.6393,3.6393,3.6393,3.6393,3.6393,3.6393,3.6393,3.6393,3.6393,3.6393,3.6393,3.6393,0.0,3.6393,3.6393,3.6393,3.6393,3.6393,3.6393,3.6393,3.6393,3.6393,3.6393,3.6393,0.0,0.0,0.0,0.0,0.0,0.0,0.0,0.0,0.0,0.0,0.0,0.0,0.0,0.0,0.0,0.0,0.0,0.0,0.0,0.0,0.0,2.3123,2.31,2.31,2.31,2.31,2.3258,2.3587,2.3587,2.373,2.401,2.3717,2.3416,2.31,2.31,2.31,2.31,0.0,2.31,2.32,0.0,0.0,0.0,0.0,0.0,0.0,0.0,0.0,0.0,0.0,2.6508,2.6508,2.6508,0.0,0.0,0.0,0.0,0.0,2.6508,2.6675,2.6943,2.7223,2.81,2.8994,0.0,0.0,0.0,0.0,0.0,0.0,0.0,0.0,2.999,3.0567,0.0,3.2026,3.2614,3.2939,0.0,0.0,0.0,0.0,0.0,0.0,0.0,0.0,0.0,0.0,3.6393,3.6393,3.6393,3.6393,3.6393,3.6393,3.6393,3.6393,3.6393,3.6393,3.6393,3.6393,3.6393,3.6393,3.6393,3.6393,0.0,3.6393,3.6393,3.6393,3.6393,3.6393,3.6393,3.6393,3.6393,3.6393,3.6393,3.6393,0.0,0.0,0.0,0.0,0.0,0.0,0.0,0.0,0.0,0.0,0.0,0.0,0.0,0.0,0.0,0.0,0.0,0.0,0.0,0.0,2.3298,2.3115,2.31,2.31,2.31,2.31,2.3328,2.3795,2.3929,2.4217,2.4603,2.4184,2.3682,2.31,2.31,2.31,2.31,2.31,2.31,2.32,0.0,0.0,0.0,0.0,0.0,0.0,0.0,0.0,0.0,0.0,0.0,0.0,0.0,0.0,0.0,2.6508,2.6508,2.6508,2.6508,2.6587,2.6826,2.7352,0.0,0.0,0.0,0.0,0.0,0.0,0.0,0.0,0.0,2.9892,0.0,3.1411,3.1928,3.2416,0.0,0.0,0.0,0.0,0.0,0.0,0.0,0.0,0.0,0.0,0.0,0.0,3.6393,3.6393,3.6393,3.6393,3.6393,3.6393,3.6393,3.6393,3.6393,3.6393,3.6393,3.6393,3.6393,3.6393,3.6393,3.6393,3.6393,3.6393,3.6393,3.6393,3.6393,3.6393,3.6393,3.6393,3.6393,3.6393,3.6393,3.6393,0.0,0.0,0.0,0.0,0.0,0.0,0.0,0.0,0.0,0.0,0.0,0.0,0.0,0.0,0.0,0.0,0.0,0.0,0.0,0.0,2.3884,2.3138,2.31,2.31,2.31,2.31,2.312,2.315,2.3733,2.4017,2.4054,2.4017,2.3682,2.31,2.31,2.31,2.31,2.31,2.31,2.32,2.4344,0.0,0.0,0.0,0.0,0.0,0.0,0.0,0.0,0.0,0.0,0.0,0.0,0.0,2.6508,2.6508,2.6508,2.6508,2.6508,2.6855,2.7374,2.7908,0.0,0.0,0.0,0.0,0.0,0.0,0.0,0.0,0.0,3.0218,3.0889,3.1966,3.2179,3.2416,3.3027,0.0,0.0,0.0,0.0,0.0,0.0,0.0,0.0,0.0,0.0,0.0,3.6393,3.6393,3.6393,3.6393,3.6393,3.6393,3.6393,3.6393,3.6393,3.6393,3.6393,3.6393,3.6393,3.6393,3.6393,3.6393,3.6393,3.6393,3.6393,3.6393,3.6393,3.6393,3.6393,3.6393,3.6393,3.6393,3.6393,3.6393,0.0,0.0,0.0,0.0,0.0,0.0,0.0,0.0,0.0,0.0,0.0,0.0,0.0,0.0,0.0,0.0,0.0,0.0,0.0,0.0,2.3417,2.3115,2.31,2.31,2.31,2.31,2.3283,2.3657,2.4556,2.4812,2.4498,2.4498,2.4001,2.31,2.31,2.31,2.31,2.31,2.3316,2.3733,2.4482,2.4992,0.0,0.0,0.0,0.0,0.0,0.0,0.0,0.0,2.6508,2.6508,2.6508,2.6508,2.6508,2.6508,2.6508,2.6508,2.6508,2.6893,2.7437,2.7971,0.0,0.0,0.0,0.0,0.0,0.0,0.0,0.0,0.0,0.0,3.1336,3.2079,3.2516,3.284,3.3065,3.3102,0.0,0.0,0.0,0.0,0.0,0.0,0.0,0.0,0.0,0.0,3.6393,3.6393,3.6393,3.6393,3.6393,3.6393,3.6393,3.6393,3.6393,3.6393,3.6393,3.6393,3.6393,3.6393,3.6393,3.6393,3.6393,3.6393,3.6393,3.6393,3.6393,3.6393,3.6393,3.6393,3.6393,3.6393,3.6393,3.6393,0.0,0.0,0.0,0.0,0.0,0.0,0.0,0.0,0.0,0.0,0.0,0.0,0.0,0.0,0.0,0.0,0.0,0.0,0.0,2.31,2.31,2.31,2.31,2.31,2.31,2.31,2.3303,2.372,2.4812,2.5163,2.4796,2.4796,2.4194,0.0,2.31,2.31,2.31,2.31,2.3454,2.4054,2.4578,2.5126,0.0,0.0,0.0,0.0,0.0,0.0,0.0,0.0,2.6508,2.6508,2.6508,2.6508,2.6508,2.6508,2.6508,2.6545,2.6713,2.7018,2.7474,0.0,0.0,0.0,0.0,0.0,0.0,0.0,0.0,0.0,0.0,0.0,0.0,0.0,3.2828,3.3102,3.3102,3.3253,3.3694,0.0,0.0,0.0,0.0,0.0,0.0,0.0,0.0,0.0,0.0,3.6393,3.6393,3.6393,3.6393,3.6393,3.6393,3.6393,3.6393,3.6393,3.6393,3.6393,3.6393,3.6393,3.6393,3.6393,3.6393,3.6393,3.6393,3.6393,3.6393,3.6393,3.6393,3.6393,3.6393,3.6393,3.6393,3.6393,0.0,0.0,0.0,0.0,0.0,0.0,0.0,0.0,0.0,0.0,0.0,0.0,0.0,0.0,0.0,0.0,0.0,0.0,0.0,2.31,2.31,2.31,2.31,2.31,2.31,2.31,2.31,2.3108,2.4244,2.4783,2.4783,2.4783,0.0,0.0,0.0,2.31,2.31,2.3108,2.3454,2.4046,2.4591,2.5138,2.567,0.0,0.0,0.0,0.0,0.0,0.0,0.0,2.6508,2.6508,2.6508,2.6508,2.6508,2.6508,2.6508,2.6621,2.7157,2.7298,2.7566,0.0,0.0,0.0,0.0,0.0,0.0,0.0,0.0,0.0,0.0,0.0,0.0,3.3002,3.3102,3.3102,3.3102,3.3569,3.411,3.464,3.5168,0.0,0.0,0.0,0.0,0.0,0.0,0.0,0.0,3.6393,3.6393,3.6393,3.6393,3.6393,3.6393,3.6393,3.6393,3.6393,3.6393,3.6393,3.6393,3.6393,3.6393,3.6393,3.6393,3.6393,3.6393,3.6393,3.6393,3.6393,3.6393,3.6393,3.6393,3.6393,3.6393,3.6393,0.0,0.0,0.0,0.0,0.0,0.0,0.0,0.0,0.0,0.0,0.0,0.0,0.0,0.0,0.0,0.0,0.0,0.0,0.0,2.31,2.31,2.31,2.31,2.31,2.31,2.31,2.3316,2.3733,2.4072,2.4235,2.4235,0.0,0.0,2.31,0.0,0.0,2.3133,2.3549,2.4051,2.4603,2.5159,2.5707,2.6252,0.0,0.0,0.0,0.0,0.0,0.0,0.0,0.0,0.0,2.6508,2.6508,2.6508,2.6508,2.6508,2.6524,2.6688,2.7286,0.0,2.8263,0.0,0.0,0.0,0.0,0.0,0.0,0.0,0.0,0.0,0.0,0.0,0.0,0.0,0.0,3.3102,3.3569,3.411,3.464,3.5168,3.5744,3.6343,0.0,0.0,0.0,0.0,0.0,0.0,3.6393,3.6393,3.6393,3.6393,3.6393,3.6393,3.6393,3.6393,3.6393,3.6393,3.6393,3.6393,3.6393,3.6393,3.6393,3.6393,3.6393,3.6393,3.6393,3.6393,3.6393,3.6393,3.6393,3.6393,3.6393,3.6393,3.6393,0.0,0.0,0.0,0.0,0.0,0.0,0.0,0.0,0.0,0.0,2.2036,0.0,0.0,0.0,0.0,0.0,0.0,0.0,0.0,0.0,2.31,2.31,2.31,2.31,2.31,2.31,2.3283,2.3637,2.3883,2.4004,2.4004,0.0,2.3682,2.31,0.0,2.3233,2.3487,2.3853,2.4436,2.5151,2.5473,2.5954,2.6508,0.0,0.0,0.0,0.0,0.0,0.0,0.0,0.0,0.0,2.6508,2.6508,2.6508,2.6508,2.665,2.6868,2.7081,2.7758,0.0,2.8725,2.9289,2.9801,2.9801,0.0,0.0,0.0,0.0,0.0,0.0,0.0,0.0,3.304,3.3102,3.3102,3.3102,3.3757,3.4338,3.4653,3.5392,3.5994,3.6355,3.6393,0.0,0.0,0.0,0.0,0.0,3.6393,3.6393,3.6393,3.6393,3.6393,3.6393,3.6393,3.6393,3.6393,3.6393,3.6393,3.6393,3.6393,3.6393,3.6393,3.6393,3.6393,3.6393,3.6393,3.6393,3.6393,3.6393,3.6393,3.6393,3.6393,3.6393,3.6393,0.0,0.0,2.2546,2.2603,0.0,0.0,0.0,0.0,0.0,0.0,2.2088,2.2852,0.0,0.0,0.0,0.0,0.0,0.0,2.3153,2.31,2.31,2.31,2.31,2.31,2.31,2.31,2.31,2.31,2.365,2.3916,0.0,0.0,2.3632,2.31,0.0,2.3436,2.4004,2.4046,2.4657,2.5598,2.5657,2.6005,2.6508,2.6508,0.0,0.0,0.0,0.0,0.0,0.0,0.0,0.0,2.6508,2.6508,2.6508,2.6508,2.6889,2.7412,2.7896,2.8442,2.9023,2.9578,2.9764,0.0,2.9801,2.9801,2.9942,3.0497,0.0,3.156,3.2104,3.2692,3.3102,3.3102,3.3102,3.3102,3.3102,3.3985,3.464,3.469,3.5666,3.6343,3.6393,3.6393,3.6393,3.6393,3.6393,0.0,3.6393,3.6393,3.6393,3.6393,3.6393,3.6393,3.6393,3.6393,3.6393,3.6393,3.6393,3.6393,3.6393,3.6393,3.6393,3.6393,3.6393,3.6393,3.6393,3.6393,3.6393,3.6393,3.6393,3.6393,3.6393,3.6393,3.6393,3.6393,0.0,0.0,2.1363,2.1823,0.0,0.0,0.0,0.0,0.0,0.0,0.0,0.0,0.0,0.0,0.0,0.0,0.0,0.0,2.3115,2.31,2.31,2.31,2.31,2.31,2.31,2.31,2.31,2.31,2.3233,0.0,0.0,0.0,0.0,2.31,0.0,2.3436,2.4029,2.4448,2.4992,2.5636,2.6114,2.6386,2.6508,2.6508,2.6508,0.0,0.0,0.0,0.0,0.0,0.0,0.0,2.6508,2.6508,2.6508,2.6508,2.6889,2.7324,2.744,2.8176,0.0,0.0,2.9443,2.9801,2.9801,2.9801,2.9942,3.0497,3.1035,3.156,3.2104,3.2692,3.3102,3.3102,3.3102,3.3102,3.3102,3.3669,3.4225,3.4653,3.5293,3.5881,3.6355,3.6393,3.6393,3.6393,3.6393,3.6393,3.6393,3.6393,3.6393,3.6393,3.6393,3.6393,3.6393,3.6393,3.6393,3.6393,3.6393,3.6393,3.6393,3.6393,3.6393,3.6393,3.6393,3.6393,3.6393,3.6393,3.6393,3.6393,3.6393,3.6393,3.6393,3.6393,3.6393,3.6393,0.0,0.0,0.0,0.0,0.0,0.0,0.0,0.0,0.0,0.0,0.0,0.0,0.0,0.0,0.0,0.0,2.31,2.31,2.31,2.31,2.31,2.31,2.31,2.31,2.31,2.31,2.31,2.31,0.0,0.0,0.0,0.0,0.0,2.3108,0.0,2.385,2.4423,2.4963,2.5511,2.6063,2.6373,2.6508,2.6508,2.6508,2.6508,0.0,0.0,0.0,0.0,0.0,0.0,0.0,0.0,0.0,2.6508,2.6508,2.7056,2.767,2.767,0.0,0.0,2.933,0.0,2.9801,2.9801,2.9801,3.0027,3.0821,3.1208,3.1647,3.2478,3.2889,3.3102,3.3102,3.3102,3.3102,3.3102,3.3569,3.411,3.464,3.5168,3.5744,3.6343,3.6393,3.6393,3.6393,3.6393,3.6393,3.6393,3.6393,3.6393,3.6393,3.6393,3.6393,3.6393,3.6393,3.6393,3.6393,3.6393,3.6393,3.6393,3.6393,3.6393,3.6393,3.6393,3.6393,3.6393,3.6393,3.6393,3.6393,3.6393,3.6393,3.6393,3.6393,3.6393,3.6393,0.0,0.0,0.0,0.0,0.0,0.0,0.0,0.0,0.0,0.0,0.0,0.0,0.0,0.0,2.31,0.0,0.0,0.0,2.31,2.31,2.31,2.31,2.31,2.31,2.31,2.3243,2.3238,0.0,0.0,0.0,0.0,0.0,0.0,2.3283,0.0,2.4348,2.4967,2.541,2.5954,2.6508,2.6508,2.6508,2.6508,2.6508,0.0,0.0,0.0,2.6508,2.6508,2.6508,0.0,0.0,0.0,0.0,2.652,2.6612,2.7336,2.8125,2.8213,0.0,2.9801,2.9801,2.9801,0.0,2.9801,2.9801,3.0103,3.1183,3.1396,3.1748,3.2889,3.3102,3.3102,3.3102,3.3102,3.3102,3.3102,3.3481,3.396,3.449,3.4955,3.5493,3.618,3.6243,3.6281,3.6393,3.6393,3.6393,3.6393,3.6393,3.6393,3.6393,3.6393,3.6393,3.6393,3.6393,3.6393,3.6393,3.6393,3.6393,3.6393,3.6393,3.6393,3.6393,3.6393,3.6393,3.6393,3.6393,3.6393,3.6393,3.6393,3.6393,3.6393,3.6393,3.6393,3.6393,0.0,0.0,0.0,0.0,0.0,0.0,0.0,0.0,0.0,0.0,2.3058,2.31,0.0,2.31,2.31,2.31,2.31,2.31,2.31,0.0,0.0,2.31,2.31,2.31,2.31,2.3782,2.3796,0.0,0.0,0.0,0.0,0.0,0.0,2.3883,0.0,0.0,2.5498,2.5573,2.5954,2.6508,2.6508,2.6508,2.6508,0.0,0.0,0.0,0.0,0.0,2.6508,2.6508,2.6508,0.0,0.0,0.0,2.6587,2.7056,2.7616,2.8201,2.8668,0.0,2.9801,0.0,2.9801,2.9801,0.0,0.0,3.0103,0.0,3.1396,3.1748,3.2889,3.3102,3.3102,3.3102,3.3102,3.3102,3.3102,3.3165,3.3416,3.3935,3.4073,3.4513,3.5519,3.562,3.5844,3.6355,3.6393,3.6393,3.6393,3.6393,3.6393,3.6393,3.6393,3.6393,3.6393,3.6393,3.6393,3.6393,3.6393,3.6393,3.6393,3.6393,3.6393,3.6393,3.6393,3.6393,3.6393,3.6393,3.6393,3.6393,3.6393,3.6393,3.6393,3.6393,3.6393,3.6393,0.0,0.0,0.0,0.0,0.0,0.0,0.0,0.0,0.0,0.0,0.0,2.31,2.31,2.31,2.31,2.31,2.31,2.31,2.31,2.31,2.31,2.31,2.31,2.31,2.31,2.3454,0.0,0.0,0.0,0.0,0.0,2.3811,2.3745,0.0,0.0,0.0,0.0,0.0,0.0,2.6508,2.6508,2.6508,0.0,0.0,0.0,0.0,0.0,0.0,0.0,0.0,2.6799,2.7151,2.6999,0.0,0.0,0.0,2.8125,2.8668,2.9255,2.9603,2.9801,0.0,2.9801,2.9801,2.9801,0.0,3.0103,3.1183,3.1396,3.1748,3.2889,3.3102,3.3102,3.3102,3.3102,3.3102,3.3102,3.3102,3.3303,3.3834,3.3897,3.42,3.498,3.5055,3.5293,3.5856,3.5894,3.6031,3.638,3.6393,3.6393,3.6393,3.6393,3.6393,3.6393,3.6393,3.6393,3.6393,3.6393,3.6393,3.6393,3.6393,3.6393,3.6393,3.6393,3.6393,3.6393,3.6393,3.6393,3.6393,3.6393,3.6393,3.6393,3.6393,3.6393,3.6393,0.0,0.0,0.0,0.0,0.0,0.0,0.0,0.0,0.0,0.0,0.0,2.3328,2.3123,0.0,0.0,0.0,2.31,2.31,2.31,2.31,2.31,2.31,2.31,2.31,2.31,2.3479,0.0,0.0,0.0,0.0,2.5161,2.465,2.4414,0.0,2.5234,0.0,0.0,0.0,0.0,0.0,0.0,0.0,0.0,0.0,0.0,0.0,0.0,0.0,0.0,0.0,0.0,0.0,0.0,0.0,0.0,0.0,0.0,2.923,0.0,0.0,2.9801,2.9801,2.9801,2.9801,0.0,0.0,3.0078,0.0,3.1308,3.1698,3.269,3.3002,3.3102,3.3102,3.3102,3.3102,3.3102,3.3102,3.3253,3.3657,3.3707,3.3909,3.4439,3.449,3.4715,3.5269,3.5306,3.5556,3.6131,3.6168,3.6243,3.6393,3.6393,3.6393,3.6393,3.6393,3.6393,3.6393,3.6393,3.6393,3.6393,3.6393,3.6393,3.6393,3.6393,3.6393,3.6393,3.6393,3.6393,3.6393,3.6393,3.6393,3.6393,3.6393,3.6393,3.6393,0.0,0.0,0.0,0.0,0.0,0.0,0.0,0.0,0.0,0.0,0.0,2.395,2.3178,2.31,2.31,2.31,2.31,2.31,2.31,2.31,2.31,2.31,2.31,0.0,2.31,0.0,0.0,0.0,0.0,0.0,2.5116,2.5388,2.5519,2.5519,2.5582,2.5917,2.6457,0.0,0.0,0.0,0.0,2.6508,0.0,0.0,0.0,0.0,0.0,0.0,0.0,0.0,0.0,0.0,0.0,0.0,0.0,0.0,0.0,0.0,0.0,2.9801,0.0,2.9801,2.9801,2.9801,0.0,0.0,2.9955,3.0522,3.1047,3.1574,3.2141,3.2715,3.3102,3.3102,3.3102,3.3102,3.3102,3.3102,3.3102,3.314,3.314,3.3343,3.3884,3.3935,3.4162,3.4703,3.4741,3.4979,3.5519,3.5545,3.5819,3.638,3.6393,3.6393,3.6393,3.6393,3.6393,3.6393,3.6393,3.6393,3.6393,3.6393,3.6393,3.6393,3.6393,3.6393,3.6393,3.6393,3.6393,3.6393,3.6393,3.6393,3.6393,3.6393,3.6393,3.6393,0.0,0.0,0.0,0.0,0.0,0.0,0.0,0.0,0.0,0.0,0.0,0.0,0.0,2.31,2.31,2.31,2.31,2.31,2.31,2.31,2.31,2.31,2.31,2.3342,2.3862,0.0,0.0,0.0,0.0,2.6089,2.7204,2.6687,2.6926,2.7734,2.6661,2.6298,2.6508,2.6508,0.0,0.0,2.6508,2.6508,0.0,0.0,0.0,0.0,0.0,0.0,0.0,0.0,0.0,0.0,0.0,0.0,0.0,0.0,0.0,0.0,0.0,0.0,0.0,2.9801,2.9801,2.9801,2.9801,2.9801,2.9942,3.0497,3.1035,3.156,3.2104,3.2692,3.3102,3.3102,3.3102,3.3102,3.3102,3.3102,3.3102,3.3102,3.3102,3.3178,3.3379,3.338,3.3619,3.4149,3.4187,3.4426,3.4966,3.5307,3.5607,3.5819,3.6205,3.6393,3.6393,3.6393,3.6393,3.6393,3.6393,3.6393,3.6393,3.6393,3.6393,3.6393,3.6393,3.6393,3.6393,3.6393,3.6393,3.6393,3.6393,3.6393,3.6393,3.6393,3.6393,3.6393,0.0,0.0,0.0,0.0,0.0,0.0,0.0,0.0,0.0,0.0,0.0,0.0,0.0,0.0,2.31,2.31,2.31,2.31,2.31,2.31,2.31,2.31,2.31,2.3484,2.4278,0.0,0.0,0.0,0.0,0.0,0.0,2.7514,2.7669,2.85,2.712,2.6508,0.0,0.0,0.0,2.6508,0.0,2.6608,2.6776,0.0,0.0,0.0,0.0,0.0,0.0,0.0,0.0,0.0,0.0,0.0,0.0,0.0,0.0,0.0,2.9801,0.0,0.0,0.0,2.9801,2.9801,2.9801,0.0,2.9892,3.0269,3.0758,3.1298,3.1838,3.2413,3.2866,3.3065,3.3102,3.3102,3.3102,3.3102,3.3102,3.3102,3.3102,3.3102,3.3102,3.3102,3.3253,3.3607,3.3632,0.0,3.44,3.4778,3.5131,3.5495,3.5881,3.6205,3.6393,3.6393,3.6393,3.6393,3.6393,3.6393,3.6393,3.6393,3.6393,3.6393,3.6393,3.6393,3.6393,3.6393,3.6393,3.6393,3.6393,3.6393,3.6393,3.6393,3.6393,3.6393,0.0,0.0,0.0,0.0,0.0,0.0,0.0,0.0,0.0,0.0,0.0,0.0,0.0,0.0,0.0,2.31,2.31,2.31,2.31,2.31,2.3115,2.3138,2.3138,2.3516,2.4357,0.0,0.0,0.0,0.0,0.0,0.0,0.0,2.7761,0.0,2.6913,2.6547,2.6508,0.0,2.6508,2.6508,0.0,2.6839,2.7298,0.0,0.0,0.0,2.8122,2.874,0.0,0.0,0.0,0.0,0.0,0.0,0.0,0.0,0.0,0.0,0.0,0.0,0.0,0.0,0.0,0.0,2.9801,2.9801,2.9801,2.9801,3.0231,3.0761,3.1273,3.1838,3.239,3.2977,3.309,3.3102,3.3102,3.3102,3.3102,3.3102,3.3102,3.3102,3.3102,3.3102,3.3102,3.3102,3.3102,3.3329,3.3847,3.3884,3.4377,3.5445,3.5495,3.5782,3.6368,3.6393,3.6393,3.6393,3.6393,3.6393,3.6393,3.6393,3.6393,3.6393,3.6393,3.6393,3.6393,3.6393,3.6393,3.6393,3.6393,3.6393,3.6393,3.6393,3.6393,3.6393,0.0,0.0,0.0,0.0,0.0,0.0,0.0,0.0,0.0,0.0,0.0,0.0,0.0,0.0,2.31,2.31,2.31,2.31,2.31,2.31,2.3357,2.3936,2.3972,2.4567,2.5851,0.0,0.0,0.0,0.0,0.0,0.0,0.0,0.0,0.0,2.8403,2.7629,2.6508,2.6508,0.0,0.0,2.6918,2.7169,0.0,0.0,0.0,0.0,0.0,2.9565,3.0649,0.0,2.997,2.9996,0.0,0.0,0.0,0.0,0.0,0.0,2.9801,0.0,0.0,0.0,0.0,0.0,2.9801,2.9801,2.9801,2.9801,3.0231,3.0648,3.0799,3.1577,3.2254,3.2418,3.2826,3.3102,3.3102,3.3102,3.3102,3.3102,3.3102,3.3102,3.3102,3.3102,3.3102,0.0,3.3102,3.3165,3.3305,3.3684,3.4212,3.4892,3.5306,3.5582,3.5744,3.618,3.6393,3.6393,3.6393,3.6393,3.6393,3.6393,3.6393,3.6393,3.6393,3.6393,3.6393,3.6393,3.6393,3.6393,3.6393,3.6393,3.6393,3.6393,3.6393,3.6393,0.0,0.0,2.7606,2.7606,0.0,0.0,0.0,0.0,0.0,0.0,0.0,0.0,0.0,0.0,0.0,2.31,2.31,2.3238,2.3588,2.3283,2.3462,2.4263,2.454,2.5238,2.643,0.0,0.0,0.0,0.0,0.0,0.0,0.0,0.0,0.0,0.0,0.0,0.0,0.0,0.0,0.0,2.7173,0.0,0.0,2.8304,2.9151,0.0,0.0,0.0,3.118,3.102,3.0977,0.0,0.0,0.0,0.0,0.0,0.0,0.0,0.0,0.0,0.0,0.0,0.0,0.0,2.9801,2.9801,2.9801,0.0,3.0043,3.0334,3.056,3.1102,3.1614,3.1838,3.2353,3.2815,3.3065,3.3102,3.3102,3.3102,3.3102,3.3102,3.3102,3.3102,3.3102,3.3102,3.3102,3.3102,3.3102,3.3404,3.3809,3.435,3.4891,3.527,3.5495,3.6106,3.6393,3.6393,3.6393,3.6393,3.6393,3.6393,3.6393,3.6393,3.6393,3.6393,3.6393,3.6393,3.6393,3.6393,3.6393,3.6393,3.6393,3.6393,3.6393,3.6393,0.0,0.0,2.7606,2.7606,2.7606,2.7606,0.0,0.0,0.0,0.0,0.0,0.0,0.0,0.0,0.0,0.0,2.3148,2.3428,2.4217,2.3685,2.3725,2.4586,2.5213,2.593,2.6742,2.7996,0.0,0.0,0.0,0.0,0.0,0.0,0.0,0.0,2.854,2.82,0.0,0.0,0.0,2.7487,2.7487,2.805,0.0,0.0,2.9406,0.0,2.984,3.04,3.1306,3.2033,3.2294,0.0,0.0,0.0,0.0,0.0,2.9801,0.0,0.0,0.0,0.0,0.0,0.0,0.0,2.9801,2.9801,2.9801,2.9801,2.9801,2.9952,3.0422,3.056,3.0761,3.1223,3.1763,3.2315,3.2927,3.3052,3.3102,3.3102,3.3102,3.3102,3.3102,3.3102,3.3102,3.3102,3.3102,3.3102,3.3102,3.3102,3.3329,3.3807,3.4338,3.4879,3.5419,3.6005,3.633,3.6393,3.6393,3.6393,3.6393,3.6393,3.6393,3.6393,3.6393,3.6393,3.6393,3.6393,3.6393,3.6393,3.6393,3.6393,3.6393,3.6393,3.6393,3.6393,2.7606,2.7606,2.7606,2.7606,2.7606,2.7606,0.0,0.0,0.0,0.0,0.0,0.0,0.0,0.0,0.0,0.0,2.3477,2.3364,2.4022,2.4521,2.5344,2.6578,2.7368,2.8152,2.8962,2.9706,0.0,0.0,0.0,0.0,0.0,0.0,0.0,0.0,2.8899,2.8321,0.0,0.0,0.0,2.8593,2.8593,0.0,2.8947,2.9443,3.0167,3.0833,3.0075,3.04,3.1106,0.0,3.0346,3.0282,0.0,0.0,0.0,0.0,0.0,0.0,0.0,0.0,0.0,0.0,0.0,0.0,2.9801,2.9801,2.9801,2.9801,2.9801,2.9839,2.9939,3.0309,3.0625,3.0748,3.121,3.175,3.2303,3.279,3.3102,3.3102,3.3102,3.3102,3.3102,3.3102,3.3102,3.3102,3.3102,3.3102,3.3102,3.3102,3.3153,3.3253,3.3771,3.4313,3.4853,3.5394,3.5919,3.6393,3.6393,3.6393,3.6393,3.6393,3.6393,3.6393,3.6393,3.6393,3.6393,3.6393,3.6393,3.6393,3.6393,3.6393,3.6393,3.6393,3.6393,3.6393,2.7606,2.7606,2.7606,2.7606,2.7606,2.7606,2.7606,0.0,0.0,0.0,0.0,0.0,0.0,0.0,0.0,0.0,0.0,0.0,0.0,2.6225,2.6702,2.7752,2.8512,2.9087,2.9491,3.0488,3.0994,0.0,0.0,0.0,0.0,0.0,0.0,0.0,0.0,0.0,0.0,0.0,2.8405,2.8897,2.8897,0.0,2.938,2.9679,3.0094,3.0447,2.9972,3.04,3.1063,3.011,3.0101,0.0,0.0,2.9801,2.9801,0.0,2.9801,2.9801,0.0,0.0,0.0,2.9801,0.0,0.0,0.0,2.9801,2.9801,2.9801,2.9801,2.9801,2.9801,3.0018,3.0206,3.0206,3.0648,3.1087,3.1353,3.2116,3.2641,3.2641,3.2916,3.3102,3.3102,3.3102,3.3102,3.3102,3.3102,3.3102,3.3102,3.3102,3.3102,3.3102,3.3619,3.4161,3.469,3.5231,3.5806,3.6393,3.6393,3.6393,3.6393,3.6393,3.6393,3.6393,3.6393,3.6393,3.6393,3.6393,3.6393,3.6393,3.6393,3.6393,3.6393,3.6393,3.6393,3.6443,2.7606,2.7606,2.7606,2.7606,2.7606,2.7606,2.7606,0.0,0.0,0.0,0.0,0.0,0.0,0.0,0.0,0.0,0.0,0.0,0.0,0.0,2.8021,2.8728,2.9428,2.9799,2.9799,3.0923,3.1503,3.1503,0.0,0.0,0.0,0.0,0.0,0.0,0.0,0.0,0.0,0.0,0.0,2.9604,0.0,2.9524,2.9801,2.9801,2.9801,2.9801,2.9801,3.0289,3.0814,3.0056,0.0,3.0796,3.0046,2.9801,0.0,0.0,0.0,0.0,0.0,0.0,0.0,0.0,0.0,2.9801,0.0,0.0,0.0,0.0,0.0,0.0,0.0,0.0,0.0,0.0,0.0,0.0,0.0,3.1275,0.0,3.2028,3.2577,3.2939,3.2939,3.3027,3.3102,3.3102,3.3102,3.3102,3.3102,3.3102,3.3102,3.3102,3.3519,3.406,3.469,3.5131,3.5706,3.6393,3.6393,3.6393,3.6393,3.6393,3.6393,3.6393,3.6393,3.6393,3.6393,3.6393,3.6393,3.6393,3.6393,3.6393,3.6393,3.6393,3.6393,3.6481,2.7606,2.7606,2.7606,2.7606,2.7606,2.7606,2.7606,0.0,0.0,0.0,0.0,0.0,0.0,0.0,0.0,0.0,0.0,0.0,2.818,0.0,0.0,3.0061,3.0837,3.1261,3.1261,3.1422,3.1503,3.1503,0.0,0.0,0.0,0.0,0.0,0.0,3.1109,0.0,0.0,0.0,3.175,0.0,3.1277,3.0474,0.0,2.9801,2.9801,2.9801,2.9801,2.9879,2.9943,0.0,2.9866,2.9943,0.0,2.9801,2.9801,0.0,0.0,0.0,0.0,0.0,0.0,0.0,2.9801,0.0,0.0,0.0,2.9801,2.9801,0.0,0.0,0.0,0.0,0.0,0.0,0.0,0.0,2.9889,3.0419,3.0962,3.1424,3.1976,3.2292,3.2292,3.279,3.3102,3.3102,3.3102,3.3102,3.3102,3.3102,3.3102,3.3102,3.3153,3.3682,3.469,3.4766,3.5328,3.6393,3.6393,3.6393,3.6393,3.6393,3.6393,3.6393,3.6393,3.6393,3.6393,3.6393,3.6393,3.6393,3.6393,3.6393,3.6393,3.6393,3.6393,3.6481,2.7606,2.7606,2.7606,2.7606,2.7606,2.7606,2.7606,0.0,0.0,0.0,0.0,0.0,0.0,0.0,0.0,0.0,0.0,2.9428,0.0,0.0,0.0,0.0,3.1329,3.1503,3.1503,3.1503,3.1503,3.1503,3.1503,0.0,0.0,0.0,0.0,0.0,3.1791,0.0,3.2509,0.0,3.159,0.0,0.0,0.0,0.0,3.0008,2.9801,2.9801,2.9801,2.9801,2.9801,0.0,2.9801,0.0,0.0,0.0,0.0,0.0,0.0,0.0,0.0,0.0,0.0,0.0,0.0,0.0,2.9924,0.0,2.9801,0.0,0.0,0.0,0.0,0.0,0.0,0.0,2.9801,0.0,0.0,0.0,3.0322,0.0,0.0,0.0,3.2167,3.2428,3.2727,3.3077,3.3102,3.3102,3.3102,3.3102,3.3102,3.3102,3.3102,3.3619,3.469,3.4703,3.5278,3.6393,3.6393,3.6393,3.6393,3.6393,3.6393,3.6393,3.6393,3.6393,3.6393,3.6393,3.6393,3.6393,3.6393,3.6393,3.6393,3.6393,3.6393,3.6519,2.7606,0.0,0.0,0.0,0.0,2.766,0.0,0.0,0.0,0.0,0.0,0.0,2.9832,2.9847,0.0,0.0,3.0777,3.0987,0.0,0.0,3.1503,0.0,0.0,0.0,0.0,3.1503,3.1503,3.1503,3.1503,0.0,0.0,0.0,0.0,0.0,0.0,3.3131,3.3703,0.0,0.0,3.2348,3.2078,3.1651,3.1124,3.0447,3.0017,2.9801,2.9801,2.9801,2.9801,2.9801,2.9801,0.0,2.9801,0.0,0.0,0.0,0.0,0.0,2.9801,0.0,0.0,0.0,0.0,0.0,0.0,0.0,0.0,0.0,0.0,0.0,0.0,0.0,0.0,0.0,0.0,2.9801,0.0,2.9801,0.0,0.0,0.0,0.0,0.0,3.1978,3.2215,3.2815,3.2853,3.2939,3.309,3.3102,3.3102,3.3102,3.3102,3.3619,3.469,3.4703,3.5278,3.6393,3.6393,3.6393,3.6393,3.6393,3.6393,3.6393,3.6393,3.6393,3.6393,3.6393,3.6393,3.6393,3.6393,3.6393,3.6393,3.6393,3.6393,3.6556,2.7606,2.7606,0.0,0.0,0.0,0.0,0.0,0.0,0.0,0.0,0.0,0.0,0.0,0.0,0.0,0.0,0.0,3.1481,3.1503,0.0,3.1503,0.0,0.0,3.1503,0.0,0.0,3.1503,3.1503,3.1503,0.0,0.0,0.0,0.0,0.0,0.0,3.4807,3.5426,3.5384,3.5359,3.5271,3.4295,3.2828,3.1208,0.0,3.0595,2.9801,2.9801,0.0,0.0,2.9801,2.9801,0.0,0.0,0.0,0.0,0.0,0.0,0.0,0.0,0.0,0.0,2.9811,0.0,0.0,0.0,0.0,2.9801,0.0,0.0,0.0,0.0,0.0,0.0,0.0,0.0,0.0,0.0,0.0,0.0,0.0,0.0,0.0,0.0,3.1421,3.165,0.0,3.2229,3.248,3.3077,3.3102,3.3102,3.3102,3.3102,3.3619,3.469,3.4703,3.5278,3.6393,3.6393,3.6393,3.6393,3.6393,3.6393,3.6393,3.6393,3.6393,3.6393,3.6393,3.6393,3.6393,3.6393,3.6393,3.6393,3.6393,3.6393,3.6556,2.7606,0.0,0.0,0.0,0.0,0.0,0.0,2.9325,0.0,0.0,0.0,0.0,0.0,3.1824,3.2093,0.0,0.0,3.2819,3.2819,3.2819,0.0,0.0,0.0,3.1951,0.0,0.0,3.1503,3.1503,0.0,0.0,0.0,0.0,0.0,0.0,0.0,3.4869,0.0,0.0,0.0,0.0,0.0,3.325,3.1988,0.0,0.0,2.9801,2.9801,2.9801,0.0,2.9801,2.9801,2.9801,2.9801,2.9801,2.9801,2.9801,2.9801,0.0,0.0,0.0,3.0576,2.9963,0.0,0.0,0.0,0.0,0.0,0.0,0.0,0.0,0.0,0.0,0.0,0.0,0.0,0.0,0.0,0.0,0.0,0.0,0.0,0.0,0.0,0.0,0.0,0.0,3.2204,0.0,3.3065,3.3102,3.3102,3.3102,3.3102,3.3619,3.469,3.4703,3.5278,3.6393,3.6393,3.6393,3.6393,3.6393,3.6393,3.6393,3.6393,3.6393,3.6393,3.6393,3.6393,3.6393,3.6393,3.6393,3.6393,3.6393,3.6619,3.7085,2.7606,0.0,0.0,0.0,0.0,0.0,0.0,0.0,0.0,0.0,3.1585,0.0,3.2781,0.0,3.3036,0.0,3.3507,3.3507,3.3507,3.3507,0.0,3.2878,3.2856,0.0,0.0,3.1981,3.1862,3.1862,0.0,3.2071,0.0,0.0,0.0,0.0,0.0,3.5108,3.5464,0.0,3.4535,0.0,0.0,3.3645,0.0,0.0,3.0094,2.9837,0.0,3.0085,2.9801,2.9801,2.9801,2.9801,2.9801,2.9801,2.9801,2.9801,2.9801,2.9801,2.9801,3.0495,0.0,3.0027,3.051,0.0,3.0008,0.0,0.0,0.0,0.0,0.0,0.0,0.0,0.0,0.0,0.0,0.0,0.0,2.9801,0.0,0.0,0.0,0.0,0.0,0.0,3.0761,3.1828,3.1913,3.2252,0.0,3.3102,3.3102,3.3102,3.3102,3.3619,3.469,3.4703,3.5278,3.6393,3.6393,3.6393,3.6393,3.6393,3.6393,3.6393,3.6393,3.6393,3.6393,3.6393,3.6393,3.6393,3.6393,3.6393,3.6393,3.6393,3.6859,3.7625,2.7696,2.8216,0.0,0.0,2.8276,0.0,0.0,0.0,3.1068,0.0,3.2542,3.2804,3.3477,3.3552,3.3567,3.3597,3.3597,0.0,3.3597,3.3597,0.0,0.0,3.3552,3.3529,3.3507,3.2878,3.2542,0.0,0.0,0.0,0.0,0.0,0.0,0.0,3.5228,0.0,3.5496,3.5496,3.5496,3.5423,3.4453,3.4044,3.3808,3.2069,3.0809,3.0046,3.0842,3.0624,2.9934,2.9876,2.9895,2.9934,2.9934,2.9934,2.9934,2.9934,2.9905,2.9879,2.9879,3.0482,3.0914,3.0017,3.0463,0.0,0.0,0.0,2.9801,0.0,0.0,0.0,0.0,0.0,0.0,0.0,0.0,0.0,0.0,0.0,0.0,0.0,0.0,0.0,0.0,0.0,3.0231,3.1283,3.1359,3.1861,0.0,3.3052,3.3077,3.3102,3.3102,3.3619,3.469,3.4703,3.5278,3.6393,3.6393,3.6393,3.6393,3.6393,3.6393,3.6393,3.6393,3.6393,3.6393,3.6393,3.6393,3.6393,3.6393,3.6418,3.6443,3.6468,3.7123,3.809,2.9097,2.9225,2.9428,0.0,2.9894,3.0291,0.0,0.0,0.0,0.0,3.3245,3.3507,3.4173,3.4241,3.4435,3.4936,3.4996,0.0,0.0,0.0,0.0,3.4271,3.4241,3.4009,3.3507,3.3335,0.0,3.3245,0.0,0.0,3.3986,0.0,0.0,0.0,0.0,0.0,3.5496,3.5496,3.5496,3.548,3.5221,3.4675,3.4027,0.0,3.3347,3.1728,3.0567,3.0902,3.1774,3.1082,3.13,3.1883,3.1883,3.1883,3.1883,3.1883,3.1384,3.0842,3.0842,3.051,3.0104,2.9859,2.9982,3.0104,0.0,0.0,0.0,0.0,0.0,0.0,0.0,0.0,0.0,0.0,0.0,0.0,0.0,0.0,0.0,2.9801,0.0,0.0,0.0,2.9801,3.008,3.0748,3.0811,3.1275,3.2367,0.0,3.2641,3.3101,3.3102,3.3619,3.469,3.4703,3.5278,3.6393,3.6393,3.6393,3.6393,3.6393,3.6393,3.6393,3.6393,3.6393,3.6393,3.6393,3.6393,3.6393,3.6393,3.6644,3.7047,3.7437,3.7764,3.814,2.96,3.005,0.0,3.1263,0.0,0.0,3.1921,0.0,0.0,3.3851,3.3934,0.0,3.4854,3.4937,3.5093,3.5474,3.5496,0.0,3.5496,0.0,0.0,3.4944,3.4937,3.4764,3.4382,3.4099,0.0,3.3934,0.0,0.0,3.4511,0.0,0.0,0.0,0.0,3.5496,3.5496,3.5496,3.5496,3.5496,3.5496,3.5157,0.0,3.4806,3.4442,3.3616,3.1705,3.1705,3.2464,3.1527,3.1815,3.2522,3.2123,3.1988,3.2033,3.2272,3.1662,3.099,3.1222,3.1538,3.1714,3.13,3.1857,3.2408,3.1991,3.167,3.1334,0.0,3.0618,3.0289,0.0,0.0,0.0,0.0,0.0,0.0,0.0,0.0,0.0,0.0,2.9801,0.0,0.0,2.9801,3.0018,3.056,3.06,3.1065,3.2141,0.0,3.2478,3.3077,3.3102,3.3619,3.469,3.4703,3.5278,3.6393,3.6393,3.6393,3.6393,3.6393,3.6393,3.6393,3.6393,3.6393,3.6393,3.6393,3.6393,3.6393,3.6393,3.6732,3.7261,3.7801,3.8165,3.8529,3.0109,0.0,0.0,0.0,0.0,0.0,0.0,3.326,0.0,3.4533,0.0,3.4854,3.5444,3.5496,3.5496,3.5496,0.0,3.5496,3.5496,3.5496,3.5496,3.5496,3.5496,3.5496,3.5496,3.4929,0.0,0.0,0.0,0.0,0.0,0.0,0.0,0.0,0.0,0.0,0.0,3.5496,3.5496,3.5496,3.5496,3.5496,3.54,3.4526,3.4733,3.5271,3.359,3.2978,3.2837,3.1888,3.2195,3.2851,3.2119,3.1891,3.2003,3.2557,3.2035,3.1406,3.1877,3.3198,3.4228,3.3409,3.4524,3.5565,3.4612,3.3932,3.3251,3.2288,3.1579,3.0875,0.0,0.0,0.0,0.0,0.0,0.0,0.0,0.0,0.0,0.0,0.0,0.0,0.0,2.9801,2.9993,3.046,3.0497,3.0952,3.2041,0.0,3.2403,3.3077,3.3102,3.3619,3.469,3.4703,3.5278,3.6393,3.6393,3.6393,3.6393,3.6393,3.6393,3.6393,3.6393,3.6393,3.6393,3.6393,3.6393,3.6406,3.6481,3.6833,3.7374,3.7914,3.8479,3.907,0.0,0.0,0.0,0.0,0.0,3.4286,3.4166,3.4248,3.4563,3.5243,3.5325,3.537,3.5481,3.5496,3.5496,3.5496,3.5496,0.0,0.0,0.0,0.0,3.5496,3.5496,3.5496,3.5496,3.5376,3.5325,0.0,0.0,0.0,0.0,0.0,0.0,0.0,0.0,0.0,3.5496,3.5496,0.0,3.5496,3.5496,3.5496,3.548,3.5295,3.5351,3.5464,3.5108,3.5001,3.4831,3.3848,3.4175,3.5065,3.5446,3.558,3.5689,3.6274,3.5785,3.5072,3.5176,3.4896,3.4528,3.435,3.4575,3.4566,3.3515,3.3197,3.2806,3.1757,3.1088,3.0642,3.0489,0.0,0.0,0.0,0.0,0.0,0.0,0.0,0.0,0.0,0.0,2.9801,0.0,0.0,2.9839,2.993,2.9942,3.0417,3.1474,0.0,3.2024,0.0,3.3102,3.3619,0.0,0.0,3.5278,3.6393,3.6393,3.6393,3.6393,3.6393,3.6393,3.6393,3.6393,3.6393,3.6393,3.6393,3.6393,3.6443,3.6884,3.7387,3.7939,3.8517,3.9082,3.9572,0.0,0.0,0.0,0.0,0.0,0.0,0.0,3.5019,0.0,3.5459,3.5496,3.5496,3.5496,3.5496,3.5496,3.5496,3.5496,3.5496,3.5496,3.5496,3.5496,3.5496,3.5496,0.0,3.5496,3.5496,3.5496,3.5496,0.0,0.0,0.0,0.0,0.0,0.0,0.0,3.5496,0.0,0.0,0.0,3.5496,3.5496,3.5496,3.5496,3.5496,3.5496,3.5541,3.5893,3.6021,3.5866,3.4863,3.519,3.6043,3.619,3.6244,3.6352,3.6916,3.6421,3.5751,3.6029,3.6179,3.6127,3.5571,3.6269,3.681,3.5729,3.5648,3.5363,3.3801,3.2997,3.2172,3.0834,3.0397,0.0,0.0,0.0,0.0,0.0,0.0,0.0,0.0,0.0,0.0,0.0,0.0,0.0,0.0,0.0,3.0279,3.1346,0.0,3.1911,0.0,0.0,0.0,3.469,0.0,3.5278,3.6393,3.6393,3.6393,3.6393,3.6393,3.6393,3.6393,3.6393,3.6393,3.6393,3.6393,3.6393,3.6456,3.6997,3.7537,3.8078,3.868,3.9245,3.9697,0.0,3.4345,0.0,0.0,3.5153,0.0,3.5496,3.5496,3.5496,3.5496,3.5496,3.5496,3.5496,3.5496,3.5496,3.5496,3.5496,3.5496,3.5496,3.5496,3.5496,3.5496,3.5496,3.5496,3.5496,3.5496,3.5496,0.0,0.0,0.0,0.0,0.0,0.0,0.0,0.0,0.0,0.0,0.0,3.5496,3.5496,3.5496,3.5496,3.5496,3.5496,3.5594,3.5789,3.6306,3.6575,3.6585,3.5938,3.6147,3.6666,3.6547,3.6501,3.6623,3.7181,3.6833,3.6338,3.6774,3.7496,3.7932,3.7094,3.8148,3.9123,3.8041,3.7867,3.7415,3.5622,3.4547,3.3275,3.1169,3.0686,0.0,0.0,0.0,0.0,0.0,0.0,0.0,0.0,0.0,0.0,2.9801,0.0,0.0,0.0,0.0,3.0382,3.1346,3.1509,3.2037,0.0,0.0,3.3619,3.469,0.0,3.5278,3.6393,3.6393,3.6393,3.6393,3.6393,3.6393,3.6393,3.6393,3.6393,3.6393,3.6393,3.6468,3.6619,3.7161,3.7713,3.8253,3.8843,3.9333,3.9697,0.0,0.0,0.0,0.0,0.0,0.0,3.5496,3.5496,3.5496,3.5496,3.5496,3.5496,3.5496,3.5496,3.5496,3.5496,3.5496,3.5496,3.5496,3.5496,3.5496,3.5496,3.5496,3.5496,3.5496,3.5496,3.5496,0.0,0.0,3.5496,0.0,0.0,0.0,0.0,0.0,0.0,0.0,3.5496,3.5496,3.5496,3.5496,3.5496,3.5496,3.5496,3.5878,3.641,3.6479,3.6859,3.7387,3.7916,3.7739,3.7417,3.799,3.8173,3.8298,3.8967,3.9088,3.9039,3.9084,3.9168,3.9237,3.9132,3.9241,3.9123,3.8041,3.7085,3.6089,3.4991,3.3511,3.2179,3.1452,3.0934,3.0575,0.0,0.0,0.0,0.0,0.0,0.0,0.0,0.0,0.0,0.0,2.9801,2.9801,0.0,3.0256,3.0773,3.1371,3.1853,3.2416,3.3077,3.3102,3.3619,3.469,3.4703,3.5278,3.6393,3.6393,3.6393,3.6393,3.6393,3.6393,3.6393,3.6393,3.6393,3.6393,3.6393,3.6695,3.7185,3.7726,3.8278,3.8881,3.9421,3.966,3.9697,0.0,0.0,0.0,0.0,0.0,0.0,0.0,3.5496,3.5496,3.5496,3.5496,3.5496,3.5496,3.5496,3.5496,3.5496,3.5496,3.5496,3.5496,3.5496,3.5496,3.5496,3.5496,3.5496,3.5496,3.5496,3.5496,0.0,0.0,0.0,0.0,0.0,0.0,0.0,0.0,3.5496,3.5496,3.5496,3.5496,3.5496,3.5496,3.5744,3.6096,3.6096,3.65,3.709,3.7511,3.7802,3.8093,3.8772,3.8548,3.8123,3.8787,3.8996,3.9056,3.9316,3.9406,3.9406,3.9406,3.9406,3.9256,3.8592,3.8925,3.9123,3.8041,3.7472,3.6852,3.5818,3.4077,3.2554,3.1989,3.1702,3.1451,3.1125,0.0,0.0,0.0,0.0,0.0,0.0,0.0,0.0,0.0,2.9801,2.9801,2.9801,0.0,3.0824,3.1371,3.1903,3.2478,3.3077,0.0,3.3935,3.469,3.5018,3.5593,3.6393,3.6393,3.6393,3.6393,3.6393,3.6393,3.6393,3.6393,3.6393,3.6418,3.6757,3.7009,3.7286,3.819,3.8693,3.8957,3.9496,3.9697,3.9697,3.5496,0.0,3.5496,0.0,3.5496,3.5496,3.5496,3.5496,3.5496,3.5496,3.5496,3.5496,3.5496,3.5496,3.5496,3.5496,3.5496,3.5496,3.5496,3.5496,3.5496,3.5496,3.5496,0.0,3.5496,3.5496,3.5496,3.5496,3.5496,0.0,0.0,0.0,0.0,0.0,3.5496,3.5496,3.5496,3.5496,3.5496,3.5519,3.5714,3.6081,3.6515,3.6695,3.715,3.7764,3.8236,3.8535,3.8766,3.9242,3.9086,3.8781,3.9257,3.9406,3.9406,3.9406,3.9406,3.9406,3.9406,3.9406,3.9228,3.8462,3.8837,3.9123,3.8041,3.7558,3.6944,3.5578,3.4116,3.2966,3.2541,3.2317,3.2079,3.17,0.0,0.0,0.0,0.0,0.0,0.0,3.004,3.004,3.004,3.004,3.0093,0.0,0.0,3.1162,3.1396,3.2087,0.0,0.0,0.0,0.0,3.469,3.5231,3.5806,3.6393,3.6393,3.6393,3.6393,3.6393,3.6393,3.6393,3.6393,3.6494,3.6658,3.7047,3.7399,3.7788,3.858,3.8994,3.9183,3.9559,3.9697,3.9697,3.5496,3.5496,3.5496,3.5496,3.5496,3.5496,3.5496,3.5496,3.5496,3.5496,3.5496,3.5496,3.5496,3.5496,3.5496,3.5496,3.5496,3.5496,3.5496,3.5496,3.5496,0.0,0.0,3.5496,3.5496,3.5496,3.5496,3.5496,0.0,0.0,3.5496,0.0,3.5496,3.5496,3.5496,3.5496,3.5496,3.5496,3.5496,3.5556,3.6216,3.6493,3.6568,3.7157,3.7808,3.8386,3.8401,3.8826,3.9391,3.9406,3.9382,3.9391,3.9406,3.9406,3.9406,3.9406,3.9406,3.9406,3.9406,3.9406,3.9406,3.9388,3.9397,3.9123,3.8041,3.6982,3.5624,3.3554,3.3124,3.3102,3.309,3.2604,3.2204,3.2192,0.0,0.0,0.0,0.0,0.0,0.0,3.0588,3.0588,3.0588,3.0588,0.0,0.0,0.0,0.0,0.0,0.0,0.0,3.3102,3.3619,0.0,3.469,3.5231,3.5806,3.6393,3.6393,3.6393,3.6393,3.6393,3.6393,3.6393,3.6393,3.6695,3.7186,3.7198,3.7864,3.8881,3.8881,3.922,3.9685,3.9697,3.9697,3.9697,3.5496,3.5496,3.5496,3.5496,3.5496,3.5496,3.5496,3.5496,3.5669,3.6118,3.6186,3.6335,3.6753,3.6432,3.635,0.0,3.6798,3.6618,0.0,3.6186,3.5976,3.5526,3.5496,3.5496,3.5496,3.5496,3.5496,3.5496,0.0,0.0,0.0,3.5496,3.5496,3.5496,3.5496,3.5496,3.5496,3.5496,3.5759,3.6201,3.641,3.7024,3.7817,3.8012,3.8497,3.9086,3.9086,3.9212,3.9406,3.9406,3.9406,3.9406,3.9406,3.9406,3.9406,3.9406,3.9406,3.9406,3.9406,3.9406,3.9406,3.9406,3.9406,3.931,3.8971,3.7506,3.5824,3.448,3.3609,3.3102,3.3102,3.2941,3.2815,3.2815,3.2328,0.0,0.0,0.0,0.0,0.0,3.1158,3.1158,3.1158,3.1158,0.0,0.0,0.0,0.0,0.0,0.0,0.0,0.0,3.4173,0.0,3.5232,3.583,3.6218,3.6393,3.6393,3.6393,3.6393,3.6393,3.6393,3.6418,3.6795,3.7047,3.7261,3.8039,3.8567,3.8931,3.9296,3.9547,3.9697,3.9697,3.9697,3.9697,3.5496,3.5496,3.5496,3.5496,3.5714,3.5878,3.5878,3.6073,3.6364,3.6776,3.6844,3.7084,3.7704,3.7443,0.0,3.7396,3.7396,3.7231,3.6859,3.6844,3.656,3.5893,3.5878,3.5759,3.5504,3.5496,0.0,3.5496,3.5496,3.5496,3.5496,3.5496,3.5496,3.5496,3.5496,3.5639,3.5878,3.5878,3.6252,3.6859,3.7114,3.7682,3.8431,3.8676,3.9041,3.9406,3.9406,3.9406,3.9406,3.9406,3.9406,3.9406,3.9406,3.9406,3.9406,3.9406,3.9406,3.9406,3.9406,3.9406,3.9406,3.9406,3.9406,3.9292,3.8898,3.717,3.547,3.4825,3.386,3.3102,3.3102,3.3102,3.3102,3.3102,3.2778,3.2541,3.2541,0.0,0.0,0.0,0.0,0.0,0.0,3.17,3.1788,0.0,0.0,0.0,0.0,0.0,0.0,3.3884,3.4426,3.4966,3.5495,3.6106,3.6393,3.6393,3.6393,3.6393,3.6393,3.6393,3.6506,3.672,3.7048,3.7437,3.7889,3.8605,3.9019,3.9233,3.9572,3.9697,3.9697,3.9697,3.9697,3.9697,3.5556,3.5571,3.5586,0.0,3.6156,0.0,3.656,3.7045,3.7411,3.7456,3.7471,3.771,3.8401,3.8476,3.8221,3.759,0.0,0.0,0.0,3.7471,3.721,3.659,3.656,3.6276,3.5654,3.5631,3.5601,3.5571,3.5526,3.5526,3.5571,3.5571,3.5586,3.5631,3.5631,3.5983,3.656,3.656,3.6911,3.7516,3.8146,3.8431,3.8535,3.9152,3.9406,3.9406,3.9406,3.9406,3.9406,3.9406,3.9406,3.9406,3.9406,3.9406,3.9406,3.9406,3.9406,3.9406,3.9406,3.9406,3.9406,3.9406,3.9406,3.9141,3.8135,3.6362,3.4887,3.4815,3.3953,3.3186,3.3113,3.3102,3.3102,3.3102,3.3102,3.3102,3.3102,3.3102,3.2891,0.0,0.0,0.0,3.2267,3.2267,3.2503,0.0,0.0,0.0,0.0,0.0,3.3393,3.3935,3.4488,3.5029,3.557,3.6118,3.6393,3.6393,3.6393,3.6418,3.6456,3.6456,3.6746,3.7261,3.7299,3.7926,3.8894,3.8931,3.9245,3.9697,3.9697,3.9697,3.9697,3.9697,3.9697,3.9697,0.0,0.0,3.641,3.6872,3.7082,3.7195,3.7195,3.7306,3.7575,3.8101,3.8161,3.8422,3.9086,3.9152,3.9092,3.8943,3.8928,3.8712,3.8206,3.8161,3.7868,3.7225,3.7195,3.7112,3.6947,3.6947,3.6731,3.6261,3.5744,3.5759,3.6261,3.6261,3.6507,3.6947,3.6947,3.7037,3.7195,3.7195,3.7569,3.8176,3.8341,3.8706,3.9176,3.9346,3.9406,3.9406,3.9406,3.9406,3.9406,3.9406,3.9406,3.9406,3.9406,3.9406,3.9406,3.9406,3.9406,3.9406,3.9406,3.9406,3.9406,3.9406,3.9406,3.9328,3.9086,3.8013,3.6827,3.6004,3.5037,3.4079,3.3251,3.3102,3.3102,3.3102,3.3102,3.3102,3.3102,3.3102,3.3052,0.0,3.2889,3.2889,3.2889,3.2889,3.2952,0.0,0.0,0.0,3.3684,3.372,3.396,3.449,3.503,3.5594,3.618,3.633,3.6393,3.6393,3.6393,3.6607,3.7009,3.7009,3.7299,3.7839,3.8303,3.8655,3.8931,3.9333,3.9597,3.9697,3.9697,3.9697,3.9697,3.9697,3.9697,3.9697,3.6836,3.6911,3.7015,3.7336,3.7659,3.7853,3.7853,3.8114,3.8443,3.8811,3.8856,3.8996,3.9361,3.9406,3.9406,3.9406,3.9406,3.9251,3.8886,3.8856,3.8556,3.7883,3.7853,3.7719,3.7411,3.7396,3.7231,3.6911,3.6552,3.6543,3.6911,3.6911,3.709,3.7396,3.7396,3.7575,3.7853,3.7853,3.8242,3.8856,3.8856,3.9086,3.9406,3.9406,3.9406,3.9406,3.9406,3.9406,3.9406,3.9406,3.9406,3.9406,3.9406,3.9406,3.9406,3.9406,3.9406,3.9406,3.9406,3.9406,3.9406,3.9406,3.9406,3.9274,3.8782,3.7847,3.6765,3.5728,3.4692,3.3797,3.3208,3.3102,3.3102,3.3102,3.3102,3.3102,3.3102,3.3102,3.3102,3.3102,3.3102,3.3102,3.3102,3.3102,3.3203,3.3454,3.3468,0.0,3.4237,3.449,3.4766,3.5055,3.5356,3.5782,3.6393,3.6393,3.6393,3.6393,3.6657,3.6921,3.7211,3.745,3.7876,3.8429,3.8756,3.9032,3.9283,3.9584,3.9697,3.9697,3.9697,3.9697,3.9697,3.9697,3.9697,3.9697,3.7539,3.7545,3.7575,3.768,3.8167,3.8542,3.8542,3.9026,3.9406,3.9406,3.9406,3.9406,3.9406,3.9406,3.9406,3.9406,3.9406,3.9406,3.9406,3.9406,3.9146,3.858,3.8542,3.8272,3.7701,3.7605,3.7545,3.7545,3.7456,3.7456,3.7545,3.7545,3.7605,3.771,3.771,3.8018,3.8542,3.8542,3.8886,3.9406,3.9406,3.9406,3.9406,3.9406,3.9406,3.9406,3.9406,3.9406,3.9406,3.9406,3.9406,3.9406,3.9406,3.9406,3.9406,3.9406,3.9406,3.9406,3.9406,3.9406,3.9406,3.9406,3.9406,3.9123,3.8041,3.7098,3.6103,3.4938,3.3984,3.3293,3.3122,3.3102,3.3102,3.3102,3.3102,3.3102,3.3102,0.0,3.3102,3.3102,3.3102,3.3102,3.3102,3.3178,3.3406,3.3872,3.3972,3.425,3.4779,3.5256,3.5533,3.5632,3.5632,3.5881,3.6405,3.6393,3.6443,3.6531,3.6984,3.7286,3.7462,3.7939,3.8467,3.9019,3.9019,3.9283,3.9697,3.9697,3.9697,3.9697,3.9697,3.9697,3.9697,3.9697,3.9697,3.9697,3.8123,3.8242,3.8422,3.8987,3.9176,3.9242,3.9242,3.9331,3.9406,3.9406,3.9406,3.9406,3.9406,3.9406,3.9406,3.9406,3.9406,3.9406,3.9406,3.9406,3.9346,3.9251,3.9242,3.9206,3.9092,3.8533,3.8242,3.8242,3.7689,3.7689,3.8242,3.8242,3.8556,3.9092,3.9092,3.9152,3.9242,3.9242,3.9302,3.9406,3.9406,3.9406,3.9406,3.9406,3.9406,3.9406,3.9406,3.9406,3.9406,3.9406,3.9406,3.9406,3.9406,3.9406,3.9406,3.9406,3.9406,3.9406,3.9406,3.9406,3.9406,3.9406,3.9406,3.9123,3.8041,3.7663,3.7006,3.5091,3.4573,3.417,3.3272,3.3102,3.3102,3.3102,3.3102,3.3102,3.3102,0.0,3.3102,3.3102,3.3102,3.3102,3.3102,3.3506,3.3809,3.3884,3.4313,3.4816,3.5356,3.5445,3.5732,3.6243,3.6256,3.6318,3.6393,3.6393,3.6632,3.7085,3.7161,3.77,3.863,3.8718,3.907,3.9584,3.9584,3.9622,3.9697,3.9697,3.9697,3.9697,3.9697,3.9697,3.9697,3.9697,3.9697,3.9697,3.8877,3.8945,3.9041,3.9346,3.9406,3.9406,3.9406,3.9406,3.9406,3.9406,3.9406,3.9406,3.9406,3.9406,3.9406,3.9406,3.9406,3.9406,3.9406,3.9406,3.9406,3.9406,3.9406,3.9406,3.9406,3.9101,3.8945,3.8945,3.8637,3.8637,3.8945,3.8945,3.9101,3.9406,3.9406,3.9406,3.9406,3.9406,3.9406,3.9406,3.9406,3.9406,3.9406,3.9406,3.9406,3.9406,3.9406,3.9406,3.9451,3.9819,3.9939,3.9999,4.0367,4.0472,4.0472,4.0472,3.9969,3.9406,3.9406,3.9406,3.9406,3.9406,3.8971,3.8256,3.7185,3.6525,3.5685,3.416,3.385,3.3681,3.3186,3.3102,3.3102,3.3102,3.3102,0.0,3.3102,3.3102,3.3102,3.3102,3.3366,3.3531,3.3531,3.4022,3.4451,3.4741,3.498,3.538,3.5956,3.5981,3.6106,3.6393,3.6393,3.6393,3.6393,3.6695,3.6959,3.7211,3.7826,3.8391,3.8906,3.9208,3.9471,3.9697,3.9697,3.9697,3.9697,3.9697,3.9697,3.9697,3.9697,3.9697,3.9697,3.9697,3.9697,3.9697,3.9406,3.9406,3.9406,3.9406,3.9406,3.9406,3.9406,3.9406,3.9406,3.9406,3.9406,3.9406,3.9406,3.9406,3.9406,3.9406,3.9406,3.9406,3.9406,3.9406,3.9406,3.9406,3.9406,3.9406,3.9406,3.9406,3.9406,3.9406,3.9406,3.9406,3.9406,3.9406,3.9406,3.9406,3.9406,3.9406,3.9406,3.9406,3.9406,3.9406,3.9406,3.9406,3.9421,3.9571,3.9631,3.9645,3.9819,3.9864,3.9939,4.0457,4.0621,4.0711,4.1239,4.1403,4.1403,4.1403,4.0666,3.9864,3.9864,3.9864,3.9864,3.9864,3.9258,3.828,3.6948,3.5944,3.4893,3.3556,3.319,3.3102,3.3102,3.3102,3.3102,3.3102,0.0,3.314,3.3278,3.3291,3.333,3.3456,3.3834,3.4085,3.4085,3.4565,3.5055,3.547,3.5632,3.5907,3.638,3.6393,3.6393,3.6393,3.6393,3.6456,3.6582,3.6997,3.7324,3.7612,3.8479,3.8969,3.9107,3.9509,3.9697,3.9697,3.9697,3.9697,3.9697,3.9697,3.9697,3.9697,3.9697,3.9697,3.9697,3.9697,3.9697,3.9697,3.9406,3.9406,3.9406,3.9406,3.9406,3.9406,3.9406,3.9406,3.9406,3.9406,3.9406,3.9406,3.9406,3.9406,3.9406,3.9406,3.9406,3.9406,3.9406,3.9406,3.9406,3.9406,3.9406,3.9406,3.9406,3.9406,3.9406,3.9406,3.9406,3.9406,3.9406,3.9406,3.9406,3.9406,3.9406,3.9406,3.9406,3.9406,3.9406,3.9406,3.9406,3.9406,3.9466,4.0088,4.0337,4.0412,4.102,4.1254,4.1268,4.1313,4.1328,4.1328,4.1388,4.1403,4.1403,4.1403,4.1328,4.1254,4.1254,4.1254,4.1254,4.1254,4.1197,4.0575,3.8458,3.7472,3.6411,3.4279,3.3454,3.3102,3.3102,3.3102,3.3102,3.3102,0.0,0.0,3.3771,3.3847,3.4035,3.4515,3.4615,3.464,3.464,3.5131,3.5458,3.5495,3.6019,3.6355,3.6393,3.6393,3.6393,3.6393,3.6393,3.6644,3.7148,3.7173,3.7738,3.8781,3.8856,3.917,3.9634,3.9672,3.9697,3.9697,3.9697,3.9697,3.9697,3.9697,3.9697,3.9697,3.9697,3.9697,3.9697,3.9697,3.9697,3.9697,3.9406,3.9406,3.9406,3.9406,3.9406,3.9406,3.9406,3.9406,3.9406,3.9406,3.9406,3.9406,3.9406,3.9406,3.9406,3.9406,3.9406,3.9406,3.9406,3.9406,3.9406,3.9406,3.9406,3.9406,3.9406,3.9406,3.9406,3.9406,3.9406,3.9406,3.9406,3.9406,3.9406,3.9406,3.9406,3.9406,3.9436,3.9834,4.0014,4.0058,4.0472,4.0645,4.0675,4.0915,4.102,4.105,4.1313,4.1403,4.1463,4.1877,4.2027,4.2086,4.2452,4.2586,4.2586,4.2586,4.2586,4.2586,4.2586,4.1998,4.1403,4.1403,4.0901,4.0183,3.9352,3.8453,3.7386,3.5839,3.5358,3.4977,3.4229,3.4087,3.4087,3.4087,0.0,3.4162,3.4363,3.44,3.4476,3.4678,3.4993,3.5206,3.5206,3.5718,3.6068,3.6068,3.6268,3.6393,3.6393,3.6393,3.6556,3.6884,3.6896,3.6997,3.7198,3.7901,3.8467,3.8906,3.9245,3.9496,3.9697,3.9697,3.9697,3.9697,3.9697,3.9697,3.9697,3.9697,3.9697,3.9697,3.9697,3.9697,3.9697,3.9697,3.9697,3.9697,3.9406,3.9406,3.9406,3.9406,3.9406,3.9406,3.9406,3.9406,3.9406,3.9406,3.9406,3.9406,3.9406,3.9406,3.9406,3.9406,3.9406,3.9406,3.9406,3.9601,3.9616,3.9406,3.9406,3.9406,3.9406,3.9406,3.9406,3.9406,3.9406,3.9406,3.9406,3.9625,3.9705,3.972,3.9939,4.0029,4.0058,4.0516,4.072,4.075,4.1209,4.1403,4.1418,4.1628,4.1712,4.1733,4.1932,4.2007,4.2067,4.2531,4.269,4.2756,4.3175,4.33,4.33,4.33,4.33,4.33,4.33,4.2651,4.2007,4.2007,4.1435,4.0814,4.0446,3.9668,3.8588,3.7066,3.6619,3.6134,3.4914,3.4703,3.4703,3.4703,3.4703,3.4753,3.4929,3.4942,3.5017,3.5215,3.5555,3.5782,3.5782,3.6156,3.6393,3.6393,3.6393,3.6393,3.6393,3.6556,3.6808,3.7186,3.755,3.7726,3.7726,3.8504,3.8982,3.9158,3.9522,3.9697,3.9697,3.9697,3.9697,3.9697,3.9697,3.9697,3.9697,3.9697,3.9697,3.9697,3.9697,3.9697,3.9697,3.9697,3.9697,3.9697,3.9406,3.9406,3.9406,3.9406,3.9406,3.9406,3.9406,3.9406,3.9406,3.9406,3.9406,3.9406,3.9406,3.9406,3.9406,3.9406,3.9406,3.9421,3.9421,4.0043,4.0103,3.9442,3.9421,3.9421,3.9421,3.9421,3.9421,3.9421,3.9421,3.9421,3.9436,4.0103,4.0412,4.0442,4.1094,4.1403,4.1403,4.1403,4.1403,4.1403,4.1403,4.1403,4.1493,4.2146,4.241,4.2491,4.3085,4.33,4.33,4.33,4.33,4.33,4.33,4.33,4.33,4.33,4.33,4.33,4.33,4.33,4.33,4.33,4.33,4.2991,4.1871,4.1204,4.0146,3.7798,3.69,3.6168,3.4938,3.4703,3.4703,3.4703,3.4703,3.4892,3.542,3.5508,3.5732,3.633,3.6393,3.6393,3.6393,3.6393,3.6393,3.6393,3.6393,3.6406,3.6406,3.6909,3.7211,3.7211,3.8316,3.8894,3.8906,3.8906,3.917,3.9697,3.9697,3.9697,3.9697,3.9697,3.9697,3.9697,3.9697,3.9697,3.9697,3.9697,3.9697,3.9697,3.9697,3.9697,3.9697,3.9697,3.9697,3.9697,3.9406,3.9406,3.9406,3.9406,3.9406,3.9406,3.9406,3.9406,3.9406,3.9406,3.9406,3.9406,3.9406,3.9819,4.0103,4.0103,4.0531,4.0795,4.0795,4.099,4.1005,4.081,4.0795,4.0795,4.0795,4.0795,4.0795,4.0795,4.0795,4.0795,4.081,4.1005,4.1094,4.1109,4.1313,4.1403,4.1433,4.1907,4.2101,4.2146,4.2566,4.2726,4.2756,4.296,4.3035,4.3065,4.324,4.33,4.33,4.33,4.33,4.33,4.33,4.33,4.33,4.33,4.33,4.33,4.33,4.33,4.33,4.33,4.33,4.321,4.287,4.2667,4.1896,3.9598,3.9008,3.8272,3.626,3.5891,3.5891,3.5891,3.5891,3.5954,3.6106,3.6131,3.6205,3.638,3.6393,3.6393,3.6393,3.6393,3.6393,3.6393,3.6746,3.6959,3.6959,3.7475,3.7964,3.8379,3.8718,3.9082,3.9459,3.9459,3.9547,3.9697,3.9697,3.9697,3.9697,3.9697,3.9697,3.9697,3.9697,3.9697,3.9697,3.9697,3.9697,3.9697,3.9697,3.9697,3.9697,3.9697,3.9697,3.9697,3.9406,3.9406,3.9406,3.9406,3.9406,3.9406,3.9406,3.9406,3.9496,3.9759,3.9804,3.9894,4.0163,4.0546,4.0795,4.0795,4.1164,4.1403,4.1403,4.1652,4.1802,4.1802,4.2013,4.1918,4.1403,4.1403,4.1403,4.1403,4.1403,4.1403,4.1403,4.1673,4.1802,4.1817,4.2052,4.2147,4.2177,4.2581,4.2756,4.2785,4.3145,4.33,4.33,4.33,4.33,4.33,4.33,4.33,4.33,4.33,4.33,4.33,4.33,4.33,4.33,4.33,4.33,4.33,4.33,4.33,4.33,4.33,4.33,4.33,4.33,4.33,4.2644,4.0375,3.9899,3.9185,3.6826,3.6393,3.6393,3.6393,3.6393,3.6393,3.6393,3.6393,3.6393,3.6393,3.6393,3.6393,3.6393,3.6393,3.6494,3.6695,3.7022,3.7286,3.7512,3.8052,3.8517,3.8881,3.9107,3.9371,3.9697,3.9697,3.9697,3.9697,3.9697,3.9697,3.9697,3.9697,3.9697,3.9697,3.9697,3.9697,3.9697,3.9697,3.9697,3.9697,3.9697,3.9697,3.9697,3.9697,3.9697,3.9697,3.9406,3.9406,3.9406,3.9406,3.9451,3.9496,3.9496,3.9541,3.9804,4.0412,4.0487,4.0711,4.1328,4.1448,4.1493,4.1493,4.1538,4.1568,4.1568,4.2146,4.2476,4.2476,4.3005,4.2756,4.1598,4.1568,4.1568,4.1568,4.1568,4.1568,4.1583,4.2191,4.2476,4.2506,4.305,4.33,4.33,4.33,4.33,4.33,4.33,4.33,4.33,4.33,4.33,4.33,4.33,4.33,4.33,4.33,4.33,4.33,4.33,4.33,4.33,4.33,4.33,4.33,4.33,4.33,4.33,4.33,4.33,4.33,4.33,4.322,4.2533,4.0353,3.9812,3.9064,3.6803,3.6393,3.6393,3.6393,3.6393,3.6393,3.6393,3.6393,3.6393,3.6393,3.6393,3.6393,3.6393,3.6443,3.6683,3.7223,3.7311,3.7575,3.804,3.8642,3.8969,3.8969,3.9446,3.9697,3.9697,3.9697,3.9697,3.9697,3.9697,3.9697,3.9697,3.9697,3.9697,3.9697,3.9697,3.9697,3.9697,3.9697,3.9697,3.9697,3.9697,3.9697,3.9697,3.9697,3.9697,3.9697,3.9406,3.9406,3.9406,3.9406,3.9825,4.0178,4.0178,4.0631,4.1029,4.1154,4.1184,4.1239,4.1388,4.1862,4.2176,4.2176,4.2626,4.2891,4.2891,4.3025,4.31,4.31,4.3225,4.3165,4.2881,4.2891,4.2891,4.2891,4.2891,4.2891,4.2891,4.304,4.31,4.3115,4.324,4.33,4.33,4.33,4.33,4.33,4.33,4.33,4.33,4.33,4.33,4.33,4.33,4.33,4.33,4.33,4.33,4.33,4.33,4.33,4.33,4.33,4.33,4.33,4.33,4.33,4.33,4.33,4.33,4.33,4.33,4.2609,4.1581,4.0192,3.915,3.8064,3.6663,3.6393,3.6393,3.6393,3.6393,3.6393,3.6393,3.6393,3.6393,3.6393,3.6393,3.6393,3.6393,3.6783,3.7248,3.7789,3.8253,3.858,3.8705,3.9233,3.9534,3.9534,3.9647,3.9697,3.9697,3.9697,3.9697,3.9697,3.9697,3.9697,3.9697,3.9697,3.9697,3.9697,3.9697,3.9697,3.9697,3.9697,3.9697,3.9697,3.9697,3.9697,3.9697,3.9697,3.9697,3.9697,3.9819,3.9879,3.9984,4.0307,4.0636,4.0885,4.0885,4.1169,4.1508,4.1847,4.1877,4.1987,4.2282,4.2626,4.2821,4.2821,4.3115,4.33,4.33,4.33,4.33,4.33,4.33,4.33,4.33,4.33,4.33,4.33,4.33,4.33,4.33,4.33,4.33,4.33,4.33,4.33,4.33,4.33,4.33,4.33,4.33,4.33,4.33,4.33,4.33,4.33,4.33,4.33,4.33,4.33,4.33,4.3359,4.3683,4.3788,4.3848,4.4162,4.4262,4.4262,4.4262,4.4262,4.4262,4.4262,4.4262,4.4087,4.3449,4.2412,4.1284,4.0124,3.8939,3.7745,3.6616,3.6393,3.6393,3.6393,3.6393,3.6393,3.6393,3.6393,3.6393,3.6393,3.6393,3.6506,3.6758,3.7261,3.7814,3.8391,3.8718,3.9007,3.9271,3.9547,3.9697,3.9697,3.9697,3.9697,3.9697,3.9697,3.9697,3.9697,3.9697,3.9697,3.9697,3.9697,3.9697,3.9697,3.9697,3.9697,3.9697,3.9697,3.9697,3.9697,3.9697,3.9697,3.9697,3.9697,3.9697,3.9697,4.0457,4.0561,4.075,4.1298,4.1493,4.1568,4.1568,4.1658,4.1918,4.2481,4.2551,4.2741,4.3255,4.33,4.33,4.33,4.33,4.33,4.33,4.33,4.33,4.33,4.33,4.33,4.33,4.33,4.33,4.33,4.33,4.33,4.33,4.33,4.33,4.33,4.33,4.33,4.33,4.33,4.33,4.33,4.33,4.33,4.33,4.33,4.3374,4.3479,4.3479,4.3539,4.3628,4.3628,4.3628,4.3743,4.4307,4.4471,4.4576,4.514,4.53,4.53,4.53,4.53,4.53,4.53,4.53,4.5005,4.3908,4.2671,4.1494,4.0558,3.9162,3.7802,3.6861,3.6698,3.6628,3.6428,3.6557,3.6641,3.6542,3.6544,3.6569,3.6658,3.6669,3.6884,3.7449,3.7889,3.8404,3.8994,3.9032,3.9233,3.9685,3.9697,3.9697,3.9697,3.9697,3.9697,3.9697,3.9697,3.9697,3.9697,3.9697,3.9697,3.9697,3.9697,3.9697,3.9697,3.9697,3.9697,3.9697,3.9697,3.9697,3.9697,3.9697,3.9697,3.9697,3.9697,3.9697,3.9697,4.1254,4.1268,4.1283,4.1388,4.1877,4.2261,4.2261,4.2701,4.3075,4.3175,4.319,4.321,4.33,4.33,4.33,4.33,4.33,4.33,4.33,4.33,4.33,4.33,4.33,4.33,4.33,4.33,4.33,4.33,4.33,4.33,4.33,4.33,4.33,4.33,4.33,4.33,4.33,4.33,4.33,4.33,4.33,4.33,4.33,4.33,4.3658,4.4162,4.4162,4.4531,4.5035,4.5035,4.5035,4.505,4.514,4.5155,4.5185,4.5274,4.53,4.53,4.53,4.53,4.53,4.53,4.53,4.5244,4.5065,4.3696,4.2418,4.227,4.003,3.8039,3.7905,3.787,3.7551,3.6557,3.7231,3.7687,3.7178,3.7097,3.7261,3.7726,3.7789,3.8027,3.8605,3.873,3.8994,3.9547,3.9597,3.9622,3.9697,3.9697,3.9697,3.9697,3.9697,3.9697,3.9697,3.9697,3.9697,3.9697,3.9697,3.9697,3.9697,3.9697,3.9697,3.9697,3.9697,3.9697,3.9697,3.9697,3.9697,3.9697,3.9697,3.9697,3.9697,3.9697,3.9697,3.9697,4.1892,4.1967,4.2062,4.2392,4.2706,4.2895,4.2895,4.313,4.33,4.33,4.33,4.33,4.33,4.33,4.33,4.33,4.33,4.33,4.33,4.33,4.33,4.33,4.33,4.33,4.33,4.33,4.33,4.33,4.33,4.33,4.33,4.33,4.33,4.33,4.33,4.33,4.3329,4.3688,4.3863,4.3893,4.4277,4.4411,4.4411,4.4411,4.4591,4.487,4.487,4.505,4.53,4.53,4.53,4.5364,4.5743,4.5862,4.5922,4.6307,4.6426,4.6426,4.6426,4.6426,4.6426,4.6426,4.6426,4.6426,4.6426,4.5514,4.4378,4.3375,4.1571,4.018,4.018,4.018,3.9999,3.9497,3.9839,4.0068,3.9809,3.916,3.8526,3.8063,3.8303,3.8617,3.8869,3.917,3.9446,3.9672,3.9697,3.9697,3.9697,3.9697,3.9697,3.9697,3.9697,3.9697,3.9697,3.9697,3.9697,3.9697,3.9697,3.9697,3.9697,3.9697,3.9697,3.9697,3.9697,3.9697,3.9697,3.9697,3.9697,3.9697,3.9697,3.9697,3.9697,3.9697,3.9697,3.9697]}]]